ftp/pub/palmer/observations_modified/2019/June/AR190505_BASE.txt

Download

Sample DateTime	Unit Id	WS Avg 2min	WD Avg 2min	WGS 10min	WGD 10min	Air Temp	Rel Humidity	Dew Point	Pyranometer	Quantum	Air Pressure	Snow Level	Rainfall	PW Current	Visibility	CBase 1	CBase 2	CBase 3	Vert Vis
2019/05/05 00:00:00	BASE	1.44	15	1.65	22	-1.3	100	-1.3	0	0	984.8	NA	0.0000		9999	560	0	0	0
2019/05/05 00:01:00	BASE	1.41	11	1.65	22	-1.3	100	-1.3	0	0	984.8	NA	0.0000		9999	520	0	0	0
2019/05/05 00:02:00	BASE	1.53	10	1.95	17	-1.3	100	-1.3	0	0	984.8	NA	0.0000		9999	560	0	0	0
2019/05/05 00:03:00	BASE	1.74	13	2.26	10	-1.3	100	-1.3	0	0	984.8	NA	0.0000		9999	520	0	0	0
2019/05/05 00:04:00	BASE	1.76	9	2.26	10	-1.3	100	-1.3	0	0	984.8	NA	0.0000		9999	520	0	0	0
2019/05/05 00:05:00	BASE	1.86	15	2.26	10	-1.3	100	-1.3	0	0	984.8	NA	0.0000		9999	460	0	0	0
2019/05/05 00:06:00	BASE	2.01	28	2.26	10	-1.3	100	-1.3	0	0	984.8	NA	0.0000		9999	430	0	0	0
2019/05/05 00:07:00	BASE	2.08	34	2.31	41	-1.3	100	-1.3	0	0	984.8	NA	0.0000		9999	460	0	0	0
2019/05/05 00:08:00	BASE	2.06	40	2.31	41	-1.3	100	-1.3	0	0	984.8	NA	0.0000		9999	490	0	0	0
2019/05/05 00:09:00	BASE	1.97	43	2.31	41	-1.2	100	-1.2	0	0	984.8	NA	0.0000		9999	490	0	0	0
2019/05/05 00:10:00	BASE	2.17	45	2.52	41	-1.2	100	-1.2	0	0	984.8	NA	0.0000		9999	490	0	0	0
2019/05/05 00:11:00	BASE	2.31	47	2.68	47	-1.2	100	-1.2	0	0	984.8	NA	0.0000		9999	490	0	0	0
2019/05/05 00:12:00	BASE	2.43	48	2.98	48	-1.2	100	-1.2	0	0	984.8	NA	0.0000		9999	520	0	0	0
2019/05/05 00:13:00	BASE	2.64	49	3.34	50	-1.2	100	-1.2	0	0	984.8	NA	0.0000		9999	590	0	0	0
2019/05/05 00:14:00	BASE	2.44	47	3.34	50	-1.2	100	-1.2	0	0	984.8	NA	0.0000		9999	590	0	0	0
2019/05/05 00:15:00	BASE	2.33	44	3.34	50	-1.2	100	-1.2	0	0	984.8	NA	0.0000		9999	520	0	0	0
2019/05/05 00:16:00	BASE	2.50	45	3.34	50	-1.1	100	-1.1	0	0	984.8	NA	0.0000		9999	560	0	0	0
2019/05/05 00:17:00	BASE	2.76	50	3.45	58	-1.1	100	-1.1	0	0	984.8	NA	0.0000		9999	520	0	0	0
2019/05/05 00:18:00	BASE	3.05	53	3.45	58	-1.1	100	-1.1	0	0	984.8	NA	0.0000		9999	660	0	0	0
2019/05/05 00:19:00	BASE	3.11	53	3.65	49	-1.1	100	-1.1	0	0	984.8	NA	0.0000		9999	790	0	0	0
2019/05/05 00:20:00	BASE	2.78	56	3.65	49	-1.1	100	-1.1	0	0	984.8	NA	0.0000		9999	790	0	0	0
2019/05/05 00:21:00	BASE	2.58	57	3.65	49	-1.2	100	-1.2	0	0	984.8	NA	0.0000		9999	790	0	0	0
2019/05/05 00:22:00	BASE	2.88	54	3.65	49	-1.2	100	-1.2	0	0	984.8	NA	0.0000		9999	750	0	0	0
2019/05/05 00:23:00	BASE	2.96	50	3.65	49	-1.2	100	-1.2	0	0	984.8	NA	0.0000		9999	790	0	0	0
2019/05/05 00:24:00	BASE	2.84	52	3.65	49	-1.2	100	-1.2	0	0	984.8	NA	0.0000		9999	920	0	0	0
2019/05/05 00:25:00	BASE	2.86	53	3.65	49	-1.1	100	-1.1	0	0	984.8	NA	0.0000		9999	850	0	0	0
2019/05/05 00:26:00	BASE	2.71	50	3.65	49	-1.1	100	-1.1	0	0	984.8	NA	0.0000		9999	690	0	0	0
2019/05/05 00:27:00	BASE	2.62	54	3.65	49	-1.1	100	-1.1	0	0	984.8	NA	0.0000		9999	460	0	0	0
2019/05/05 00:28:00	BASE	2.86	62	3.65	49	-1.1	100	-1.1	0	0	984.8	NA	0.0000		9999	490	0	0	0
2019/05/05 00:29:00	BASE	2.77	59	3.40	51	-1.1	100	-1.1	0	0	984.8	NA	0.0000		9999	490	0	0	0
2019/05/05 00:30:00	BASE	2.41	61	3.40	51	-1.1	100	-1.1	0	0	984.8	NA	0.0000		9999	390	0	0	0
2019/05/05 00:31:00	BASE	2.14	72	3.40	51	-1.1	100	-1.1	0	0	984.8	NA	0.0000		9999	460	0	0	0
2019/05/05 00:32:00	BASE	2.04	86	3.29	61	-1.1	100	-1.1	0	0	984.8	NA	0.0000		9999	560	0	0	0
2019/05/05 00:33:00	BASE	2.26	91	3.29	61	-1.1	100	-1.1	0	0	984.8	NA	0.0000		9999	620	0	0	0
2019/05/05 00:34:00	BASE	2.39	92	3.29	61	-1.0	100	-1.0	0	0	984.8	NA	0.0000		9999	660	0	0	0
2019/05/05 00:35:00	BASE	2.30	91	3.29	61	-1.0	100	-1.0	0	0	984.8	NA	0.0000		9999	520	0	0	0
2019/05/05 00:36:00	BASE	2.33	77	3.29	61	-1.0	100	-1.0	0	0	984.7	NA	0.0000		9999	460	0	0	0
2019/05/05 00:37:00	BASE	2.36	65	3.29	61	-1.0	100	-1.0	0	0	984.7	NA	0.0000		9999	460	0	0	0
2019/05/05 00:38:00	BASE	2.20	71	2.78	59	-1.0	100	-1.0	0	0	984.7	NA	0.0000		9999	430	0	0	0
2019/05/05 00:39:00	BASE	1.97	89	2.73	92	-1.0	100	-1.0	0	0	984.7	NA	0.0000		9999	460	0	0	0
2019/05/05 00:40:00	BASE	1.87	95	2.73	92	-1.0	100	-1.0	0	0	984.7	NA	0.0000		9999	460	0	0	0
2019/05/05 00:41:00	BASE	1.89	95	2.73	92	-1.0	100	-1.0	0	0	984.7	NA	0.0000		9999	460	0	0	0
2019/05/05 00:42:00	BASE	2.02	94	2.73	92	-1.0	100	-1.0	0	0	984.7	NA	0.0000		9999	460	0	0	0
2019/05/05 00:43:00	BASE	2.16	96	2.62	95	-1.0	100	-1.0	0	0	984.7	NA	0.0000		9999	460	0	0	0
2019/05/05 00:44:00	BASE	2.25	103	2.62	102	-1.0	100	-1.0	0	0	984.7	NA	0.0000		9999	460	0	0	0
2019/05/05 00:45:00	BASE	2.16	109	2.62	102	-1.0	100	-1.0	0	0	984.7	NA	0.0000		9999	460	0	0	0
2019/05/05 00:46:00	BASE	1.99	113	2.62	102	-1.0	100	-1.0	0	0	984.6	NA	0.0000		9999	430	0	0	0
2019/05/05 00:47:00	BASE	2.27	113	3.09	111	-1.0	100	-1.0	0	0	984.6	NA	0.0000		9999	390	0	0	0
2019/05/05 00:48:00	BASE	2.38	113	3.09	111	-1.0	100	-1.0	0	0	984.6	NA	0.0000		9999	360	0	0	0
2019/05/05 00:49:00	BASE	2.24	110	3.09	111	-1.0	100	-1.0	0	0	984.6	NA	0.0000		9999	390	0	0	0
2019/05/05 00:50:00	BASE	2.22	110	3.09	111	-1.0	100	-1.0	0	0	984.6	NA	0.0000		9999	560	0	0	0
2019/05/05 00:51:00	BASE	2.25	119	3.09	111	-1.0	100	-1.0	0	0	984.6	NA	0.0000		9999	520	0	0	0
2019/05/05 00:52:00	BASE	2.55	128	3.19	136	-1.0	100	-1.0	0	0	984.6	NA	0.0000		9999	430	0	0	0
2019/05/05 00:53:00	BASE	2.89	133	3.65	148	-1.0	100	-1.0	0	0	984.6	NA	0.0000		9999	520	0	0	0
2019/05/05 00:54:00	BASE	3.17	137	3.81	121	-1.0	100	-1.0	0	0	984.6	NA	0.0000		9999	560	0	0	0
2019/05/05 00:55:00	BASE	3.37	141	3.81	146	-1.0	100	-1.0	0	0	984.6	NA	0.0000		9999	520	0	0	0
2019/05/05 00:56:00	BASE	3.34	137	3.96	151	-1.1	100	-1.1	0	0	984.6	NA	0.0000		9999	490	0	0	0
2019/05/05 00:57:00	BASE	3.40	129	4.01	134	-1.1	100	-1.1	0	0	984.6	NA	0.0000		9999	460	0	0	0
2019/05/05 00:58:00	BASE	3.57	128	4.01	134	-1.1	100	-1.1	0	0	984.6	NA	0.0000		9999	690	0	0	0
2019/05/05 00:59:00	BASE	3.64	135	4.06	138	-1.1	100	-1.1	0	0	984.6	NA	0.0000		9999	590	0	0	0
2019/05/05 01:00:00	BASE	4.26	139	5.30	137	-1.1	100	-1.1	0	0	984.5	NA	0.0000		9999	490	0	0	0
2019/05/05 01:01:00	BASE	4.70	141	5.30	137	-1.1	100	-1.1	0	0	984.5	NA	0.0000		9999	490	0	0	0
2019/05/05 01:02:00	BASE	4.47	138	5.30	134	-1.1	100	-1.1	0	0	984.5	NA	0.0000		9999	390	0	0	0
2019/05/05 01:03:00	BASE	4.50	137	5.30	134	-1.1	100	-1.1	0	0	984.5	NA	0.0000		9999	460	0	0	0
2019/05/05 01:04:00	BASE	4.44	138	5.30	134	-1.1	100	-1.1	0	0	984.5	NA	0.0000		9999	330	0	0	0
2019/05/05 01:05:00	BASE	4.30	140	5.30	134	-1.1	100	-1.1	0	0	984.5	NA	0.0000		9999	460	0	0	0
2019/05/05 01:06:00	BASE	4.29	140	5.30	134	-1.0	100	-1.0	0	0	984.5	NA	0.0000		9999	520	0	0	0
2019/05/05 01:07:00	BASE	3.77	139	5.30	134	-1.0	100	-1.0	0	0	984.5	NA	0.0000		9999	560	0	0	0
2019/05/05 01:08:00	BASE	3.32	138	5.30	134	-1.0	100	-1.0	0	0	984.5	NA	0.0000		9999	520	0	0	0
2019/05/05 01:09:00	BASE	3.29	135	5.30	134	-1.0	100	-1.0	0	0	984.5	NA	0.0000		9999	520	0	0	0
2019/05/05 01:10:00	BASE	2.82	123	5.30	134	-1.1	100	-1.1	0	0	984.5	NA	0.0000		9999	490	0	0	0
2019/05/05 01:11:00	BASE	2.49	113	5.30	134	-1.1	100	-1.1	0	0	984.5	NA	0.0000		9999	520	0	0	0
2019/05/05 01:12:00	BASE	2.87	110	5.04	143	-1.2	100	-1.2	0	0	984.5	NA	0.0000		9999	460	0	0	0
2019/05/05 01:13:00	BASE	3.35	110	4.84	142	-1.2	100	-1.2	0	0	984.5	NA	0.0000		9999	300	0	0	0
2019/05/05 01:14:00	BASE	3.35	115	4.84	142	-1.3	100	-1.3	0	0	984.5	NA	0.0000		9999	360	0	0	0
2019/05/05 01:15:00	BASE	2.98	119	4.63	143	-1.3	100	-1.3	0	0	984.5	NA	0.0000		9999	330	0	0	0
2019/05/05 01:16:00	BASE	3.06	120	4.06	116	-1.3	100	-1.3	0	0	984.5	NA	0.0000		9999	390	0	0	0
2019/05/05 01:17:00	BASE	3.27	121	4.06	116	-1.3	100	-1.3	0	0	984.5	NA	0.0000		9999	560	0	0	0
2019/05/05 01:18:00	BASE	3.14	125	4.06	116	-1.3	100	-1.3	0	0	984.5	NA	0.0000		9999	590	0	0	0
2019/05/05 01:19:00	BASE	2.98	126	4.06	116	-1.3	100	-1.3	0	0	984.5	NA	0.0000		9999	490	0	0	0
2019/05/05 01:20:00	BASE	3.05	124	4.06	110	-1.3	100	-1.3	0	0	984.5	NA	0.0000		9999	520	0	0	0
2019/05/05 01:21:00	BASE	2.91	124	4.06	110	-1.4	100	-1.4	0	0	984.5	NA	0.0000		9999	490	0	0	0
2019/05/05 01:22:00	BASE	2.70	124	4.06	110	-1.5	100	-1.5	0	0	984.5	NA	0.0000		9999	430	0	0	0
2019/05/05 01:23:00	BASE	2.89	119	4.06	110	-1.5	100	-1.5	0	0	984.5	NA	0.0000		9999	430	0	0	0
2019/05/05 01:24:00	BASE	2.91	116	4.06	110	-1.6	100	-1.6	0	0	984.5	NA	0.0000		9999	390	0	0	0
2019/05/05 01:25:00	BASE	3.09	118	4.06	130	-1.6	100	-1.6	0	0	984.5	NA	0.0000		9999	360	0	0	0
2019/05/05 01:26:00	BASE	3.51	123	4.53	121	-1.5	100	-1.5	0	0	984.5	NA	0.0000		9999	260	0	0	0
2019/05/05 01:27:00	BASE	3.22	122	4.53	121	-1.4	100	-1.4	0	0	984.5	NA	0.0000		9999	360	0	0	0
2019/05/05 01:28:00	BASE	2.75	116	4.53	121	-1.4	100	-1.4	0	0	984.5	NA	0.0000		9999	330	0	0	0
2019/05/05 01:29:00	BASE	2.60	108	4.53	121	-1.3	100	-1.3	0	0	984.5	NA	0.0000		9999	260	0	0	0
2019/05/05 01:30:00	BASE	2.39	106	4.53	121	-1.3	100	-1.3	0	0	984.5	NA	0.0000		9999	430	0	0	0
2019/05/05 01:31:00	BASE	2.39	105	4.53	121	-1.4	100	-1.4	0	0	984.5	NA	0.0000		9999	300	0	0	0
2019/05/05 01:32:00	BASE	2.37	103	4.53	121	-1.4	100	-1.4	0	0	984.5	NA	0.0000		9999	330	0	0	0
2019/05/05 01:33:00	BASE	2.31	108	4.53	121	-1.5	100	-1.5	0	0	984.5	NA	0.0000		9999	360	0	0	0
2019/05/05 01:34:00	BASE	2.80	117	4.53	121	-1.6	100	-1.6	0	0	984.5	NA	0.0000		9999	390	0	0	0
2019/05/05 01:35:00	BASE	2.83	124	4.53	121	-1.6	100	-1.6	0	0	984.5	NA	0.0000		9999	590	0	0	0
2019/05/05 01:36:00	BASE	2.57	128	3.70	128	-1.7	100	-1.7	0	0	984.3	NA	0.0000		9999	590	0	0	0
2019/05/05 01:37:00	BASE	2.86	129	3.76	127	-1.7	100	-1.7	0	0	984.3	NA	0.0000		9999	620	0	0	0
2019/05/05 01:38:00	BASE	3.34	129	4.89	127	-1.7	100	-1.7	0	0	984.3	NA	0.0000		9999	660	0	0	0
2019/05/05 01:39:00	BASE	3.82	131	4.89	127	-1.7	100	-1.7	0	0	984.3	NA	0.0000		9999	750	0	0	0
2019/05/05 01:40:00	BASE	4.34	132	4.94	131	-1.7	100	-1.7	0	0	984.3	NA	0.0000		9999	0	0	0	0
2019/05/05 01:41:00	BASE	4.64	135	5.56	133	-1.7	100	-1.7	0	0	984.3	NA	0.0000		9999	0	0	0	0
2019/05/05 01:42:00	BASE	4.73	135	5.56	135	-1.6	100	-1.6	0	0	984.2	NA	0.0000		9999	0	0	0	0
2019/05/05 01:43:00	BASE	4.87	138	5.56	140	-1.6	100	-1.6	0	0	984.3	NA	0.0000		9999	0	0	0	0
2019/05/05 01:44:00	BASE	4.76	143	5.56	140	-1.6	100	-1.6	0	0	984.2	NA	0.0000		9999	0	0	0	0
2019/05/05 01:45:00	BASE	4.33	142	5.56	140	-1.6	100	-1.6	0	0	984.2	NA	0.0000		9999	0	0	0	0
2019/05/05 01:46:00	BASE	4.19	139	5.86	137	-1.6	100	-1.6	0	0	984.3	NA	0.0000		9999	0	0	0	0
2019/05/05 01:47:00	BASE	5.21	136	6.69	137	-1.6	100	-1.6	0	0	984.2	NA	0.0000		9999	0	0	0	0
2019/05/05 01:48:00	BASE	5.53	138	6.69	137	-1.6	100	-1.6	0	0	984.3	NA	0.0000		9999	0	0	0	0
2019/05/05 01:49:00	BASE	4.65	142	6.69	137	-1.6	100	-1.6	0	0	984.3	NA	0.0000		9999	0	0	0	0
2019/05/05 01:50:00	BASE	3.52	145	6.69	137	-1.6	100	-1.6	0	0	984.2	NA	0.0000		9999	0	0	0	0
2019/05/05 01:51:00	BASE	2.79	148	6.69	137	-1.5	100	-1.5	0	0	984.2	NA	0.0000		9999	0	0	0	0
2019/05/05 01:52:00	BASE	2.69	150	6.69	137	-1.5	100	-1.5	0	0	984.2	NA	0.0000		9999	0	0	0	0
2019/05/05 01:53:00	BASE	2.75	149	6.69	137	-1.5	100	-1.5	0	0	984.2	NA	0.0000		9999	0	0	0	0
2019/05/05 01:54:00	BASE	2.93	135	6.69	137	-1.5	100	-1.5	0	0	984.2	NA	0.0000		9999	0	0	0	0
2019/05/05 01:55:00	BASE	3.02	109	6.69	137	-1.5	100	-1.5	0	0	984.2	NA	0.0000		9999	0	0	0	0
2019/05/05 01:56:00	BASE	4.25	89	7.67	107	-1.5	100	-1.5	0	0	984.2	NA	0.0000		9999	0	0	0	0
2019/05/05 01:57:00	BASE	5.57	86	8.08	96	-1.6	100	-1.6	0	0	984.2	NA	0.0000		9999	0	0	0	0
2019/05/05 01:58:00	BASE	5.41	94	8.08	96	-1.6	100	-1.6	0	0	984.2	NA	0.0000		9999	0	0	0	0
2019/05/05 01:59:00	BASE	4.05	99	8.08	96	-1.6	100	-1.6	0	0	984.2	NA	0.0000		9999	0	0	0	0
2019/05/05 02:00:00	BASE	3.07	104	8.08	96	-1.5	100	-1.5	0	0	984.2	NA	0.0000		9999	0	0	0	0
2019/05/05 02:01:00	BASE	3.61	102	8.08	96	-1.5	100	-1.5	0	0	984.2	NA	0.0000		9999	0	0	0	0
2019/05/05 02:02:00	BASE	3.94	96	8.08	96	-1.5	100	-1.5	0	0	984.2	NA	0.0000		9999	0	0	0	0
2019/05/05 02:03:00	BASE	2.79	100	8.08	96	-1.5	100	-1.5	0	0	984.2	NA	0.0000		9999	0	0	0	0
2019/05/05 02:04:00	BASE	2.58	123	8.08	96	-1.5	100	-1.5	0	0	984.1	NA	0.0000		9999	0	0	0	0
2019/05/05 02:05:00	BASE	4.16	131	8.08	96	-1.5	100	-1.5	0	0	984.1	NA	0.0000		9999	0	0	0	0
2019/05/05 02:06:00	BASE	4.77	120	8.08	96	-1.4	100	-1.4	0	0	984.1	NA	0.0000		9999	0	0	0	0
2019/05/05 02:07:00	BASE	4.72	116	6.58	124	-1.4	100	-1.4	0	0	984.1	NA	0.0000		9999	0	0	0	0
2019/05/05 02:08:00	BASE	4.96	109	6.69	115	-1.4	100	-1.4	0	0	984.1	NA	0.0000		9999	0	0	0	0
2019/05/05 02:09:00	BASE	5.27	111	7.05	94	-1.4	100	-1.4	0	0	984.1	NA	0.0000		9999	0	0	0	0
2019/05/05 02:10:00	BASE	5.01	115	7.05	94	-1.4	100	-1.4	0	0	984.1	NA	0.0000		9999	0	0	0	0
2019/05/05 02:11:00	BASE	5.60	115	7.72	123	-1.4	100	-1.4	0	0	984.1	NA	0.0000		9999	0	0	0	0
2019/05/05 02:12:00	BASE	6.22	119	7.72	123	-1.4	100	-1.4	0	0	984.1	NA	0.0000		9999	0	0	0	0
2019/05/05 02:13:00	BASE	5.63	120	7.72	123	-1.4	100	-1.4	0	0	984.1	NA	0.0000		9999	0	0	0	0
2019/05/05 02:14:00	BASE	6.20	120	8.13	130	-1.4	100	-1.4	0	0	984.1	NA	0.0000		9999	0	0	0	0
2019/05/05 02:15:00	BASE	7.02	125	8.44	125	-1.4	100	-1.4	0	0	984.1	NA	0.0000		9999	0	0	0	0
2019/05/05 02:16:00	BASE	7.15	126	8.85	124	-1.4	100	-1.4	0	0	984.1	NA	0.0000		9999	0	0	0	0
2019/05/05 02:17:00	BASE	7.52	126	9.21	123	-1.4	100	-1.4	0	0	984.1	NA	0.0000		9999	0	0	0	0
2019/05/05 02:18:00	BASE	8.27	126	9.21	127	-1.4	100	-1.4	0	0	984.1	NA	0.0000		9999	0	0	0	0
2019/05/05 02:19:00	BASE	8.21	126	9.21	127	-1.4	100	-1.4	0	0	984.1	NA	0.0000		9999	0	0	0	0
2019/05/05 02:20:00	BASE	7.96	125	9.21	126	-1.5	100	-1.5	0	0	984.1	NA	0.0000		9999	0	0	0	0
2019/05/05 02:21:00	BASE	7.40	121	9.21	126	-1.5	100	-1.5	0	0	984.1	NA	0.0000		9999	0	0	0	0
2019/05/05 02:22:00	BASE	6.58	119	9.21	126	-1.5	100	-1.5	0	0	984.1	NA	0.0000		9999	0	0	0	0
2019/05/05 02:23:00	BASE	6.34	122	9.21	126	-1.5	100	-1.5	0	0	984.1	NA	0.0000		9999	0	0	0	0
2019/05/05 02:24:00	BASE	6.00	126	9.21	126	-1.5	100	-1.5	0	0	984.1	NA	0.0000		9999	0	0	0	0
2019/05/05 02:25:00	BASE	6.02	127	9.21	126	-1.5	100	-1.5	0	0	984.1	NA	0.0000		9999	0	0	0	0
2019/05/05 02:26:00	BASE	6.35	124	9.21	126	-1.5	100	-1.5	0	0	984.1	NA	0.0000		9999	0	0	0	0
2019/05/05 02:27:00	BASE	6.54	119	9.21	126	-1.5	100	-1.5	0	0	984.1	NA	0.0000		9999	0	0	0	0
2019/05/05 02:28:00	BASE	6.34	117	9.21	126	-1.5	100	-1.5	0	0	984.1	NA	0.0000		9999	0	0	0	0
2019/05/05 02:29:00	BASE	6.36	117	9.21	126	-1.4	100	-1.4	0	0	984.1	NA	0.0000		9999	0	0	0	0
2019/05/05 02:30:00	BASE	6.33	117	8.03	125	-1.4	100	-1.4	0	0	984.1	NA	0.0000		9999	0	0	0	0
2019/05/05 02:31:00	BASE	5.78	118	7.61	123	-1.4	100	-1.4	0	0	984.1	NA	0.0000		9999	0	0	0	0
2019/05/05 02:32:00	BASE	5.37	119	7.61	123	-1.3	100	-1.3	0	0	984.1	NA	0.0000		9999	0	0	0	0
2019/05/05 02:33:00	BASE	5.35	118	7.61	123	-1.3	100	-1.3	0	0	984.0	NA	0.0000		9999	0	0	0	0
2019/05/05 02:34:00	BASE	5.93	119	7.61	123	-1.3	100	-1.3	0	0	984.0	NA	0.0000		9999	0	0	0	0
2019/05/05 02:35:00	BASE	6.25	124	7.61	123	-1.2	100	-1.2	0	0	984.0	NA	0.0000		9999	0	0	0	0
2019/05/05 02:36:00	BASE	6.00	124	7.10	124	-1.2	100	-1.2	0	0	984.0	NA	0.0000		9999	0	0	0	0
2019/05/05 02:37:00	BASE	6.05	121	7.05	113	-1.1	100	-1.1	0	0	984.0	NA	0.0000		9999	0	0	0	0
2019/05/05 02:38:00	BASE	5.79	117	7.05	113	-1.1	100	-1.1	0	0	984.0	NA	0.0000		9999	0	0	0	0
2019/05/05 02:39:00	BASE	5.22	118	6.79	127	-1.1	100	-1.1	0	0	984.0	NA	0.0000		9999	0	0	0	0
2019/05/05 02:40:00	BASE	5.25	117	6.79	127	-1.1	100	-1.1	0	0	984.0	NA	0.0000		9999	0	0	0	0
2019/05/05 02:41:00	BASE	4.65	96	6.79	127	-1.1	100	-1.1	0	0	983.9	NA	0.0000		9999	0	0	0	0
2019/05/05 02:42:00	BASE	3.30	88	6.79	127	-1.1	100	-1.1	0	0	983.9	NA	0.0000		9999	0	0	0	0
2019/05/05 02:43:00	BASE	3.29	96	6.79	127	-1.2	100	-1.2	0	0	983.9	NA	0.0000		9999	0	0	0	0
2019/05/05 02:44:00	BASE	3.36	82	6.79	127	-1.2	100	-1.2	0	0	983.9	NA	0.0000		9999	0	0	0	0
2019/05/05 02:45:00	BASE	2.81	67	6.69	124	-1.2	100	-1.2	0	0	983.9	NA	0.0000		9999	0	0	0	0
2019/05/05 02:46:00	BASE	2.84	52	6.69	124	-1.2	100	-1.2	0	0	983.9	NA	0.0000		9999	0	0	0	0
2019/05/05 02:47:00	BASE	2.42	54	6.22	96	-1.3	100	-1.3	0	0	983.8	NA	0.0000		9999	0	0	0	0
2019/05/05 02:48:00	BASE	2.43	75	6.22	96	-1.3	100	-1.3	0	0	983.7	NA	0.0000		9999	0	0	0	0
2019/05/05 02:49:00	BASE	3.11	70	6.22	96	-1.3	100	-1.3	0	0	983.7	NA	0.0000		9999	0	0	0	0
2019/05/05 02:50:00	BASE	2.99	62	6.22	96	-1.3	100	-1.3	0	0	983.7	NA	0.0000		9999	0	0	0	0
2019/05/05 02:51:00	BASE	2.53	58	4.58	105	-1.3	100	-1.3	0	0	983.7	NA	0.0000		9999	0	0	0	0
2019/05/05 02:52:00	BASE	2.31	48	4.58	105	-1.2	100	-1.2	0	0	983.7	NA	0.0000		9999	0	0	0	0
2019/05/05 02:53:00	BASE	2.08	37	3.96	84	-1.2	100	-1.2	0	0	983.8	NA	0.0000		9999	0	0	0	0
2019/05/05 02:54:00	BASE	2.09	28	3.81	68	-1.2	100	-1.2	0	0	983.9	NA	0.0000		9999	0	0	0	0
2019/05/05 02:55:00	BASE	2.37	13	3.81	68	-1.2	100	-1.2	0	0	983.9	NA	0.0000		9999	0	0	0	0
2019/05/05 02:56:00	BASE	2.54	0	3.81	68	-1.2	100	-1.2	0	0	983.9	NA	0.0000		9999	0	0	0	0
2019/05/05 02:57:00	BASE	2.64	353	3.81	68	-1.2	100	-1.2	0	0	983.9	NA	0.0000		9999	0	0	0	0
2019/05/05 02:58:00	BASE	2.99	344	3.81	68	-1.3	100	-1.3	0	0	983.9	NA	0.0000		9999	0	0	0	0
2019/05/05 02:59:00	BASE	3.30	339	3.50	335	-1.3	100	-1.3	0	0	983.9	NA	0.0000		9999	0	0	0	0
2019/05/05 03:00:00	BASE	3.13	340	3.50	335	-1.4	100	-1.4	0	0	983.9	NA	0.0000		9999	0	0	0	0
2019/05/05 03:01:00	BASE	2.89	343	3.50	335	-1.5	100	-1.5	0	0	983.9	NA	0.0000		9999	0	0	0	0
2019/05/05 03:02:00	BASE	2.84	339	3.50	335	-1.5	100	-1.5	0	0	983.8	NA	0.0000		9999	0	0	0	0
2019/05/05 03:03:00	BASE	3.15	329	3.91	322	-1.6	100	-1.6	0	0	983.7	NA	0.0000		9999	0	0	0	0
2019/05/05 03:04:00	BASE	4.05	324	5.35	321	-1.6	100	-1.6	0	0	983.7	NA	0.0000		9999	0	0	0	0
2019/05/05 03:05:00	BASE	4.81	323	5.35	321	-1.6	100	-1.6	0	0	983.8	NA	0.0000		9999	0	0	0	0
2019/05/05 03:06:00	BASE	4.93	323	5.56	322	-1.7	100	-1.7	0	0	983.8	NA	0.0000		9999	0	0	0	0
2019/05/05 03:07:00	BASE	5.23	325	5.81	332	-1.7	100	-1.7	0	0	983.8	NA	0.0000		9999	10930	0	0	0
2019/05/05 03:08:00	BASE	5.73	331	6.17	338	-1.7	100	-1.7	0	0	983.8	NA	0.0000		9999	10040	0	0	0
2019/05/05 03:09:00	BASE	5.61	335	6.17	338	-1.7	100	-1.7	0	0	983.9	NA	0.0000		9999	10040	0	0	0
2019/05/05 03:10:00	BASE	5.12	336	6.17	338	-1.7	100	-1.7	0	0	983.8	NA	0.0000		9999	10040	0	0	0
2019/05/05 03:11:00	BASE	5.32	335	6.64	331	-1.7	100	-1.7	0	0	983.9	NA	0.0000		9999	9970	0	0	0
2019/05/05 03:12:00	BASE	5.64	334	6.64	331	-1.7	100	-1.7	0	0	983.8	NA	0.0000		9999	9880	0	0	0
2019/05/05 03:13:00	BASE	5.84	334	6.74	336	-1.6	100	-1.6	0	0	983.9	NA	0.0000		9999	9740	0	0	0
2019/05/05 03:14:00	BASE	5.82	333	6.74	336	-1.6	100	-1.6	0	0	983.9	NA	0.0000		9999	9680	0	0	0
2019/05/05 03:15:00	BASE	5.68	334	6.74	336	-1.6	100	-1.6	0	0	983.9	NA	0.0000		9999	9680	0	0	0
2019/05/05 03:16:00	BASE	5.50	335	6.74	336	-1.6	100	-1.6	0	0	983.9	NA	0.0000		9999	9510	0	0	0
2019/05/05 03:17:00	BASE	5.14	338	6.74	336	-1.6	100	-1.6	0	0	983.9	NA	0.0000		9999	9610	0	0	0
2019/05/05 03:18:00	BASE	4.73	342	6.74	336	-1.6	100	-1.6	0	0	983.9	NA	0.0000		9999	9420	0	0	0
2019/05/05 03:19:00	BASE	4.23	346	6.74	336	-1.6	100	-1.6	0	0	983.9	NA	0.0000		9999	9420	0	0	0
2019/05/05 03:20:00	BASE	3.44	351	6.74	336	-1.6	100	-1.6	0	0	983.8	NA	0.0000		9999	9480	0	0	0
2019/05/05 03:21:00	BASE	2.36	356	6.74	336	-1.6	100	-1.6	0	0	983.7	NA	0.0000		9999	9480	10340	0	0
2019/05/05 03:22:00	BASE	1.83	357	6.74	336	-1.6	100	-1.6	0	0	983.7	NA	0.0000		9999	9450	0	0	0
2019/05/05 03:23:00	BASE	1.56	354	6.28	334	-1.6	100	-1.6	0	0	983.7	NA	0.0000		9999	9420	0	0	0
2019/05/05 03:24:00	BASE	1.53	352	6.28	334	-1.6	100	-1.6	0	0	983.7	NA	0.0000		9999	9550	0	0	0
2019/05/05 03:25:00	BASE	1.34	348	5.66	334	-1.5	100	-1.5	0	0	983.7	NA	0.0000		9999	9550	0	0	0
2019/05/05 03:26:00	BASE	0.68	343	5.56	340	-1.5	100	-1.5	0	0	983.7	NA	0.0000		9999	9510	0	0	0
2019/05/05 03:27:00	BASE	0.62	342	5.35	344	-1.5	100	-1.5	0	0	983.7	NA	0.0000		9999	10860	0	0	0
2019/05/05 03:28:00	BASE	1.30	338	4.48	355	-1.5	100	-1.5	0	0	983.7	NA	0.0000		9999	9740	0	0	0
2019/05/05 03:29:00	BASE	1.90	324	3.50	353	-1.5	100	-1.5	0	0	983.7	NA	0.0000		9999	10930	0	0	0
2019/05/05 03:30:00	BASE	2.36	313	2.88	310	-1.5	100	-1.5	0	0	983.7	NA	0.0000		9999	9610	0	0	0
2019/05/05 03:31:00	BASE	2.87	312	4.53	316	-1.5	100	-1.5	0	0	983.7	NA	0.0000		9999	9480	0	0	0
2019/05/05 03:32:00	BASE	2.81	312	4.53	316	-1.5	100	-1.5	0	0	983.7	NA	0.0000		9999	9380	0	0	0
2019/05/05 03:33:00	BASE	2.36	312	4.53	316	-1.5	100	-1.5	0	0	983.7	NA	0.0000		9999	9350	0	0	0
2019/05/05 03:34:00	BASE	2.01	307	4.53	316	-1.5	100	-1.5	0	0	983.7	NA	0.0000		9999	9320	0	0	0
2019/05/05 03:35:00	BASE	1.28	291	4.53	316	-1.5	100	-1.5	0	0	983.7	NA	0.0000		9999	9220	0	0	0
2019/05/05 03:36:00	BASE	1.01	264	4.53	316	-1.5	100	-1.5	0	0	983.7	NA	0.0000		9999	9060	10730	0	0
2019/05/05 03:37:00	BASE	0.67	229	4.53	316	-1.5	100	-1.5	0	0	983.7	NA	0.0000		9999	9020	0	0	0
2019/05/05 03:38:00	BASE	0.04	219	4.53	316	-1.5	100	-1.5	0	0	983.7	NA	0.0000		9999	8990	0	0	0
2019/05/05 03:39:00	BASE	0.00	208	4.53	316	-1.5	100	-1.5	0	0	983.7	NA	0.0000		9999	9060	0	0	0
2019/05/05 03:40:00	BASE	0.00	180	4.53	316	-1.6	100	-1.6	0	0	983.7	NA	0.0000		9999	9090	0	0	0
2019/05/05 03:41:00	BASE	0.00	166	3.14	314	-1.6	100	-1.6	0	0	983.7	NA	0.0000		9999	9060	0	0	0
2019/05/05 03:42:00	BASE	0.82	225	2.68	315	-1.5	100	-1.5	0	0	983.7	NA	0.0000		9999	9020	0	0	0
2019/05/05 03:43:00	BASE	1.90	290	2.83	285	-1.5	100	-1.5	0	0	983.7	NA	0.0000		9999	9060	0	0	0
2019/05/05 03:44:00	BASE	2.25	289	3.09	291	-1.4	100	-1.4	0	0	983.7	NA	0.0000		9999	9060	0	0	0
2019/05/05 03:45:00	BASE	2.35	277	3.09	291	-1.4	100	-1.4	0	0	983.6	NA	0.0000		9999	8920	0	0	0
2019/05/05 03:46:00	BASE	2.47	277	3.09	291	-1.3	100	-1.3	0	0	983.5	NA	0.0000		9999	8920	0	0	0
2019/05/05 03:47:00	BASE	2.50	296	3.09	291	-1.3	100	-1.3	0	0	983.5	NA	0.0000		9999	8960	0	0	0
2019/05/05 03:48:00	BASE	2.52	315	3.09	291	-1.3	100	-1.3	0	0	983.6	NA	0.0000		9999	8960	0	0	0
2019/05/05 03:49:00	BASE	2.49	329	3.09	291	-1.3	100	-1.3	0	0	983.6	NA	0.0000		9999	8920	0	0	0
2019/05/05 03:50:00	BASE	2.15	335	3.09	291	-1.3	100	-1.3	0	0	983.7	NA	0.0000		9999	8960	0	0	0
2019/05/05 03:51:00	BASE	1.73	331	3.09	291	-1.3	100	-1.3	0	0	983.7	NA	0.0000		9999	9020	0	0	0
2019/05/05 03:52:00	BASE	1.66	328	3.09	291	-1.3	100	-1.3	0	0	983.7	NA	0.0000		9999	9120	0	0	0
2019/05/05 03:53:00	BASE	1.74	321	3.09	291	-1.3	100	-1.3	0	0	983.6	NA	0.0000		9999	9190	10070	0	0
2019/05/05 03:54:00	BASE	1.50	316	2.88	321	-1.3	100	-1.3	0	0	983.6	NA	0.0000		9999	9250	0	0	0
2019/05/05 03:55:00	BASE	1.33	322	2.88	321	-1.3	100	-1.3	0	0	983.6	NA	0.0000		9999	10140	0	0	0
2019/05/05 03:56:00	BASE	1.50	323	2.88	321	-1.2	100	-1.2	0	0	983.7	NA	0.0000		9999	9220	0	0	0
2019/05/05 03:57:00	BASE	1.74	321	2.88	321	-1.2	100	-1.2	0	0	983.7	NA	0.0000		9999	9220	0	0	0
2019/05/05 03:58:00	BASE	1.58	323	2.68	338	-1.2	100	-1.2	0	0	983.7	NA	0.0000		9999	10500	0	0	0
2019/05/05 03:59:00	BASE	1.36	323	2.21	320	-1.2	100	-1.2	0	0	983.7	NA	0.0000		9999	10370	0	0	0
2019/05/05 04:00:00	BASE	1.37	321	2.21	320	-1.3	100	-1.3	0	0	983.7	NA	0.0000		9999	9320	0	0	0
2019/05/05 04:01:00	BASE	1.14	320	2.21	320	-1.3	100	-1.3	0	0	983.7	NA	0.0000		9999	9220	0	0	0
2019/05/05 04:02:00	BASE	1.37	317	2.42	313	-1.3	100	-1.3	0	0	983.7	NA	0.0000		9999	9190	0	0	0
2019/05/05 04:03:00	BASE	2.31	308	2.98	299	-1.3	100	-1.3	0	0	983.7	NA	0.0000		9999	9290	0	0	0
2019/05/05 04:04:00	BASE	2.63	300	2.98	299	-1.3	100	-1.3	0	0	983.7	NA	0.0000		9999	0	0	0	0
2019/05/05 04:05:00	BASE	2.46	308	2.98	299	-1.4	100	-1.4	0	0	983.7	NA	0.0000		9999	0	0	0	0
2019/05/05 04:06:00	BASE	2.15	327	2.98	299	-1.4	100	-1.4	0	0	983.7	NA	0.0000		9999	0	0	0	0
2019/05/05 04:07:00	BASE	1.85	333	2.98	299	-1.3	100	-1.3	0	0	983.6	NA	0.0000		9999	0	0	0	0
2019/05/05 04:08:00	BASE	1.89	324	2.98	299	-1.4	100	-1.4	0	0	983.5	NA	0.0000		9999	0	0	0	0
2019/05/05 04:09:00	BASE	1.82	315	2.98	299	-1.4	100	-1.4	0	0	983.5	NA	0.0000		9999	0	0	0	0
2019/05/05 04:10:00	BASE	1.10	325	2.98	299	-1.4	100	-1.4	0	0	983.5	NA	0.0000		9999	0	0	0	0
2019/05/05 04:11:00	BASE	0.80	339	2.98	299	-1.4	100	-1.4	0	0	983.6	NA	0.0000		9999	0	0	0	0
2019/05/05 04:12:00	BASE	1.48	338	2.98	299	-1.5	100	-1.5	0	0	983.7	NA	0.0000		9999	0	0	0	0
2019/05/05 04:13:00	BASE	1.93	327	2.88	304	-1.5	100	-1.5	0	0	983.7	NA	0.0000		9999	0	0	0	0
2019/05/05 04:14:00	BASE	2.02	326	2.83	315	-1.5	100	-1.5	0	0	983.6	NA	0.0000		9999	0	0	0	0
2019/05/05 04:15:00	BASE	2.02	326	2.31	332	-1.5	100	-1.5	0	0	983.5	NA	0.0000		9999	0	0	0	0
2019/05/05 04:16:00	BASE	1.81	319	2.21	328	-1.5	100	-1.5	0	0	983.5	NA	0.0000		9999	0	0	0	0
2019/05/05 04:17:00	BASE	1.18	313	2.21	328	-1.5	100	-1.5	0	0	983.5	NA	0.0000		9999	0	0	0	0
2019/05/05 04:18:00	BASE	0.81	315	2.21	328	-1.5	100	-1.5	0	0	983.6	NA	0.0000		9999	0	0	0	0
2019/05/05 04:19:00	BASE	0.95	314	2.21	328	-1.5	100	-1.5	0	0	983.6	NA	0.0000		9999	0	0	0	0
2019/05/05 04:20:00	BASE	1.31	305	2.21	328	-1.5	100	-1.5	0	0	983.6	NA	0.0000		9999	0	0	0	0
2019/05/05 04:21:00	BASE	1.45	290	2.21	328	-1.5	100	-1.5	0	0	983.5	NA	0.0000		9999	0	0	0	0
2019/05/05 04:22:00	BASE	1.15	264	2.21	328	-1.4	100	-1.4	0	0	983.5	NA	0.0000		9999	0	0	0	0
2019/05/05 04:23:00	BASE	0.81	249	2.21	328	-1.4	100	-1.4	0	0	983.5	NA	0.0000		9999	0	0	0	0
2019/05/05 04:24:00	BASE	0.31	260	2.21	328	-1.4	100	-1.4	0	0	983.5	NA	0.0000		9999	0	0	0	0
2019/05/05 04:25:00	BASE	0.00	316	1.90	319	-1.3	100	-1.3	0	0	983.5	NA	0.0000		9999	0	0	0	0
2019/05/05 04:26:00	BASE	0.09	53	1.80	303	-1.4	100	-1.4	0	0	983.5	NA	0.0000		9999	0	0	0	0
2019/05/05 04:27:00	BASE	0.39	40	1.80	303	-1.4	100	-1.4	0	0	983.5	NA	0.0000		9999	0	0	0	0
2019/05/05 04:28:00	BASE	1.49	329	3.09	320	-1.3	100	-1.3	0	0	983.5	NA	0.0000		9999	0	0	0	0
2019/05/05 04:29:00	BASE	2.88	320	3.65	320	-1.4	100	-1.4	0	0	983.5	NA	0.0000		9999	0	0	0	0
2019/05/05 04:30:00	BASE	3.68	324	4.12	328	-1.4	100	-1.4	0	0	983.5	NA	0.0000		9999	0	0	0	0
2019/05/05 04:31:00	BASE	4.01	330	4.17	333	-1.5	100	-1.5	0	0	983.5	NA	0.0000		9999	0	0	0	0
2019/05/05 04:32:00	BASE	3.64	332	4.17	333	-1.6	100	-1.6	0	0	983.5	NA	0.0000		9999	0	0	0	0
2019/05/05 04:33:00	BASE	3.04	327	4.17	333	-1.6	100	-1.6	0	0	983.5	NA	0.0000		9999	0	0	0	0
2019/05/05 04:34:00	BASE	3.15	319	4.17	333	-1.7	100	-1.7	0	0	983.5	NA	0.0000		9999	0	0	0	0
2019/05/05 04:35:00	BASE	3.24	316	4.17	333	-1.7	100	-1.7	0	0	983.5	NA	0.0000		9999	0	0	0	0
2019/05/05 04:36:00	BASE	3.09	310	4.22	303	-1.7	100	-1.7	0	0	983.5	NA	0.0000		9999	0	0	0	0
2019/05/05 04:37:00	BASE	3.64	302	4.42	298	-1.6	100	-1.6	0	0	983.5	NA	0.0000		9999	0	0	0	0
2019/05/05 04:38:00	BASE	4.01	304	4.42	298	-1.6	100	-1.6	0	0	983.5	NA	0.0000		9999	0	0	0	0
2019/05/05 04:39:00	BASE	3.54	311	4.42	298	-1.6	100	-1.6	0	0	983.5	NA	0.0000		9999	0	0	0	0
2019/05/05 04:40:00	BASE	2.81	316	4.42	298	-1.6	100	-1.6	0	0	983.5	NA	0.0000		9999	0	0	0	0
2019/05/05 04:41:00	BASE	2.16	327	4.42	298	-1.6	100	-1.6	0	0	983.5	NA	0.0000		9999	0	0	0	0
2019/05/05 04:42:00	BASE	1.91	349	4.42	298	-1.5	100	-1.5	0	0	983.5	NA	0.0000		9999	0	0	0	0
2019/05/05 04:43:00	BASE	1.84	13	4.42	298	-1.5	100	-1.5	0	0	983.5	NA	0.0000		9999	0	0	0	0
2019/05/05 04:44:00	BASE	0.85	20	4.42	298	-1.5	100	-1.5	0	0	983.5	NA	0.0000		9999	0	0	0	0
2019/05/05 04:45:00	BASE	0.00	350	4.42	298	-1.5	100	-1.5	0	0	983.5	NA	0.0000		9999	0	0	0	0
2019/05/05 04:46:00	BASE	0.65	337	4.42	298	-1.4	100	-1.4	0	0	983.5	NA	0.0000		9999	0	0	0	0
2019/05/05 04:47:00	BASE	1.33	360	4.17	304	-1.5	100	-1.5	0	0	983.5	NA	0.0000		9999	0	0	0	0
2019/05/05 04:48:00	BASE	0.67	10	3.45	314	-1.5	100	-1.5	0	0	983.5	NA	0.0000		9999	0	0	0	0
2019/05/05 04:49:00	BASE	0.00	32	2.98	315	-1.4	100	-1.4	0	0	983.5	NA	0.0000		9999	0	0	0	0
2019/05/05 04:50:00	BASE	0.00	82	2.21	3	-1.4	100	-1.4	0	0	983.5	NA	0.0000		9999	0	0	0	0
2019/05/05 04:51:00	BASE	0.42	114	2.21	3	-1.4	100	-1.4	0	0	983.5	NA	0.0000		9999	0	0	0	0
2019/05/05 04:52:00	BASE	0.67	107	1.95	19	-1.4	100	-1.4	0	0	983.5	NA	0.0000		9999	0	0	0	0
2019/05/05 04:53:00	BASE	0.47	95	1.75	351	-1.4	100	-1.4	0	0	983.5	NA	0.0000		9999	0	0	0	0
2019/05/05 04:54:00	BASE	0.68	96	1.75	78	-1.3	100	-1.3	0	0	983.5	NA	0.0000		9999	0	0	0	0
2019/05/05 04:55:00	BASE	0.97	85	1.85	83	-1.4	100	-1.4	0	0	983.5	NA	0.0000		9999	0	0	0	0
2019/05/05 04:56:00	BASE	0.51	60	1.85	83	-1.4	100	-1.4	0	0	983.5	NA	0.0000		9999	0	0	0	0
2019/05/05 04:57:00	BASE	0.00	38	1.85	83	-1.5	100	-1.5	0	0	983.5	NA	0.0000		9999	0	0	0	0
2019/05/05 04:58:00	BASE	0.22	33	1.85	83	-1.6	100	-1.6	0	0	983.5	NA	0.0000		9999	0	0	0	0
2019/05/05 04:59:00	BASE	0.22	2	1.85	83	-1.7	100	-1.7	0	0	983.5	NA	0.0000		9999	0	0	0	0
2019/05/05 05:00:00	BASE	0.00	309	1.85	83	-1.6	100	-1.6	0	0	983.4	NA	0.0000		9999	0	0	0	0
2019/05/05 05:01:00	BASE	0.33	244	1.85	83	-1.6	100	-1.6	0	0	983.4	NA	0.0000		9999	0	0	0	0
2019/05/05 05:02:00	BASE	1.19	209	2.57	204	-1.5	100	-1.5	0	0	983.3	NA	0.0000		9999	0	0	0	0
2019/05/05 05:03:00	BASE	1.35	203	2.57	204	-1.4	100	-1.4	0	0	983.3	NA	0.0000		9999	0	0	0	0
2019/05/05 05:04:00	BASE	1.43	183	2.57	204	-1.4	100	-1.4	0	0	983.3	NA	0.0000		9999	0	0	0	0
2019/05/05 05:05:00	BASE	2.11	157	2.57	204	-1.4	100	-1.4	0	0	983.3	NA	0.0000		9999	0	0	0	0
2019/05/05 05:06:00	BASE	2.42	141	3.14	138	-1.6	100	-1.6	0	0	983.3	NA	0.0000		9999	0	0	0	0
2019/05/05 05:07:00	BASE	2.30	146	3.14	138	-1.7	100	-1.7	0	0	983.2	NA	0.0000		9999	0	0	0	0
2019/05/05 05:08:00	BASE	2.38	173	3.24	197	-1.9	100	-1.9	0	0	983.2	NA	0.0000		9999	0	0	0	0
2019/05/05 05:09:00	BASE	2.02	179	3.24	197	-1.9	100	-1.9	0	0	983.2	NA	0.0000		9999	0	0	0	0
2019/05/05 05:10:00	BASE	0.77	127	3.24	197	-1.9	100	-1.9	0	0	983.3	NA	0.0000		9999	0	0	0	0
2019/05/05 05:11:00	BASE	1.00	49	3.24	197	-1.8	100	-1.8	0	0	983.3	NA	0.0000		9999	0	0	0	0
2019/05/05 05:12:00	BASE	1.47	35	3.24	197	-1.7	100	-1.7	0	0	983.2	NA	0.0000		9999	0	0	0	0
2019/05/05 05:13:00	BASE	0.61	30	3.24	197	-1.6	100	-1.6	0	0	983.2	NA	0.0000		9999	0	0	0	0
2019/05/05 05:14:00	BASE	1.18	274	3.24	197	-1.6	100	-1.6	0	0	983.1	NA	0.0000		9999	0	0	0	0
2019/05/05 05:15:00	BASE	2.58	231	3.29	229	-1.5	100	-1.5	0	0	983.1	NA	0.0000		9999	0	0	0	0
2019/05/05 05:16:00	BASE	2.81	225	3.29	229	-1.4	100	-1.4	0	0	983.1	NA	0.0000		9999	0	0	0	0
2019/05/05 05:17:00	BASE	1.90	215	3.29	229	-1.4	100	-1.4	0	0	983.2	NA	0.0000		9999	0	0	0	0
2019/05/05 05:18:00	BASE	0.58	200	3.29	229	-1.3	100	-1.3	0	0	983.2	NA	0.0000		9999	0	0	0	0
2019/05/05 05:19:00	BASE	0.84	191	3.29	229	-1.3	100	-1.3	0	0	983.1	NA	0.0000		9999	0	0	0	0
2019/05/05 05:20:00	BASE	1.91	189	3.29	229	-1.3	100	-1.3	0	0	983.1	NA	0.0000		9999	0	0	0	0
2019/05/05 05:21:00	BASE	2.24	175	3.29	229	-1.3	100	-1.3	0	0	983.1	NA	0.0000		9999	0	0	0	0
2019/05/05 05:22:00	BASE	2.13	152	3.29	229	-1.4	100	-1.4	0	0	983.1	NA	0.0000		9999	0	0	0	0
2019/05/05 05:23:00	BASE	1.37	149	3.29	229	-1.5	100	-1.5	0	0	983.1	NA	0.0000		9999	0	0	0	0
2019/05/05 05:24:00	BASE	1.05	157	3.29	229	-1.6	100	-1.6	0	0	983.1	NA	0.0000		9999	0	0	0	0
2019/05/05 05:25:00	BASE	1.95	160	3.19	220	-1.7	100	-1.7	0	0	983.0	NA	0.0000		9999	0	0	0	0
2019/05/05 05:26:00	BASE	2.67	169	3.45	188	-1.7	100	-1.7	0	0	982.9	NA	0.0000		9999	0	0	0	0
2019/05/05 05:27:00	BASE	2.73	184	3.45	188	-1.7	100	-1.7	0	0	982.9	NA	0.0000		9999	0	0	0	0
2019/05/05 05:28:00	BASE	2.08	170	3.45	188	-1.7	100	-1.7	0	0	982.9	NA	0.0000		9999	0	0	0	0
2019/05/05 05:29:00	BASE	1.98	117	3.45	188	-1.7	100	-1.7	0	0	983.0	NA	0.0000		9999	0	0	0	0
2019/05/05 05:30:00	BASE	2.57	64	3.45	188	-1.7	100	-1.7	0	0	983.1	NA	0.0000		9999	0	0	0	0
2019/05/05 05:31:00	BASE	2.70	54	3.45	188	-1.8	100	-1.8	0	0	983.1	NA	0.0000		9999	0	0	0	0
2019/05/05 05:32:00	BASE	2.56	76	3.45	188	-1.8	100	-1.8	0	0	983.0	NA	0.0000		9999	0	0	0	0
2019/05/05 05:33:00	BASE	3.09	101	5.35	105	-1.8	100	-1.8	0	0	982.9	NA	0.0000		9999	0	0	0	0
2019/05/05 05:34:00	BASE	4.03	127	5.35	105	-1.7	100	-1.7	0	0	982.8	NA	0.0000		9999	0	0	0	0
2019/05/05 05:35:00	BASE	4.74	150	6.17	137	-1.7	100	-1.7	0	0	982.8	NA	0.0000		9999	0	0	0	0
2019/05/05 05:36:00	BASE	5.56	146	6.69	131	-1.7	100	-1.7	0	0	982.9	NA	0.0000		9999	0	0	0	0
2019/05/05 05:37:00	BASE	5.67	140	6.69	131	-1.7	100	-1.7	0	0	982.9	NA	0.0000		9999	0	0	0	0
2019/05/05 05:38:00	BASE	4.67	153	6.69	131	-1.7	100	-1.7	0	0	982.9	NA	0.0000		9999	0	0	0	0
2019/05/05 05:39:00	BASE	3.40	158	6.69	131	-1.7	100	-1.7	0	0	982.9	NA	0.0000		9999	0	0	0	0
2019/05/05 05:40:00	BASE	2.78	163	6.69	131	-1.8	100	-1.8	0	0	982.9	NA	0.0000		9999	0	0	0	0
2019/05/05 05:41:00	BASE	2.69	184	6.69	131	-1.7	100	-1.7	0	0	982.8	NA	0.0000		9999	0	0	0	0
2019/05/05 05:42:00	BASE	2.45	211	6.69	131	-1.8	100	-1.8	0	0	982.8	NA	0.0000		9999	0	0	0	0
2019/05/05 05:43:00	BASE	1.55	247	6.69	131	-1.8	100	-1.8	0	0	982.8	NA	0.0000		9999	0	0	0	0
2019/05/05 05:44:00	BASE	0.48	358	6.69	131	-1.8	100	-1.8	0	0	982.9	NA	0.0000		9999	0	0	0	0
2019/05/05 05:45:00	BASE	0.14	84	6.69	131	-1.8	100	-1.8	0	0	982.8	NA	0.0000		9999	0	0	0	300
2019/05/05 05:46:00	BASE	1.30	174	5.76	147	-1.8	100	-1.8	0	0	982.7	NA	0.0000		9999	0	0	0	0
2019/05/05 05:47:00	BASE	2.91	164	4.48	152	-1.7	100	-1.7	0	0	982.8	NA	0.0000		9999	0	0	0	0
2019/05/05 05:48:00	BASE	3.69	139	4.32	150	-1.6	100	-1.6	0	0	982.7	NA	0.0000		9999	0	0	0	0
2019/05/05 05:49:00	BASE	4.57	145	6.48	154	-1.6	100	-1.6	0	0	982.7	NA	0.0000		9999	0	0	0	0
2019/05/05 05:50:00	BASE	5.91	150	6.94	144	-1.6	100	-1.6	0	0	982.6	NA	0.0000		9999	0	0	0	0
2019/05/05 05:51:00	BASE	7.14	151	8.33	149	-1.6	100	-1.6	0	0	982.6	NA	0.0000		9999	8830	0	0	0
2019/05/05 05:52:00	BASE	7.62	155	8.33	149	-1.6	100	-1.6	0	0	982.5	NA	0.0000		9999	8760	15360	0	0
2019/05/05 05:53:00	BASE	7.19	159	8.33	149	-1.6	100	-1.6	0	0	982.5	NA	0.0000		9999	8690	15320	0	0
2019/05/05 05:54:00	BASE	6.28	151	8.33	149	-1.6	100	-1.6	0	0	982.6	NA	0.0000		9999	8690	0	0	0
2019/05/05 05:55:00	BASE	4.80	118	8.33	149	-1.6	100	-1.6	0	0	982.6	NA	0.0000		9999	8730	15260	0	0
2019/05/05 05:56:00	BASE	4.71	58	8.33	149	-1.6	100	-1.6	0	0	982.7	NA	0.0000		9999	8660	15220	0	0
2019/05/05 05:57:00	BASE	6.61	31	8.33	149	-1.6	100	-1.6	0	0	982.7	NA	0.0000		9999	8600	15220	0	0
2019/05/05 05:58:00	BASE	6.49	19	8.33	149	-1.6	100	-1.6	0	0	982.7	NA	0.0000		9999	8560	15260	0	0
2019/05/05 05:59:00	BASE	4.95	50	8.33	149	-1.5	100	-1.5	0	0	982.6	NA	0.0000		9999	8560	15320	0	0
2019/05/05 06:00:00	BASE	4.80	141	8.33	149	-1.4	100	-1.4	0	0	982.4	NA	0.0000		9999	6300	8560	15320	0
2019/05/05 06:01:00	BASE	6.16	170	8.18	24	-1.3	100	-1.3	0	0	982.3	NA	0.0000		9999	6270	0	0	0
2019/05/05 06:02:00	BASE	7.43	164	9.31	159	-1.3	100	-1.3	0	0	982.2	NA	0.0000		9999	6040	8460	0	0
2019/05/05 06:03:00	BASE	7.54	154	9.31	159	-1.2	100	-1.2	0	0	982.3	NA	0.0000		9999	6000	8500	15260	0
2019/05/05 06:04:00	BASE	5.78	127	9.31	159	-1.2	100	-1.2	0	0	982.4	NA	0.0000		9999	8430	15220	0	0
2019/05/05 06:05:00	BASE	4.79	30	9.31	159	-1.3	100	-1.3	0	0	982.4	NA	0.0000		9999	8330	15090	0	0
2019/05/05 06:06:00	BASE	4.19	1	9.31	159	-1.2	100	-1.2	0	0	982.4	NA	0.0000		9999	8070	15130	0	0
2019/05/05 06:07:00	BASE	1.75	330	9.31	159	-1.2	100	-1.2	0	0	982.3	NA	0.0000		9999	7970	15090	0	0
2019/05/05 06:08:00	BASE	1.93	182	9.31	159	-1.2	100	-1.2	0	0	982.3	NA	0.0000		9999	7870	15090	0	0
2019/05/05 06:09:00	BASE	3.43	149	9.31	159	-1.2	100	-1.2	0	0	982.3	NA	0.0000		9999	7680	15030	0	0
2019/05/05 06:10:00	BASE	3.67	154	9.31	159	-1.1	100	-1.1	0	0	982.3	NA	0.0000		9999	7580	15060	0	0
2019/05/05 06:11:00	BASE	3.10	174	9.31	159	-1.2	100	-1.2	0	0	982.3	NA	0.0000		9999	7420	8630	15090	0
2019/05/05 06:12:00	BASE	1.93	204	8.95	154	-1.2	100	-1.2	0	0	982.3	NA	0.0000		9999	6040	7510	9150	0
2019/05/05 06:13:00	BASE	0.90	224	6.94	6	-1.2	100	-1.2	0	0	982.4	NA	0.0000		9999	5770	0	0	0
2019/05/05 06:14:00	BASE	0.24	230	6.94	6	-1.2	100	-1.2	0	0	982.4	NA	0.0000		9999	5610	7190	15220	0
2019/05/05 06:15:00	BASE	0.00	211	4.48	331	-1.2	100	-1.2	0	0	982.4	NA	0.0000		9999	5610	7090	0	0
2019/05/05 06:16:00	BASE	0.48	214	4.17	128	-1.2	100	-1.2	0	0	982.4	NA	0.0000		9999	5580	6960	0	0
2019/05/05 06:17:00	BASE	0.62	265	4.17	128	-1.1	100	-1.1	0	0	982.4	NA	0.0000		9999	5610	0	0	0
2019/05/05 06:18:00	BASE	0.23	309	4.17	128	-1.1	100	-1.1	0	0	982.4	NA	0.0000		9999	5540	0	0	0
2019/05/05 06:19:00	BASE	0.26	323	3.96	176	-1.1	100	-1.1	0	0	982.3	NA	0.0000		9999	5540	6660	0	0
2019/05/05 06:20:00	BASE	0.18	317	3.76	170	-1.1	100	-1.1	0	0	982.4	NA	0.0000		9999	5540	0	0	0
2019/05/05 06:21:00	BASE	0.60	311	2.01	285	-1.1	100	-1.1	0	0	982.4	NA	0.0000		9999	5580	0	0	0
2019/05/05 06:22:00	BASE	1.72	288	2.68	276	-1.2	100	-1.2	0	0	982.3	NA	0.0000		9999	6140	0	0	0
2019/05/05 06:23:00	BASE	2.17	287	2.68	276	-1.1	100	-1.1	0	0	982.3	NA	0.0000		9999	6140	0	0	0
2019/05/05 06:24:00	BASE	1.88	278	2.68	276	-1.1	100	-1.1	0	0	982.3	NA	0.0000		9999	6460	0	0	0
2019/05/05 06:25:00	BASE	1.91	227	2.78	183	-1.1	100	-1.1	0	0	982.3	NA	0.0000		9999	6100	0	0	0
2019/05/05 06:26:00	BASE	3.28	200	5.25	201	-1.0	100	-1.0	0	0	982.2	NA	0.0000		9999	5840	0	0	0
2019/05/05 06:27:00	BASE	4.69	198	5.81	199	-1.0	100	-1.0	0	0	982.1	NA	0.0000		9999	7550	0	0	0
2019/05/05 06:28:00	BASE	4.05	194	5.81	199	-0.9	100	-0.9	0	0	982.2	NA	0.0000		9999	7380	0	0	0
2019/05/05 06:29:00	BASE	2.50	214	5.81	199	-0.9	100	-0.9	0	0	982.3	NA	0.0000		9999	7280	0	0	0
2019/05/05 06:30:00	BASE	3.02	349	5.81	199	-0.9	100	-0.9	0	0	982.3	NA	0.0000		9999	7320	0	0	0
2019/05/05 06:31:00	BASE	4.56	353	5.81	199	-0.9	100	-0.9	0	0	982.3	NA	0.0000		9999	7150	0	0	0
2019/05/05 06:32:00	BASE	4.58	358	5.81	199	-0.9	100	-0.9	0	0	982.3	NA	0.0000		9999	1280	0	0	0
2019/05/05 06:33:00	BASE	4.22	9	6.94	8	-0.9	100	-0.9	0	0	982.2	NA	0.0000		9999	5450	0	0	0
2019/05/05 06:34:00	BASE	3.27	43	6.94	8	-0.8	100	-0.8	0	0	982.0	NA	0.0000		9999	5350	0	0	0
2019/05/05 06:35:00	BASE	3.68	126	6.94	8	-0.6	100	-0.6	0	0	981.9	NA	0.0000		9999	5250	0	0	0
2019/05/05 06:36:00	BASE	4.94	136	6.94	8	-0.5	100	-0.5	0	0	982.0	NA	0.0000		9999	5280	0	0	0
2019/05/05 06:37:00	BASE	3.53	119	6.94	8	-0.3	100	-0.3	0	0	982.0	NA	0.0000		9999	5350	0	0	0
2019/05/05 06:38:00	BASE	2.11	89	6.94	8	-0.3	100	-0.3	0	0	982.1	NA	0.0000		9999	4890	0	0	0
2019/05/05 06:39:00	BASE	2.24	63	6.94	8	-0.3	100	-0.3	0	0	982.1	NA	0.0000		9999	4460	0	0	0
2019/05/05 06:40:00	BASE	3.12	60	6.94	8	-0.4	100	-0.4	0	0	982.1	NA	0.0000		9999	4460	0	0	0
2019/05/05 06:41:00	BASE	3.28	71	6.94	8	-0.5	100	-0.5	0	0	982.1	NA	0.0000		9999	5120	0	0	0
2019/05/05 06:42:00	BASE	2.86	98	6.94	8	-0.6	100	-0.6	0	0	982.1	NA	0.0000		9999	4040	0	0	0
2019/05/05 06:43:00	BASE	3.03	130	6.02	143	-0.6	100	-0.6	0	0	982.0	NA	0.0000		9999	7610	0	0	0
2019/05/05 06:44:00	BASE	3.81	152	6.02	143	-0.6	100	-0.6	0	0	981.9	NA	0.0000		9999	4590	0	0	0
2019/05/05 06:45:00	BASE	5.05	166	5.92	176	-0.6	100	-0.6	0	0	981.8	NA	0.0000		9999	4460	0	0	0
2019/05/05 06:46:00	BASE	5.05	176	5.92	176	-0.7	100	-0.7	0	0	981.9	NA	0.0000		9999	7350	0	0	0
2019/05/05 06:47:00	BASE	3.52	179	5.92	176	-0.7	100	-0.7	0	0	982.0	NA	0.0000		9999	4170	0	0	0
2019/05/05 06:48:00	BASE	2.29	174	5.92	176	-0.7	100	-0.7	0	0	982.1	NA	0.0000		9999	3740	0	0	0
2019/05/05 06:49:00	BASE	1.97	184	5.92	176	-0.7	100	-0.7	0	0	982.1	NA	0.0000		9999	4360	0	0	0
2019/05/05 06:50:00	BASE	1.86	208	5.92	176	-0.7	100	-0.7	0	0	982.1	NA	0.0000		9999	3970	0	0	0
2019/05/05 06:51:00	BASE	2.10	213	5.92	176	-0.6	100	-0.6	0	0	982.0	NA	0.0000		9999	3810	0	0	0
2019/05/05 06:52:00	BASE	2.90	190	5.92	176	-0.6	100	-0.6	0	0	982.0	NA	0.0000		9999	3740	0	0	0
2019/05/05 06:53:00	BASE	3.12	162	5.92	176	-0.5	100	-0.5	0	0	982.0	NA	0.0000		9999	3510	0	0	0
2019/05/05 06:54:00	BASE	3.08	150	5.92	176	-0.5	100	-0.5	0	0	982.0	NA	0.0000		9999	3580	0	0	0
2019/05/05 06:55:00	BASE	4.01	152	5.50	158	-0.4	100	-0.4	0	0	981.9	NA	0.0000		9999	3740	0	0	0
2019/05/05 06:56:00	BASE	5.33	157	6.28	163	-0.4	100	-0.4	0	0	981.8	NA	0.0000		9999	3450	0	0	0
2019/05/05 06:57:00	BASE	5.71	166	6.28	163	-0.3	100	-0.3	0	0	981.7	NA	0.0000		9999	3640	0	0	0
2019/05/05 06:58:00	BASE	4.91	175	6.28	163	-0.3	100	-0.3	0	0	981.8	NA	0.0000		9999	3410	0	0	0
2019/05/05 06:59:00	BASE	3.57	168	6.28	163	-0.2	100	-0.2	0	0	981.8	NA	0.0000		9999	3480	0	0	0
2019/05/05 07:00:00	BASE	2.63	147	6.28	163	-0.2	100	-0.2	0	0	981.8	NA	0.0000		9999	3480	0	0	0
2019/05/05 07:01:00	BASE	3.40	141	6.28	163	-0.1	100	-0.1	0	0	981.8	NA	0.0000		9999	3350	0	0	0
2019/05/05 07:02:00	BASE	5.62	147	7.87	150	-0.1	100	-0.1	0	0	981.7	NA	0.0000		9999	2950	0	0	0
2019/05/05 07:03:00	BASE	7.05	153	7.87	151	-0.1	100	-0.1	0	0	981.7	NA	0.0000		9999	5020	0	0	0
2019/05/05 07:04:00	BASE	6.34	159	7.87	151	-0.1	100	-0.1	0	0	981.6	NA	0.0000		9999	4860	0	0	0
2019/05/05 07:05:00	BASE	5.13	144	7.87	151	-0.1	100	-0.1	0	0	981.7	NA	0.0000		9999	3350	0	0	0
2019/05/05 07:06:00	BASE	4.43	104	7.87	151	-0.1	100	-0.1	0	0	981.8	NA	0.0000		9999	3610	0	0	0
2019/05/05 07:07:00	BASE	4.52	74	7.87	151	-0.2	100	-0.2	0	0	981.8	NA	0.0000		9999	3970	0	0	0
2019/05/05 07:08:00	BASE	4.15	84	7.87	151	-0.2	100	-0.2	0	0	981.8	NA	0.0000		9999	3970	0	0	0
2019/05/05 07:09:00	BASE	3.28	128	7.87	151	-0.1	100	-0.1	0	0	981.7	NA	0.0000		9999	3900	0	0	0
2019/05/05 07:10:00	BASE	3.90	149	7.87	151	-0.1	100	-0.1	0	0	981.7	NA	0.0000		9999	3970	0	0	0
2019/05/05 07:11:00	BASE	4.80	132	7.87	151	-0.1	100	-0.1	0	0	981.8	NA	0.0000		9999	4070	0	0	0
2019/05/05 07:12:00	BASE	4.59	121	7.87	151	-0.1	100	-0.1	0	0	981.7	NA	0.0000		9999	4270	0	0	0
2019/05/05 07:13:00	BASE	4.85	119	6.38	166	-0.1	100	-0.1	0	0	981.7	NA	0.0000		9999	4230	0	0	0
2019/05/05 07:14:00	BASE	5.09	115	6.07	114	-0.1	100	-0.1	0	0	981.7	NA	0.0000		9999	4300	0	0	0
2019/05/05 07:15:00	BASE	3.94	127	6.07	114	-0.1	100	-0.1	0	0	981.7	NA	0.0000		9999	4360	0	0	0
2019/05/05 07:16:00	BASE	2.80	156	6.07	114	-0.0	100	-0.0	0	0	981.7	NA	0.0000		9999	4400	0	0	0
2019/05/05 07:17:00	BASE	2.55	170	6.07	114	0.0	100	0.0	0	0	981.7	NA	0.0000		9999	4560	0	0	0
2019/05/05 07:18:00	BASE	3.63	153	6.07	114	0.0	100	0.0	0	0	981.6	NA	0.0000		9999	4230	0	0	0
2019/05/05 07:19:00	BASE	4.31	135	6.07	114	0.1	100	0.1	0	0	981.7	NA	0.0000		9999	4170	0	0	0
2019/05/05 07:20:00	BASE	4.06	113	6.07	114	0.1	100	0.1	0	0	981.7	NA	0.0000		9999	4530	0	0	0
2019/05/05 07:21:00	BASE	3.85	92	6.07	114	0.1	100	0.1	0	0	981.6	NA	0.0000		9999	4530	0	0	0
2019/05/05 07:22:00	BASE	3.65	96	6.07	114	0.2	100	0.2	0	0	981.6	NA	0.0000		9999	4490	0	0	0
2019/05/05 07:23:00	BASE	4.64	100	5.92	94	0.3	100	0.3	0	0	981.6	NA	0.0000		9999	4530	0	0	0
2019/05/05 07:24:00	BASE	5.30	101	5.92	94	0.4	99	0.2	0	0	981.7	NA	0.0000		9999	4490	0	0	0
2019/05/05 07:25:00	BASE	4.70	106	5.92	94	0.4	98	0.2	0	0	981.6	NA	0.0000		9999	4530	0	0	0
2019/05/05 07:26:00	BASE	4.51	116	5.92	94	0.4	97	0.1	0	0	981.6	NA	0.0000		9999	4560	0	0	0
2019/05/05 07:27:00	BASE	4.57	133	5.92	94	0.3	97	-0.1	0	0	981.6	NA	0.0000		9999	4560	0	0	0
2019/05/05 07:28:00	BASE	4.22	147	5.92	94	0.2	96	-0.3	0	0	981.6	NA	0.0000		9999	4490	0	0	0
2019/05/05 07:29:00	BASE	4.23	159	5.92	94	0.2	96	-0.3	0	0	981.6	NA	0.0000		9999	4430	0	0	0
2019/05/05 07:30:00	BASE	3.91	173	5.92	94	0.1	97	-0.4	0	0	981.6	NA	0.0000		9999	4490	0	0	0
2019/05/05 07:31:00	BASE	2.21	183	5.92	94	0.0	97	-0.4	0	0	981.7	NA	0.0000		9999	4590	0	0	0
2019/05/05 07:32:01	BASE	0.56	185	5.92	94	-0.0	98	-0.3	0	0	981.7	NA	0.0000		9999	3970	0	0	0
2019/05/05 07:33:01	BASE	0.00	189	5.50	99	-0.1	98	-0.3	0	0	981.7	NA	0.0000		9999	4000	0	0	0
2019/05/05 07:34:01	BASE	0.73	193	5.45	131	-0.1	99	-0.2	0	0	981.7	NA	0.0000		9999	4430	0	0	0
2019/05/05 07:35:01	BASE	1.86	182	5.45	131	-0.1	99	-0.2	0	0	981.7	NA	0.0000		9999	4400	0	0	0
2019/05/05 07:36:01	BASE	2.47	174	4.89	164	-0.1	100	-0.1	0	0	981.6	NA	0.0000		9999	4400	0	0	0
2019/05/05 07:37:01	BASE	2.36	179	4.89	164	-0.1	100	-0.1	0	0	981.6	NA	0.0000		9999	4360	0	0	0
2019/05/05 07:38:01	BASE	1.46	190	4.89	164	-0.1	100	-0.1	0	0	981.7	NA	0.0000		9999	4330	0	0	0
2019/05/05 07:39:01	BASE	0.45	192	4.01	179	-0.2	100	-0.2	0	0	981.7	NA	0.0000		9999	4430	0	0	0
2019/05/05 07:40:01	BASE	0.18	184	2.88	171	-0.2	100	-0.2	0	0	981.7	NA	0.0000		9999	4490	0	0	0
2019/05/05 07:41:01	BASE	1.27	179	3.04	152	-0.2	100	-0.2	0	0	981.6	NA	0.0000		9999	4530	0	0	0
2019/05/05 07:42:01	BASE	2.60	169	3.60	173	-0.1	100	-0.1	0	0	981.6	NA	0.0000		9999	4590	0	0	0
2019/05/05 07:43:01	BASE	2.98	161	3.60	173	-0.0	100	-0.0	0	0	981.6	NA	0.0000		9999	4690	0	0	0
2019/05/05 07:44:01	BASE	2.44	159	3.60	173	0.1	100	0.1	0	0	981.6	NA	0.0000		9999	4690	0	0	0
2019/05/05 07:45:01	BASE	2.45	161	3.60	173	0.2	100	0.2	0	0	981.6	NA	0.0000		9999	4720	0	0	0
2019/05/05 07:46:01	BASE	3.17	169	3.70	166	0.3	99	0.2	0	0	981.6	NA	0.0000		9999	4760	0	0	0
2019/05/05 07:47:01	BASE	3.54	162	4.01	141	0.3	99	0.2	0	0	981.6	NA	0.0000		9999	4820	0	0	0
2019/05/05 07:48:01	BASE	3.65	134	4.17	117	0.3	98	0.1	0	0	981.6	NA	0.0000		9999	4860	0	0	0
2019/05/05 07:49:01	BASE	3.52	131	4.17	117	0.3	98	-0.0	0	0	981.6	NA	0.0000		9999	4760	0	0	0
2019/05/05 07:50:01	BASE	4.14	147	5.66	150	0.3	97	-0.1	0	0	981.6	NA	0.0000		9999	4630	0	0	0
2019/05/05 07:51:01	BASE	5.08	150	6.33	144	0.3	97	-0.1	0	0	981.6	NA	0.0000		9999	4590	0	0	0
2019/05/05 07:52:01	BASE	4.82	154	6.33	144	0.3	97	-0.2	0	0	981.6	NA	0.0000		9999	4590	0	0	0
2019/05/05 07:53:01	BASE	4.48	155	6.33	144	0.3	97	-0.2	0	0	981.6	NA	0.0000		9999	4590	0	0	0
2019/05/05 07:54:01	BASE	4.68	155	6.33	144	0.3	96	-0.2	0	0	981.6	NA	0.0000		9999	4820	0	0	0
2019/05/05 07:55:01	BASE	4.48	165	6.33	144	0.2	96	-0.3	0	0	981.5	NA	0.0000		9999	4720	0	0	0
2019/05/05 07:56:01	BASE	3.63	166	6.33	144	0.2	96	-0.3	0	0	981.6	NA	0.0000		9999	4660	0	0	0
2019/05/05 07:57:01	BASE	3.28	151	6.33	144	0.2	97	-0.3	0	0	981.5	NA	0.0000		9999	4630	0	0	0
2019/05/05 07:58:01	BASE	3.46	141	6.33	144	0.1	97	-0.3	0	0	981.5	NA	0.0000		9999	4590	0	0	0
2019/05/05 07:59:01	BASE	3.40	136	6.33	144	0.1	98	-0.2	0	0	981.5	NA	0.0000		9999	4660	0	0	0
2019/05/05 08:00:01	BASE	2.74	134	6.33	144	0.1	98	-0.2	0	0	981.5	NA	0.0000		9999	4590	0	0	0
2019/05/05 08:01:01	BASE	1.70	133	5.61	150	0.1	98	-0.1	0	0	981.5	NA	0.0000		9999	4530	0	0	0
2019/05/05 08:02:01	BASE	1.32	125	5.61	150	0.1	99	-0.1	0	0	981.5	NA	0.0000		9999	4490	0	0	0
2019/05/05 08:03:01	BASE	0.84	120	5.35	153	0.1	99	-0.1	0	0	981.5	NA	0.0000		9999	4460	0	0	0
2019/05/05 08:04:01	BASE	0.19	134	4.78	170	0.1	99	-0.0	0	0	981.5	NA	0.0000		9999	4490	0	0	0
2019/05/05 08:05:01	BASE	0.47	133	4.48	134	0.1	99	0.0	0	0	981.5	NA	0.0000		9999	4590	0	0	0
2019/05/05 08:06:01	BASE	1.17	126	4.48	134	0.1	100	0.0	0	0	981.5	NA	0.0000		9999	4790	0	0	0
2019/05/05 08:07:01	BASE	0.69	134	4.06	134	0.1	100	0.1	0	0	981.4	NA	0.0000		9999	4630	0	0	0
2019/05/05 08:08:01	BASE	0.00	158	4.06	134	0.1	100	0.1	0	0	981.4	NA	0.0000		9999	4660	0	0	0
2019/05/05 08:09:01	BASE	0.00	185	2.62	135	0.1	100	0.1	0	0	981.4	NA	0.0000		9999	4690	0	0	0
2019/05/05 08:10:01	BASE	0.00	52	2.11	136	0.0	100	0.0	0	0	981.4	NA	0.0000		9999	4660	0	0	0
2019/05/05 08:11:01	BASE	0.00	75	1.59	131	-0.0	100	-0.0	0	0	981.4	NA	0.0000		9999	4660	0	0	0
2019/05/05 08:12:01	BASE	0.00	110	1.59	131	0.0	100	-0.0	0	0	981.3	NA	0.0000		9999	4690	0	0	0
2019/05/05 08:13:01	BASE	0.00	157	1.59	131	0.0	100	0.0	0	0	981.2	NA	0.0000		9999	4720	0	0	0
2019/05/05 08:14:01	BASE	0.00	156	1.59	131	0.0	100	0.0	0	0	981.2	NA	0.0000		9999	4720	0	0	0
2019/05/05 08:15:01	BASE	0.10	127	1.59	131	0.1	100	0.1	0	0	981.2	NA	0.0000		9999	4760	0	0	0
2019/05/05 08:16:01	BASE	0.33	143	1.18	165	0.1	100	0.1	0	0	981.2	NA	0.0000		9999	4860	0	0	0
2019/05/05 08:17:01	BASE	0.23	169	1.18	165	0.1	100	0.1	0	0	981.2	NA	0.0000		9999	4860	0	0	0
2019/05/05 08:18:01	BASE	0.00	160	1.18	165	0.0	100	0.0	0	0	981.2	NA	0.0000		9999	4890	0	0	0
2019/05/05 08:19:01	BASE	0.00	141	1.18	165	0.1	100	0.1	0	0	981.2	NA	0.0000		9999	5020	0	0	0
2019/05/05 08:20:01	BASE	0.58	126	1.44	121	0.0	100	0.0	0	0	981.2	NA	0.0000		9999	5020	0	0	0
2019/05/05 08:21:01	BASE	1.54	128	2.78	162	-0.0	100	-0.0	0	0	981.2	NA	0.0000		9999	4890	0	0	0
2019/05/05 08:22:01	BASE	2.90	142	4.37	144	-0.0	100	-0.0	0	0	981.2	NA	0.0000		9999	4890	0	0	0
2019/05/05 08:23:01	BASE	4.09	144	5.71	132	-0.1	100	-0.1	0	0	981.2	NA	0.0000		9999	4890	0	0	0
2019/05/05 08:24:01	BASE	5.18	143	10.13	139	-0.1	100	-0.1	0	0	981.0	NA	0.0000		9999	4860	0	0	0
2019/05/05 08:25:01	BASE	8.14	144	11.88	133	-0.2	100	-0.2	0	0	981.0	NA	0.0000		9999	4890	0	0	0
2019/05/05 08:26:01	BASE	11.77	137	14.92	132	-0.1	100	-0.1	0	0	980.9	NA	0.0000		9999	5050	0	0	0
2019/05/05 08:27:01	BASE	12.59	134	14.92	132	0.0	100	0.0	0	0	980.9	NA	0.0000		9999	5090	0	0	0
2019/05/05 08:28:01	BASE	12.10	131	14.92	132	0.2	100	0.2	0	0	980.9	NA	0.0000		9999	5020	0	0	0
2019/05/05 08:29:01	BASE	11.87	127	14.92	132	0.4	100	0.4	0	0	980.9	NA	0.0000		9999	5050	0	0	0
2019/05/05 08:30:01	BASE	11.32	128	14.92	132	0.6	99	0.5	0	0	980.9	NA	0.0000		9999	4990	0	0	0
2019/05/05 08:31:01	BASE	11.06	131	14.92	132	0.7	98	0.5	0	0	980.9	NA	0.0000		9999	4820	0	0	0
2019/05/05 08:32:01	BASE	10.59	130	14.92	132	0.8	97	0.4	0	0	980.9	NA	0.0000		9999	4860	0	0	0
2019/05/05 08:33:01	BASE	9.84	124	14.92	132	0.9	96	0.3	0	0	980.9	NA	0.0000		9999	4790	0	0	0
2019/05/05 08:34:01	BASE	9.50	123	14.92	132	0.9	94	0.1	0	0	980.9	NA	0.0000		9999	4790	0	0	0
2019/05/05 08:35:01	BASE	9.96	128	14.92	132	1.0	93	0.0	0	0	980.9	NA	0.0000		9999	4720	0	0	0
2019/05/05 08:36:01	BASE	10.16	135	13.32	133	1.0	92	-0.1	0	0	980.8	NA	0.0000		9999	4760	0	0	0
2019/05/05 08:37:01	BASE	9.65	133	13.32	133	1.0	92	-0.2	0	0	980.9	NA	0.0000		9999	4720	0	0	0
2019/05/05 08:38:01	BASE	9.26	132	13.32	133	1.0	91	-0.2	0	0	980.8	NA	0.0000		9999	4720	0	0	0
2019/05/05 08:39:01	BASE	8.68	130	13.02	118	1.0	91	-0.3	0	0	980.8	NA	0.0000		9999	4720	0	0	0
2019/05/05 08:40:01	BASE	8.01	125	12.35	134	1.0	91	-0.3	0	0	980.9	NA	0.0000		9999	4660	0	0	0
2019/05/05 08:41:01	BASE	7.25	123	12.24	135	1.1	91	-0.3	0	0	980.9	NA	0.0000		9999	4660	0	0	0
2019/05/05 08:42:01	BASE	7.46	118	12.24	135	1.1	90	-0.3	0	0	980.9	NA	0.0000		9999	4690	0	0	0
2019/05/05 08:43:01	BASE	8.13	118	12.24	135	1.1	90	-0.3	0	0	980.8	NA	0.0000		9999	4820	0	0	0
2019/05/05 08:44:01	BASE	8.22	103	12.24	135	1.2	90	-0.2	0	0	980.8	NA	0.0000		9999	4790	0	0	0
2019/05/05 08:45:01	BASE	9.18	93	11.42	142	1.4	91	0.1	0	0	980.8	NA	0.0000		9999	4760	0	0	0
2019/05/05 08:46:01	BASE	10.01	103	11.32	98	1.6	91	0.3	0	0	980.8	NA	0.0000		9999	4820	0	0	0
2019/05/05 08:47:01	BASE	9.78	117	11.32	98	1.7	91	0.4	0	0	980.7	NA	0.0000		9999	4920	0	0	0
2019/05/05 08:48:01	BASE	9.80	124	11.32	98	1.8	91	0.5	0	0	980.7	NA	0.0000		9999	4990	0	0	0
2019/05/05 08:49:01	BASE	10.24	125	11.42	126	1.8	91	0.4	0	0	980.7	NA	0.0000		9999	4990	0	0	0
2019/05/05 08:50:01	BASE	10.20	125	11.42	126	1.7	90	0.2	0	0	980.7	NA	0.0000		9999	5020	0	0	0
2019/05/05 08:51:01	BASE	10.30	125	11.47	133	1.6	90	0.0	0	0	980.6	NA	0.0000		9999	5050	0	0	0
2019/05/05 08:52:01	BASE	9.71	128	11.47	133	1.4	89	-0.2	0	0	980.6	NA	0.0000		9999	5120	0	0	0
2019/05/05 08:53:01	BASE	8.39	128	11.47	133	1.3	89	-0.3	0	0	980.6	NA	0.0000		9999	5150	0	0	0
2019/05/05 08:54:01	BASE	7.82	127	11.47	133	1.3	89	-0.4	0	0	980.6	NA	0.0000		9999	5180	0	0	0
2019/05/05 08:55:01	BASE	7.79	124	11.47	133	1.2	89	-0.5	0	0	980.6	NA	0.0000		9999	5220	0	0	0
2019/05/05 08:56:01	BASE	7.55	125	11.47	133	1.2	89	-0.5	0	0	980.7	NA	0.0000		9999	5250	0	0	0
2019/05/05 08:57:01	BASE	6.56	120	11.47	133	1.2	89	-0.5	0	0	980.7	NA	0.0000		9999	5250	0	0	0
2019/05/05 08:58:01	BASE	5.31	115	11.47	133	1.2	89	-0.4	0	0	980.7	NA	0.0000		9999	5250	0	0	0
2019/05/05 08:59:01	BASE	4.90	118	11.47	133	1.3	88	-0.4	0	0	980.7	NA	0.0000		9999	5250	0	0	0
2019/05/05 09:00:01	BASE	5.60	120	11.47	133	1.3	88	-0.4	0	0	980.6	NA	0.0000		9999	5280	0	0	0
2019/05/05 09:01:01	BASE	6.47	86	10.34	127	1.4	88	-0.3	0	0	980.6	NA	0.0000		9999	5280	0	0	0
2019/05/05 09:02:01	BASE	6.45	83	10.34	127	1.7	88	0.0	0	0	980.5	NA	0.0000		9999	5350	0	0	0
2019/05/05 09:03:01	BASE	5.61	120	9.05	130	1.9	88	0.0	0	0	980.5	NA	0.0000		9999	5380	0	0	0
2019/05/05 09:04:01	BASE	7.78	105	13.53	68	2.0	87	0.1	0	0	980.5	NA	0.0000		9999	5450	0	0	0
2019/05/05 09:05:01	BASE	10.07	74	15.18	68	2.4	87	0.5	0	0	980.3	NA	0.0000		9999	5350	0	0	0
2019/05/05 09:06:01	BASE	8.97	48	15.18	68	2.8	86	0.7	0	0	980.3	NA	0.0000		9999	5450	5970	0	0
2019/05/05 09:07:01	BASE	9.06	47	15.18	68	3.0	85	0.7	0	0	980.4	NA	0.0000		9999	5450	0	0	0
2019/05/05 09:08:01	BASE	9.93	59	15.18	68	3.4	84	0.9	0	0	980.4	NA	0.0000		9999	5410	0	0	0
2019/05/05 09:09:01	BASE	9.59	70	15.18	68	3.7	82	1.0	0	0	980.4	NA	0.0000		9999	5450	0	0	0
2019/05/05 09:10:01	BASE	8.64	73	15.18	68	3.9	81	0.9	0	0	980.4	NA	0.0000		9999	5540	0	0	0
2019/05/05 09:11:01	BASE	7.23	84	15.18	68	4.0	80	0.8	0	0	980.3	NA	0.0000		9999	5540	0	0	0
2019/05/05 09:12:01	BASE	6.62	90	15.18	68	4.0	80	0.8	0	0	980.3	NA	0.0000		9999	3250	5610	0	0
2019/05/05 09:13:01	BASE	6.53	83	15.18	68	4.1	80	1.0	0	0	980.4	NA	0.0000		9999	3310	5610	0	0
2019/05/05 09:14:01	BASE	7.34	80	15.18	68	4.1	81	1.1	0	0	980.3	NA	0.0000		9999	5710	0	0	0
2019/05/05 09:15:01	BASE	7.94	75	13.58	54	4.1	81	1.2	0	0	980.3	NA	0.0000		9999	5810	0	0	0
2019/05/05 09:16:01	BASE	8.78	76	13.58	54	4.0	82	1.2	0	0	980.3	NA	0.0000		9999	5840	0	0	0
2019/05/05 09:17:01	BASE	9.90	76	12.30	46	4.0	81	1.0	0	0	980.3	NA	0.0000		9999	5910	0	0	0
2019/05/05 09:18:01	BASE	10.85	67	16.31	62	4.0	80	0.8	0	0	980.3	NA	0.0000		9999	5940	0	0	0
2019/05/05 09:19:01	BASE	10.93	67	16.31	62	4.0	79	0.7	0	0	980.3	NA	0.0000		9999	5940	0	0	0
2019/05/05 09:20:01	BASE	10.20	79	16.31	62	4.1	78	0.5	0	0	980.3	NA	0.0000		9999	5940	0	0	0
2019/05/05 09:21:01	BASE	10.37	89	16.31	62	4.1	77	0.4	0	0	980.2	NA	0.0000		9999	5970	0	0	0
2019/05/05 09:22:01	BASE	11.22	90	16.31	62	4.1	76	0.2	0	0	980.2	NA	0.0000		9999	5970	0	0	0
2019/05/05 09:23:01	BASE	11.98	87	16.31	62	4.1	75	0.0	0	0	980.2	NA	0.0000		9999	5970	0	0	0
2019/05/05 09:24:01	BASE	11.34	89	16.31	62	4.0	75	-0.1	0	0	980.2	NA	0.0000		9999	6000	0	0	0
2019/05/05 09:25:01	BASE	12.13	96	16.31	62	3.9	75	-0.2	0	0	980.1	NA	0.0000		9999	6000	0	0	0
2019/05/05 09:26:01	BASE	13.60	104	16.31	62	3.7	75	-0.3	0	0	980.1	NA	0.0000		9999	5970	0	0	0
2019/05/05 09:27:01	BASE	13.76	109	16.31	62	3.6	75	-0.4	0	0	980.1	NA	0.0000		9999	5970	0	0	0
2019/05/05 09:28:01	BASE	13.36	105	16.51	101	3.5	75	-0.6	0	0	980.1	NA	0.0000		9999	6000	0	0	0
2019/05/05 09:29:01	BASE	12.68	101	16.51	101	3.4	74	-0.7	0	0	980.1	NA	0.0000		9999	6000	0	0	0
2019/05/05 09:30:01	BASE	12.19	101	16.51	101	3.3	74	-0.9	0	0	980.0	NA	0.0000		9999	6000	0	0	0
2019/05/05 09:31:01	BASE	12.60	106	16.51	101	3.2	74	-1.0	0	0	979.9	NA	0.0000		9999	6000	0	0	0
2019/05/05 09:32:01	BASE	13.32	109	16.51	101	3.2	74	-1.0	0	0	979.9	NA	0.0000		9999	5970	0	0	0
2019/05/05 09:33:01	BASE	14.35	107	19.50	120	3.1	74	-1.0	0	0	979.9	NA	0.0000		9999	6040	0	0	0
2019/05/05 09:34:01	BASE	15.76	112	19.50	120	3.1	75	-1.0	0	0	979.8	NA	0.0000		9999	5970	0	0	0
2019/05/05 09:35:01	BASE	17.58	117	24.23	104	3.0	75	-1.1	0	0	979.7	NA	0.0000		9999	5910	0	0	0
2019/05/05 09:36:01	BASE	19.80	114	24.23	104	3.0	75	-1.0	0	0	979.6	NA	0.0000		9999	5640	0	0	0
2019/05/05 09:37:01	BASE	19.64	112	24.23	104	3.2	74	-1.0	0	0	979.7	NA	0.0000		9999	5540	0	0	0
2019/05/05 09:38:01	BASE	19.73	113	25.88	105	3.3	73	-1.1	0	0	979.5	NA	0.0000		9999	5480	0	0	0
2019/05/05 09:39:01	BASE	20.46	110	26.39	109	3.5	72	-1.1	0	0	979.5	NA	0.0000		9999	5450	0	0	0
2019/05/05 09:40:01	BASE	19.36	111	26.39	109	3.7	71	-1.0	0	0	979.5	NA	0.0000		9999	5320	0	0	0
2019/05/05 09:41:01	BASE	19.42	114	26.39	109	3.9	70	-1.0	0	0	979.5	NA	0.0000		9999	5250	0	0	0
2019/05/05 09:42:01	BASE	18.66	110	26.39	109	4.1	70	-0.9	0	0	979.6	NA	0.0000		9999	5450	0	0	0
2019/05/05 09:43:01	BASE	17.14	115	26.39	109	4.2	70	-0.7	0	0	979.5	NA	0.0000		9999	5250	0	0	0
2019/05/05 09:44:01	BASE	17.75	123	26.39	109	4.3	70	-0.6	0	0	979.4	NA	0.0000		9999	5350	0	0	0
2019/05/05 09:45:01	BASE	17.32	134	26.39	109	4.4	71	-0.5	0	0	979.3	NA	0.0000		9999	5380	0	0	0
2019/05/05 09:46:01	BASE	15.21	137	26.39	109	4.5	70	-0.4	0	0	979.4	NA	0.0000		9999	5450	0	0	0
2019/05/05 09:47:01	BASE	12.53	140	26.39	109	4.5	70	-0.5	0	0	979.5	NA	0.0000		9999	5580	0	0	0
2019/05/05 09:48:01	BASE	11.23	148	26.39	109	4.3	69	-0.8	0	0	979.6	NA	0.0000		9999	3350	5610	0	0
2019/05/05 09:49:01	BASE	12.37	143	22.94	105	4.0	69	-1.1	0	0	979.6	NA	0.0000		9999	3310	0	0	0
2019/05/05 09:50:01	BASE	12.54	127	22.94	105	3.8	70	-1.2	0	0	979.7	NA	0.0000		9999	3450	0	0	0
2019/05/05 09:51:01	BASE	11.15	122	22.94	105	3.6	71	-1.2	0	0	979.7	NA	0.0000		9999	3480	0	0	0
2019/05/05 09:52:01	BASE	10.43	124	22.94	105	3.4	71	-1.4	0	0	979.6	NA	0.0000		9999	3510	5120	0	0
2019/05/05 09:53:01	BASE	12.01	109	22.94	105	3.3	72	-1.3	0	0	979.7	NA	0.0000		9999	2950	0	0	0
2019/05/05 09:54:01	BASE	12.45	94	17.90	145	3.4	72	-1.2	0	0	979.7	NA	0.0000		9999	3540	5180	0	0
2019/05/05 09:55:01	BASE	10.84	98	17.70	111	3.3	71	-1.4	0	0	979.6	NA	0.0000		9999	5150	0	0	0
2019/05/05 09:56:01	BASE	10.46	105	17.70	111	3.2	71	-1.5	0	0	979.6	NA	0.0000		9999	3450	0	0	0
2019/05/05 09:57:01	BASE	10.70	93	17.70	111	3.1	72	-1.5	0	0	979.7	NA	0.0000		9999	3380	0	0	0
2019/05/05 09:58:01	BASE	11.37	93	17.70	111	3.0	72	-1.6	0	0	979.6	NA	0.0000		9999	2950	3540	0	0
2019/05/05 09:59:01	BASE	14.75	111	18.57	111	2.9	72	-1.6	0	0	979.4	NA	0.0000		9999	3510	0	0	0
2019/05/05 10:00:01	BASE	15.94	125	18.57	111	2.9	73	-1.5	0	0	979.4	NA	0.0000		9999	2890	3410	0	0
2019/05/05 10:01:01	BASE	12.09	132	18.57	111	2.9	73	-1.5	0	0	979.5	NA	0.0000		9999	3510	5640	0	0
2019/05/05 10:02:01	BASE	10.60	129	18.57	111	2.9	73	-1.4	0	0	979.4	NA	0.0000		9999	2620	0	0	0
2019/05/05 10:03:01	BASE	13.55	120	18.83	135	3.0	73	-1.3	0	0	979.5	NA	0.0000		9999	5740	0	0	0
2019/05/05 10:04:01	BASE	13.14	102	18.83	135	3.1	73	-1.3	0	0	979.7	NA	0.0000		9999	5710	0	0	0
2019/05/05 10:05:01	BASE	11.75	93	18.83	135	3.0	73	-1.3	0	0	979.7	NA	0.0000		9999	5710	0	0	0
2019/05/05 10:06:00	BASE	12.48	100	18.83	135	2.9	74	-1.3	0	0	979.7	NA	0.0000		9999	5740	0	0	0
2019/05/05 10:07:00	BASE	11.86	102	18.83	135	2.8	74	-1.4	0	0	979.7	NA	0.0000		9999	5580	0	0	0
2019/05/05 10:08:00	BASE	10.44	104	18.83	135	2.7	74	-1.4	0	0	979.7	NA	0.0000		9999	5640	0	0	0
2019/05/05 10:09:00	BASE	8.18	101	18.83	135	2.6	75	-1.4	0	0	979.7	NA	0.0000		9999	5610	0	0	0
2019/05/05 10:10:01	BASE	8.94	94	18.83	135	2.7	75	-1.4	0	0	979.6	NA	0.0000		9999	5640	0	0	0
2019/05/05 10:11:00	BASE	8.40	101	18.83	135	2.8	75	-1.2	0	0	979.7	NA	0.0000		9999	5640	0	0	0
2019/05/05 10:12:00	BASE	7.06	118	18.83	135	3.0	75	-1.0	0	0	979.7	NA	0.0000		9999	5320	0	0	0
2019/05/05 10:13:01	BASE	8.25	123	16.46	103	3.1	75	-0.9	0	0	979.7	NA	0.0000		9999	5280	0	0	0
2019/05/05 10:14:00	BASE	8.25	120	16.46	103	3.2	75	-0.8	0	0	979.7	NA	0.0000		9999	5610	0	0	0
2019/05/05 10:15:00	BASE	9.22	110	16.36	96	3.3	74	-1.0	0	0	979.7	NA	0.0000		9999	5580	0	0	0
2019/05/05 10:16:00	BASE	10.57	106	16.36	96	3.1	73	-1.3	0	0	979.7	NA	0.0000		9999	5540	0	0	0
2019/05/05 10:17:00	BASE	11.68	109	16.36	96	2.8	72	-1.6	0	0	979.6	NA	0.0000		9999	5540	0	0	0
2019/05/05 10:18:00	BASE	11.82	105	16.36	96	2.7	73	-1.7	0	0	979.7	NA	0.0000		9999	5540	0	0	0
2019/05/05 10:19:00	BASE	10.25	111	16.36	96	2.5	73	-1.8	0	0	979.7	NA	0.0000		9999	5580	0	0	0
2019/05/05 10:20:00	BASE	8.74	120	13.84	118	2.5	74	-1.7	0	0	979.7	NA	0.0000		9999	5610	0	0	0
2019/05/05 10:21:00	BASE	8.18	120	13.84	118	2.4	74	-1.7	0	0	979.8	NA	0.0000		9999	5580	0	0	0
2019/05/05 10:22:00	BASE	8.84	119	13.84	118	2.4	74	-1.7	0	0	979.7	NA	0.0000		9999	5610	0	0	0
2019/05/05 10:23:00	BASE	9.81	118	13.84	118	2.4	74	-1.8	0	0	979.8	NA	0.0000		9999	5580	0	0	0
2019/05/05 10:24:00	BASE	9.56	119	13.84	118	2.3	74	-1.8	0	0	979.8	NA	0.0000		9999	5710	0	0	0
2019/05/05 10:25:00	BASE	9.51	120	13.84	118	2.3	74	-1.8	0	0	979.7	NA	0.0000		9999	5580	0	0	0
2019/05/05 10:26:00	BASE	10.54	123	13.84	118	2.4	74	-1.8	0	0	979.7	NA	0.0000		9999	5580	0	0	0
2019/05/05 10:27:00	BASE	9.59	126	12.30	93	2.4	73	-1.8	0	0	979.8	NA	0.0000		9999	5540	0	0	0
2019/05/05 10:28:00	BASE	7.91	129	11.88	125	2.4	73	-1.9	0	0	979.8	NA	0.0000		9999	5540	0	0	0
2019/05/05 10:29:00	BASE	7.62	130	11.88	125	2.4	73	-2.0	0	0	979.8	NA	0.0000		9999	5580	0	0	0
2019/05/05 10:30:00	BASE	7.39	131	11.88	125	2.3	73	-2.0	0	0	979.8	NA	0.0000		9999	5840	0	0	0
2019/05/05 10:31:00	BASE	9.07	132	12.66	140	2.1	74	-2.0	0	0	979.8	NA	0.0000		9999	5840	0	0	0
2019/05/05 10:32:00	BASE	11.98	130	13.84	128	2.0	75	-1.9	0	0	979.7	NA	0.0000		9999	5840	0	0	0
2019/05/05 10:33:00	BASE	12.29	131	13.84	128	1.9	77	-1.8	0	0	979.7	NA	0.0000		9999	5840	0	0	0
2019/05/05 10:34:00	BASE	12.29	134	14.40	134	1.8	78	-1.7	0	0	979.7	NA	0.0000	UP	9999	5840	0	0	0
2019/05/05 10:35:00	BASE	13.06	132	14.40	134	1.7	79	-1.6	0	0	979.7	NA	0.0000	UP	9999	5840	0	0	0
2019/05/05 10:36:00	BASE	12.87	134	14.40	134	1.6	80	-1.5	0	0	979.7	NA	0.0000	UP	9999	5870	0	0	0
2019/05/05 10:37:00	BASE	13.08	136	14.46	141	1.5	81	-1.4	0	0	979.7	NA	0.0000	UP	9999	5870	0	0	0
2019/05/05 10:38:00	BASE	13.86	137	15.33	137	1.5	82	-1.3	0	0	979.6	NA	0.0000	UP	9999	5870	0	0	0
2019/05/05 10:39:00	BASE	13.70	138	15.33	137	1.4	83	-1.2	0	0	979.7	NA	0.0000	UP	9999	5870	0	0	0
2019/05/05 10:40:00	BASE	13.50	133	15.33	137	1.5	83	-1.1	0	0	979.7	NA	0.0000	UP	9999	5870	0	0	0
2019/05/05 10:41:00	BASE	13.69	127	15.33	137	1.5	84	-1.0	0	0	979.7	NA	0.0000	UP	9999	5910	0	0	0
2019/05/05 10:42:00	BASE	12.62	127	15.33	137	1.5	84	-0.9	0	0	979.8	NA	0.0000	UP	9999	5870	0	0	0
2019/05/05 10:43:00	BASE	11.26	127	15.33	137	1.5	84	-0.9	0	0	979.8	NA	0.0000	UP	9999	5910	0	0	0
2019/05/05 10:44:00	BASE	10.80	129	15.33	137	1.5	84	-0.8	0	0	979.8	NA	0.0000	UP	9999	5910	0	0	0
2019/05/05 10:45:00	BASE	10.34	132	15.33	137	1.6	85	-0.8	0	0	979.8	NA	0.0000	UP	9999	5910	0	0	0
2019/05/05 10:46:00	BASE	9.89	134	15.33	137	1.6	85	-0.7	0	0	979.8	NA	0.0000	UP	9999	5940	0	0	0
2019/05/05 10:47:00	BASE	9.41	135	15.33	137	1.6	85	-0.6	0	0	979.8	NA	0.0000	UP	9999	5970	0	0	0
2019/05/05 10:48:00	BASE	8.69	134	14.87	129	1.7	85	-0.6	0	0	979.8	NA	0.0000	UP	9999	5940	0	0	0
2019/05/05 10:49:00	BASE	8.41	133	14.87	129	1.7	85	-0.6	0	0	979.8	NA	0.0000	UP	9999	5910	0	0	0
2019/05/05 10:50:00	BASE	8.74	133	14.51	129	1.7	84	-0.7	0	0	979.8	NA	0.0000		9999	8400	10470	0	0
2019/05/05 10:51:00	BASE	8.97	126	13.02	127	1.7	84	-0.7	0	0	979.8	NA	0.0000		9999	8560	10530	0	0
2019/05/05 10:52:00	BASE	8.98	122	12.14	130	1.6	84	-0.7	0	0	979.8	NA	0.0000		9999	8560	0	0	0
2019/05/05 10:53:00	BASE	9.40	128	11.57	132	1.6	85	-0.7	0	0	979.8	NA	0.0000		9999	8630	10560	0	0
2019/05/05 10:54:00	BASE	9.26	129	10.49	133	1.5	85	-0.7	0	0	979.8	NA	0.0000		9999	8690	10530	0	0
2019/05/05 10:55:00	BASE	8.66	119	10.49	133	1.5	85	-0.7	0	0	979.9	NA	0.0000		9999	8790	0	0	0
2019/05/05 10:56:00	BASE	8.22	110	10.49	133	1.5	85	-0.7	0	0	979.9	NA	0.0000		9999	8830	0	0	0
2019/05/05 10:57:00	BASE	6.92	106	10.49	133	1.5	85	-0.7	0	0	979.8	NA	0.0000		9999	6100	10600	0	0
2019/05/05 10:58:00	BASE	6.05	108	10.49	133	1.6	86	-0.6	0	0	979.8	NA	0.0000		9999	6140	10660	0	0
2019/05/05 10:59:00	BASE	6.36	113	10.49	133	1.7	86	-0.5	0	0	979.8	NA	0.0000		9999	6200	10700	0	0
2019/05/05 11:00:00	BASE	5.93	110	10.49	133	1.8	86	-0.4	0	0	979.8	NA	0.0000		9999	6230	10700	0	0
2019/05/05 11:01:00	BASE	5.74	114	10.49	133	1.8	85	-0.4	0	0	979.8	NA	0.0000		9999	6230	10240	0	0
2019/05/05 11:02:00	BASE	5.58	114	10.49	133	1.9	85	-0.4	0	0	979.8	NA	0.0000		9999	10040	0	0	0
2019/05/05 11:03:00	BASE	5.64	103	9.93	129	1.9	85	-0.4	0	0	979.8	NA	0.0000		9999	10300	0	0	0
2019/05/05 11:04:00	BASE	7.10	74	9.88	111	2.0	85	-0.3	0	0	979.8	NA	0.0000		9999	10340	0	0	0
2019/05/05 11:05:00	BASE	7.90	58	11.57	36	2.2	85	-0.0	0	0	979.8	NA	0.0000		9999	10370	0	0	0
2019/05/05 11:06:00	BASE	7.91	50	11.57	36	2.5	86	0.3	0	0	979.8	NA	0.0000		9999	10300	0	0	0
2019/05/05 11:07:00	BASE	7.17	37	11.57	36	2.7	86	0.6	0	0	979.8	NA	0.0000		9999	10400	0	0	0
2019/05/05 11:08:00	BASE	6.78	25	11.57	36	3.0	86	0.8	0	0	979.7	NA	0.0000		9999	10300	10860	0	0
2019/05/05 11:09:00	BASE	7.93	27	13.02	33	3.1	86	0.9	0	0	979.7	NA	0.0000		9999	10430	0	0	0
2019/05/05 11:10:00	BASE	10.81	31	14.51	48	3.2	86	1.1	0	0	979.6	NA	0.0000		9999	10830	0	0	0
2019/05/05 11:11:00	BASE	13.03	26	16.05	27	3.4	85	1.1	0	0	979.5	NA	0.0000		9999	10890	0	0	0
2019/05/05 11:12:00	BASE	14.01	23	17.34	35	3.5	85	1.2	0	0	979.5	NA	0.0000		9999	10960	0	0	0
2019/05/05 11:13:00	BASE	16.35	25	20.37	18	3.6	85	1.3	0	0	979.4	NA	0.0000		9999	10560	11060	0	0
2019/05/05 11:14:00	BASE	18.14	24	20.37	18	3.7	84	1.3	0	0	979.3	NA	0.0000		9999	10560	11160	0	0
2019/05/05 11:15:00	BASE	17.74	24	22.69	29	3.8	83	1.2	0	0	979.4	NA	0.0000		9999	10530	11220	0	0
2019/05/05 11:16:00	BASE	17.05	24	22.69	29	3.8	82	1.1	0	0	979.4	NA	0.0000		9999	10560	11250	0	0
2019/05/05 11:17:00	BASE	16.77	26	22.69	29	3.9	81	1.0	0	0	979.4	NA	0.0000		9999	10560	0	0	0
2019/05/05 11:18:00	BASE	16.68	26	22.69	29	3.9	81	0.9	0	0	979.4	NA	0.0000		9999	10630	0	0	0
2019/05/05 11:19:00	BASE	16.93	24	22.69	29	3.9	80	0.8	0	0	979.4	NA	0.0000		9999	10630	11190	0	0
2019/05/05 11:20:00	BASE	17.24	26	22.69	29	3.9	80	0.8	0	0	979.4	NA	0.0000		9999	10630	11160	0	0
2019/05/05 11:21:00	BASE	17.05	29	22.69	29	3.9	80	0.7	0	0	979.4	NA	0.0000		9999	10600	0	0	0
2019/05/05 11:22:00	BASE	17.01	29	22.69	29	3.9	80	0.7	0	0	979.4	NA	0.0000		9999	10890	0	0	0
2019/05/05 11:23:00	BASE	16.90	26	22.69	29	3.9	80	0.7	0	0	979.4	NA	0.0000		9999	10790	0	0	0
2019/05/05 11:24:00	BASE	17.70	25	22.69	29	3.9	79	0.6	0	0	979.3	NA	0.0000		9999	10730	0	0	0
2019/05/05 11:25:00	BASE	17.83	25	22.17	29	3.9	79	0.6	0	0	979.3	NA	0.0000		9999	10700	0	0	0
2019/05/05 11:26:00	BASE	18.14	26	22.17	29	3.9	79	0.5	0	0	979.3	NA	0.0000		9999	10700	0	0	0
2019/05/05 11:27:00	BASE	19.36	25	23.41	24	3.8	79	0.5	0	0	979.3	NA	0.0000		9999	10630	0	0	0
2019/05/05 11:28:00	BASE	19.06	24	23.41	24	3.8	79	0.5	0	0	979.4	NA	0.0000		9999	10560	0	0	0
2019/05/05 11:29:00	BASE	17.76	24	23.41	24	3.8	79	0.5	0	0	979.4	NA	0.0000		9999	10600	0	0	0
2019/05/05 11:30:00	BASE	17.74	25	23.41	24	3.8	79	0.5	0	0	979.4	NA	0.0000		9999	10560	0	0	0
2019/05/05 11:31:00	BASE	18.38	27	23.41	24	3.8	79	0.5	0	0	979.4	NA	0.0000		9999	10470	0	0	0
2019/05/05 11:32:00	BASE	18.33	28	23.41	24	3.7	79	0.4	0	0	979.4	NA	0.0000		9999	10500	11220	0	0
2019/05/05 11:33:00	BASE	18.18	25	23.41	24	3.7	79	0.3	0	0	979.4	NA	0.0000		9999	10470	0	0	0
2019/05/05 11:34:00	BASE	18.71	28	23.41	24	3.6	78	0.2	0	0	979.4	NA	0.0000		9999	10500	11160	0	0
2019/05/05 11:35:00	BASE	19.10	30	23.41	24	3.6	78	0.1	0	0	979.4	NA	0.0000		9999	10430	11160	0	0
2019/05/05 11:36:00	BASE	18.55	28	23.41	24	3.6	78	0.0	0	0	979.5	NA	0.0000		9999	10430	11160	0	0
2019/05/05 11:37:00	BASE	18.00	29	22.02	30	3.5	77	-0.1	0	0	979.5	NA	0.0000		9999	10560	0	0	0
2019/05/05 11:38:00	BASE	17.87	31	22.02	30	3.5	77	-0.1	0	0	979.5	NA	0.0000		9999	10560	0	0	0
2019/05/05 11:39:00	BASE	17.88	31	22.02	30	3.5	77	-0.2	0	0	979.5	NA	0.0000		9999	10630	0	0	0
2019/05/05 11:40:00	BASE	17.70	31	21.25	25	3.4	77	-0.2	0	0	979.5	NA	0.0000		9999	10660	0	0	0
2019/05/05 11:41:00	BASE	16.97	31	20.99	34	3.4	77	-0.2	0	0	979.6	NA	0.0000		9999	3080	10730	0	0
2019/05/05 11:42:00	BASE	15.93	31	20.99	34	3.4	77	-0.3	0	0	979.6	NA	0.0000		9999	10760	0	0	0
2019/05/05 11:43:00	BASE	15.79	31	20.99	34	3.4	77	-0.3	0	0	979.6	NA	0.0000		9999	10760	0	0	0
2019/05/05 11:44:00	BASE	15.98	33	20.99	34	3.4	77	-0.3	0	0	979.6	NA	0.0000		9999	2990	0	0	0
2019/05/05 11:45:00	BASE	15.23	35	20.17	34	3.4	77	-0.3	0	0	979.7	NA	0.0000		9999	2590	0	0	0
2019/05/05 11:46:00	BASE	14.50	35	20.17	34	3.4	76	-0.4	0	0	979.7	NA	0.0000		9999	3080	0	0	0
2019/05/05 11:47:00	BASE	13.92	37	20.17	34	3.4	76	-0.4	0	0	979.7	NA	0.0000		9999	2690	11090	0	0
2019/05/05 11:48:00	BASE	13.18	36	20.17	34	3.4	76	-0.4	0	0	979.7	NA	0.0000		9999	11090	0	0	0
2019/05/05 11:49:00	BASE	12.27	36	20.17	34	3.5	76	-0.4	0	0	979.7	NA	0.0000		9999	2760	11120	0	0
2019/05/05 11:50:00	BASE	11.81	38	18.42	32	3.5	76	-0.4	0	0	979.7	NA	0.0000		9999	2660	11120	0	0
2019/05/05 11:51:00	BASE	12.77	40	18.42	32	3.5	76	-0.3	0	0	979.7	NA	0.0000		9999	11160	0	0	0
2019/05/05 11:52:00	BASE	12.89	37	17.90	27	3.5	76	-0.3	0	0	979.7	NA	0.0000		9999	11190	0	0	0
2019/05/05 11:53:00	BASE	11.98	32	17.08	31	3.5	77	-0.2	0	0	979.6	NA	0.0000		9999	2760	11160	0	0
2019/05/05 11:54:00	BASE	11.31	30	16.51	42	3.5	77	-0.2	0	0	979.6	NA	0.0000		9999	11220	0	0	0
2019/05/05 11:55:00	BASE	11.18	30	16.51	42	3.5	77	-0.1	0	0	979.6	NA	0.0000		9999	11250	0	0	0
2019/05/05 11:56:00	BASE	11.23	32	15.59	40	3.5	77	-0.1	0	0	979.6	NA	0.0000		9999	2690	11290	0	0
2019/05/05 11:57:00	BASE	10.67	31	14.25	37	3.5	78	-0.1	0	0	979.6	NA	0.0000		9999	11290	0	0	0
2019/05/05 11:58:00	BASE	9.77	29	14.25	37	3.4	78	-0.1	0	0	979.6	NA	0.0000		9999	11250	0	0	0
2019/05/05 11:59:00	BASE	9.63	29	14.25	37	3.4	78	-0.0	0	0	979.6	NA	0.0000		9999	11220	0	0	0
2019/05/05 12:00:00	BASE	9.68	27	14.25	37	3.4	79	-0.0	0	0	979.6	NA	0.0000		9999	11320	0	0	0
2019/05/05 12:01:01	BASE	9.53	29	13.99	41	3.4	79	0.0	0	0	979.6	NA	0.0000		9999	11390	0	0	0
2019/05/05 12:02:01	BASE	9.34	37	13.99	41	3.4	79	0.1	0	0	979.6	NA	0.0000		9999	11480	0	0	0
2019/05/05 12:03:01	BASE	8.74	37	13.99	41	3.4	79	0.1	0	0	979.6	NA	0.0000		9999	11520	0	0	0
2019/05/05 12:04:01	BASE	8.21	35	13.99	41	3.4	79	0.1	0	0	979.6	NA	0.0000		9999	11650	0	0	0
2019/05/05 12:05:00	BASE	8.35	38	13.99	41	3.5	78	0.0	0	0	979.6	NA	0.0000		9999	11710	0	0	0
2019/05/05 12:06:01	BASE	8.92	37	11.78	28	3.4	78	0.0	0	0	979.6	NA	0.0000		9999	11750	0	0	0
2019/05/05 12:07:00	BASE	9.23	37	11.47	26	3.4	78	0.0	0	0	979.6	NA	0.0000		9999	11750	0	0	0
2019/05/05 12:08:01	BASE	8.07	32	11.47	26	3.4	78	0.0	0	0	979.6	NA	0.0000		9999	11780	0	0	0
2019/05/05 12:09:00	BASE	7.61	37	12.14	35	3.4	78	0.0	0	0	979.7	NA	0.0000		9999	11780	0	0	0
2019/05/05 12:10:00	BASE	9.04	40	12.14	35	3.5	78	0.1	0	0	979.7	NA	0.0000		9999	11580	0	0	0
2019/05/05 12:11:00	BASE	8.32	31	12.14	35	3.5	78	0.0	0	0	979.7	NA	0.0000		9999	11450	0	0	0
2019/05/05 12:12:00	BASE	6.54	28	12.14	35	3.5	78	0.0	0	0	979.7	NA	0.0000		9999	11420	0	0	0
2019/05/05 12:13:00	BASE	5.19	39	12.14	35	3.5	78	0.0	0	0	979.7	NA	0.0000		9999	11290	0	0	0
2019/05/05 12:14:00	BASE	5.45	45	12.14	35	3.5	78	-0.0	0	0	979.7	NA	0.0000		9999	2760	11520	0	0
2019/05/05 12:15:00	BASE	6.49	44	12.14	35	3.5	78	0.0	0	0	979.7	NA	0.0000		9999	2890	11550	0	0
2019/05/05 12:16:00	BASE	5.30	48	12.14	35	3.5	78	0.0	0	0	979.7	NA	0.0000		9999	3840	11650	0	0
2019/05/05 12:17:00	BASE	4.94	63	12.14	35	3.5	78	0.0	1	0	979.6	NA	0.0000		9999	11520	0	0	0
2019/05/05 12:18:00	BASE	5.69	75	12.14	35	3.5	78	0.0	1	0	979.6	NA	0.0000		9999	10860	11520	0	0
2019/05/05 12:19:00	BASE	6.31	63	11.11	37	3.5	78	0.0	1	0	979.6	NA	0.0000		9999	10860	0	0	0
2019/05/05 12:20:00	BASE	6.14	61	9.41	39	3.5	78	0.1	1	0	979.6	NA	0.0000		9999	10860	0	0	0
2019/05/05 12:21:00	BASE	5.62	66	9.41	39	3.6	78	0.1	1	0	979.6	NA	0.0000		9999	10990	0	0	0
2019/05/05 12:22:00	BASE	5.04	75	9.41	39	3.6	78	0.1	1	0	979.6	NA	0.0000		9999	11160	0	0	0
2019/05/05 12:23:00	BASE	3.69	96	9.41	39	3.6	78	0.1	1	0	979.6	NA	0.0000		9999	11120	0	0	0
2019/05/05 12:24:00	BASE	3.42	110	9.41	39	3.6	78	0.1	1	0	979.6	NA	0.0000		9999	11020	0	0	0
2019/05/05 12:25:00	BASE	3.57	120	9.41	39	3.6	78	0.1	1	0	979.5	NA	0.0000		9999	11120	0	0	0
2019/05/05 12:26:00	BASE	1.99	107	9.41	39	3.6	78	0.1	1	0	979.5	NA	0.0000		9999	11020	0	0	0
2019/05/05 12:27:00	BASE	1.00	69	9.41	39	3.6	78	0.1	1	0	979.5	NA	0.0000		9999	11090	0	0	0
2019/05/05 12:28:01	BASE	5.77	112	12.35	130	3.6	77	0.0	1	0	979.5	NA	0.0000		9999	11320	0	0	0
2019/05/05 12:29:00	BASE	9.58	137	12.35	130	3.4	77	-0.2	1	0	979.5	NA	0.0000		9999	11390	0	0	0
2019/05/05 12:30:00	BASE	9.59	143	12.35	130	3.2	77	-0.5	1	0	979.4	NA	0.0000		9999	11420	0	0	0
2019/05/05 12:31:00	BASE	10.23	139	13.27	143	2.8	77	-0.9	1	0	979.5	NA	0.0000		9999	3310	11390	0	0
2019/05/05 12:32:00	BASE	10.88	140	13.27	143	2.4	77	-1.1	1	0	979.5	NA	0.0000		9999	11390	0	0	0
2019/05/05 12:33:00	BASE	11.42	136	14.25	130	2.1	79	-1.2	1	0	979.5	NA	0.0000		9999	3120	11420	0	0
2019/05/05 12:34:00	BASE	11.36	123	14.25	130	1.9	80	-1.2	1	0	979.5	NA	0.0000		9999	11390	0	0	0
2019/05/05 12:35:00	BASE	11.16	131	14.25	130	1.8	81	-1.1	1	0	979.4	NA	0.0000		9999	11320	0	0	0
2019/05/05 12:36:00	BASE	9.55	135	14.25	130	1.8	82	-1.0	1	0	979.6	NA	0.0000		9999	11320	0	0	0
2019/05/05 12:37:00	BASE	8.97	132	14.25	130	1.8	82	-0.9	1	0	979.5	NA	0.0000		9999	3510	11480	0	0
2019/05/05 12:38:00	BASE	10.20	139	14.25	130	1.8	83	-0.9	1	0	979.4	NA	0.0000		9999	3840	11390	0	0
2019/05/05 12:39:00	BASE	10.31	139	14.25	130	1.8	83	-0.8	1	0	979.5	NA	0.0000		9999	3710	11450	0	0
2019/05/05 12:40:00	BASE	10.21	131	14.25	130	1.8	83	-0.8	1	0	979.6	NA	0.0000		9999	3450	11650	0	0
2019/05/05 12:41:00	BASE	9.42	124	14.25	130	1.7	83	-0.8	2	0	979.7	NA	0.0000		9999	11480	0	0	0
2019/05/05 12:42:00	BASE	9.33	121	14.25	130	1.8	84	-0.7	2	0	979.6	NA	0.0000		9999	3810	11580	0	0
2019/05/05 12:43:00	BASE	12.26	118	17.08	105	1.8	84	-0.7	2	0	979.5	NA	0.0000		9999	3740	0	0	0
2019/05/05 12:44:01	BASE	13.13	122	17.08	105	1.8	84	-0.6	2	0	979.5	NA	0.0000		9999	3900	10630	0	0
2019/05/05 12:45:00	BASE	12.31	121	17.08	105	1.9	85	-0.4	2	0	979.5	NA	0.0000		9999	10630	0	0	0
2019/05/05 12:46:01	BASE	12.76	116	17.08	105	1.9	85	-0.3	2	0	979.5	NA	0.0000		9999	10700	0	0	0
2019/05/05 12:47:01	BASE	14.12	110	19.39	98	2.0	85	-0.2	2	0	979.4	NA	0.0000		9999	3250	0	0	0
2019/05/05 12:48:01	BASE	15.44	111	19.55	127	2.1	85	-0.2	2	0	979.4	NA	0.0000		9999	3220	10700	0	0
2019/05/05 12:49:00	BASE	14.88	114	19.55	127	2.1	85	-0.2	2	0	979.4	NA	0.0000		9999	3450	10700	0	0
2019/05/05 12:50:00	BASE	13.67	105	19.55	127	2.2	85	-0.1	2	0	979.3	NA	0.0000		9999	3250	4530	10660	0
2019/05/05 12:51:00	BASE	15.07	106	21.97	107	2.2	84	-0.1	2	0	979.2	NA	0.0000		9999	3280	4630	10660	0
2019/05/05 12:52:00	BASE	17.78	100	23.41	101	2.3	84	-0.1	3	0	979.1	NA	0.0000		9999	3020	0	0	0
2019/05/05 12:53:00	BASE	15.96	96	23.41	101	2.4	84	-0.1	3	0	979.2	NA	0.0000		9999	3080	10730	0	0
2019/05/05 12:54:00	BASE	12.19	115	23.41	101	2.6	83	0.0	3	0	979.2	NA	0.0000		9999	3020	0	0	0
2019/05/05 12:55:00	BASE	14.41	123	26.80	117	2.7	82	0.0	3	0	979.0	NA	0.0000		9999	2850	0	0	0
2019/05/05 12:56:01	BASE	15.75	119	26.80	117	2.9	81	0.0	3	0	979.1	NA	0.0000		9999	2850	0	0	0
2019/05/05 12:57:00	BASE	15.58	115	26.80	117	3.1	80	-0.0	3	0	979.1	NA	0.0000		9999	2990	0	0	0
2019/05/05 12:58:01	BASE	17.43	110	26.80	117	3.1	79	-0.2	3	0	979.2	NA	0.0000		9999	3020	10530	0	0
2019/05/05 12:59:00	BASE	14.58	95	26.80	117	3.1	78	-0.4	3	0	979.3	NA	0.0000		9999	2890	10430	0	0
2019/05/05 13:00:00	BASE	15.40	94	26.80	117	3.1	77	-0.6	3	0	979.2	NA	0.0000		9999	3080	10430	0	0
2019/05/05 13:01:00	BASE	18.07	109	26.80	117	2.9	76	-0.8	4	0	979.2	NA	0.0000		9999	3080	10430	0	0
2019/05/05 13:02:01	BASE	16.50	101	26.80	117	2.8	77	-0.9	4	0	979.3	NA	0.0000		9999	2990	10500	0	0
2019/05/05 13:03:00	BASE	16.07	93	26.80	117	2.8	77	-0.8	4	0	979.1	NA	0.0000		9999	10530	0	0	0
2019/05/05 13:04:00	BASE	15.58	113	26.80	117	2.8	77	-0.9	4	0	979.2	NA	0.0000		9999	10370	0	0	0
2019/05/05 13:05:00	BASE	14.34	116	22.84	106	2.8	77	-0.8	5	0	979.2	NA	0.0000		9999	10370	0	0	0
2019/05/05 13:06:00	BASE	12.85	106	22.84	106	2.9	77	-0.8	5	0	979.2	NA	0.0000		9999	10530	0	0	0
2019/05/05 13:07:00	BASE	12.57	101	22.28	101	2.9	77	-0.8	6	0	979.1	NA	0.0000		9999	10530	0	0	0
2019/05/05 13:08:01	BASE	13.11	103	22.28	101	2.9	77	-0.8	6	0	979.0	NA	0.0000		9999	10660	0	0	0
2019/05/05 13:09:00	BASE	11.54	105	22.28	101	2.9	77	-0.8	7	0	979.1	NA	0.0000		9999	10600	0	0	0
2019/05/05 13:10:00	BASE	13.10	101	20.42	101	2.9	77	-0.8	7	0	979.0	NA	0.0000		9999	10530	0	0	0
2019/05/05 13:11:00	BASE	14.56	107	19.60	133	2.9	77	-0.8	8	0	979.1	NA	0.0000		9999	10530	0	0	0
2019/05/05 13:12:01	BASE	14.48	111	19.60	133	2.9	76	-0.9	9	0	979.0	NA	0.0000		9999	10600	0	0	0
2019/05/05 13:13:00	BASE	14.65	113	19.29	109	2.9	76	-0.9	10	0	979.0	NA	0.0000		9999	10470	0	0	0
2019/05/05 13:14:01	BASE	13.38	115	19.29	109	2.9	76	-0.9	10	0	978.9	NA	0.0000		9999	10470	0	0	0
2019/05/05 13:15:00	BASE	15.72	117	20.22	114	2.8	76	-1.0	11	0	978.8	NA	0.0000		9999	10470	0	0	0
2019/05/05 13:16:01	BASE	16.41	113	20.22	114	2.7	76	-1.2	12	0	978.9	NA	0.0000		9999	10300	0	0	0
2019/05/05 13:17:00	BASE	15.53	111	20.22	114	2.6	76	-1.1	14	0	978.9	NA	0.0000		9999	10300	0	0	0
2019/05/05 13:18:01	BASE	15.59	109	20.22	114	2.6	76	-1.1	15	0	978.9	NA	0.0000		9999	10300	0	0	0
2019/05/05 13:19:00	BASE	14.94	108	20.22	114	2.6	77	-1.1	17	0	978.9	NA	0.0000		9999	10240	0	0	0
2019/05/05 13:20:00	BASE	14.48	112	20.22	114	2.6	77	-1.0	19	0	978.9	NA	0.0000		9999	10040	0	0	0
2019/05/05 13:21:00	BASE	13.40	110	20.22	114	2.6	77	-1.1	20	0	979.0	NA	0.0000		9999	10110	0	0	0
2019/05/05 13:22:00	BASE	12.84	108	20.22	114	2.5	77	-1.1	22	0	978.9	NA	0.0000		9999	10070	0	0	0
2019/05/05 13:23:00	BASE	12.51	103	20.22	114	2.4	77	-1.2	24	0	978.9	NA	0.0000		9999	10170	0	0	0
2019/05/05 13:24:00	BASE	12.37	96	20.22	114	2.3	78	-1.2	25	0	978.9	NA	0.0000		9999	10110	0	0	0
2019/05/05 13:25:00	BASE	11.76	85	19.24	105	2.3	78	-1.1	26	0	978.9	NA	0.0000		9999	10340	0	0	0
2019/05/05 13:26:00	BASE	11.58	86	18.98	91	2.3	79	-1.0	27	0	978.9	NA	0.0000		9999	10240	0	0	0
2019/05/05 13:27:00	BASE	12.68	96	18.98	91	2.3	79	-1.0	28	0	978.9	NA	0.0000		9999	10170	0	0	0
2019/05/05 13:28:00	BASE	12.32	98	18.83	124	2.4	79	-0.9	29	0	978.9	NA	0.0000		9999	10140	0	0	0
2019/05/05 13:29:00	BASE	11.60	99	16.20	124	2.4	79	-0.9	30	0	978.9	NA	0.0000		9999	10340	0	0	0
2019/05/05 13:30:00	BASE	11.34	94	15.48	106	2.4	79	-0.9	30	0	978.9	NA	0.0000		9999	10340	0	0	0
2019/05/05 13:31:00	BASE	10.71	91	15.48	106	2.3	79	-0.9	31	0	978.8	NA	0.0000		9999	9880	0	0	0
2019/05/05 13:32:01	BASE	10.41	89	15.48	106	2.3	79	-0.9	31	0	978.8	NA	0.0000		9999	9970	0	0	0
2019/05/05 13:33:00	BASE	9.65	87	15.48	106	2.3	80	-0.9	31	0	978.8	NA	0.0000		9999	9910	10430	0	0
2019/05/05 13:34:01	BASE	9.93	85	15.02	99	2.3	80	-0.8	31	0	978.7	NA	0.0000		9999	10140	0	0	0
2019/05/05 13:35:00	BASE	10.69	84	15.02	99	2.3	80	-0.7	30	0	978.7	NA	0.0000		9999	9650	10140	0	0
2019/05/05 13:36:01	BASE	10.12	82	14.97	101	2.5	81	-0.5	30	0	978.7	NA	0.0000		9999	10010	0	0	0
2019/05/05 13:37:00	BASE	9.22	88	13.68	83	2.6	81	-0.4	31	0	978.7	NA	0.0000		9999	10110	0	0	0
2019/05/05 13:38:01	BASE	9.71	94	13.68	83	2.7	80	-0.4	31	0	978.6	NA	0.0000		9999	9880	0	0	0
2019/05/05 13:39:00	BASE	11.78	93	14.35	83	2.7	80	-0.4	31	0	978.5	NA	0.0000		9999	9680	0	0	0
2019/05/05 13:40:01	BASE	13.40	92	15.48	101	2.8	80	-0.4	31	0	978.5	NA	0.0000		9999	9710	0	0	0
2019/05/05 13:41:00	BASE	14.06	99	16.77	106	2.8	79	-0.4	32	0	978.4	NA	0.0000		9999	9780	0	0	0
2019/05/05 13:42:01	BASE	14.47	100	16.77	106	2.8	79	-0.4	33	0	978.4	NA	0.0000		9999	9780	0	0	0
2019/05/05 13:43:00	BASE	15.42	95	19.65	96	2.9	79	-0.5	34	0	978.4	NA	0.0000		9999	9780	0	0	0
2019/05/05 13:44:00	BASE	15.87	91	19.65	96	2.9	79	-0.5	35	0	978.4	NA	0.0000		9999	9740	0	0	0
2019/05/05 13:45:00	BASE	15.50	84	19.65	96	2.9	78	-0.5	38	0	978.4	NA	0.0000		9999	9680	0	0	0
2019/05/05 13:46:01	BASE	15.62	75	20.53	69	2.9	78	-0.5	40	0	978.4	NA	0.0000		9999	9580	0	0	0
2019/05/05 13:47:00	BASE	15.20	73	20.53	69	3.0	78	-0.5	41	0	978.4	NA	0.0000		9999	9740	0	0	0
2019/05/05 13:48:01	BASE	15.22	74	20.53	69	3.0	78	-0.4	42	0	978.3	NA	0.0000		9999	9810	0	0	0
2019/05/05 13:49:00	BASE	17.28	74	21.45	71	3.1	78	-0.3	43	0	978.2	NA	0.0000		9999	9940	0	0	0
2019/05/05 13:50:00	BASE	18.91	75	22.74	72	3.2	78	-0.2	44	0	978.2	NA	0.0000		9999	9910	0	0	0
2019/05/05 13:51:00	BASE	20.73	77	25.26	69	3.3	78	-0.2	43	0	978.1	NA	0.0000		9999	9880	0	0	0
2019/05/05 13:52:00	BASE	22.20	79	26.55	76	3.4	78	-0.1	43	0	978.1	NA	0.0000		9999	9880	0	0	0
2019/05/05 13:53:00	BASE	22.40	85	26.55	76	3.5	78	-0.0	41	0	978.2	NA	0.0000		9999	9970	0	0	0
2019/05/05 13:54:01	BASE	20.35	99	26.55	76	3.5	77	-0.1	40	0	978.3	NA	0.0000		9999	10070	0	0	0
2019/05/05 13:55:00	BASE	17.69	112	26.55	76	3.3	77	-0.4	40	0	978.3	NA	0.0000		9999	10040	0	0	0
2019/05/05 13:56:01	BASE	16.98	113	26.55	76	3.1	77	-0.6	39	0	978.3	NA	0.0000		9999	10010	0	0	0
2019/05/05 13:57:00	BASE	16.73	115	26.55	76	2.8	77	-0.9	39	0	978.3	NA	0.0000		9999	10040	0	0	0
2019/05/05 13:58:01	BASE	16.25	119	26.55	76	2.5	77	-1.1	41	0	978.3	NA	0.0000		9999	10040	0	0	0
2019/05/05 13:59:00	BASE	16.11	119	26.55	76	2.2	78	-1.3	43	0	978.1	NA	0.0000		9999	9910	0	0	0
2019/05/05 14:00:01	BASE	16.90	123	26.55	76	2.0	79	-1.3	44	0	978.1	NA	0.0000		9999	9910	0	0	0
2019/05/05 14:01:00	BASE	17.38	126	26.55	76	2.0	79	-1.3	46	0	978.1	NA	0.0000		9999	9940	0	0	0
2019/05/05 14:02:01	BASE	17.19	121	25.67	89	1.9	80	-1.2	46	0	978.2	NA	0.0000		9999	9940	0	0	0
2019/05/05 14:03:00	BASE	16.47	114	20.94	127	1.9	80	-1.1	47	0	978.3	NA	0.0000		9999	10010	0	0	0
2019/05/05 14:04:01	BASE	15.61	114	20.94	127	1.9	81	-1.1	49	0	978.3	NA	0.0000		9999	9810	0	0	0
2019/05/05 14:05:00	BASE	14.79	116	20.94	127	2.0	81	-1.0	51	0	978.3	NA	0.0000		9999	9810	0	0	0
2019/05/05 14:06:01	BASE	14.02	116	20.94	127	2.0	81	-0.9	52	0	978.4	NA	0.0000		9999	9420	0	0	0
2019/05/05 14:07:00	BASE	12.96	115	20.94	127	2.1	81	-0.9	54	0	978.4	NA	0.0000		9999	9350	9810	0	0
2019/05/05 14:08:01	BASE	11.85	113	20.94	127	2.1	80	-0.9	54	0	978.5	NA	0.0000		9999	9350	0	0	0
2019/05/05 14:09:00	BASE	11.54	108	20.94	127	2.1	80	-0.9	55	0	978.4	NA	0.0000		9999	9220	0	0	0
2019/05/05 14:10:00	BASE	11.15	101	19.96	122	2.1	80	-0.9	54	0	978.4	NA	0.0000		9999	9190	0	0	0
2019/05/05 14:11:00	BASE	11.77	95	18.47	117	2.2	81	-0.7	53	0	978.4	NA	0.0000		9999	9380	0	0	0
2019/05/05 14:12:01	BASE	15.26	90	19.14	87	2.4	81	-0.5	52	0	978.3	NA	0.0000		9999	9290	0	0	0
2019/05/05 14:13:00	BASE	17.74	89	20.73	103	2.7	82	-0.1	52	0	978.3	NA	0.0000		9999	9290	0	0	0
2019/05/05 14:14:01	BASE	16.89	101	20.73	103	3.0	81	0.1	51	0	978.3	NA	0.0000		9999	9320	0	0	0
2019/05/05 14:15:00	BASE	14.70	125	20.73	103	3.2	81	0.2	51	0	978.4	NA	0.0000		9999	9220	0	0	0
2019/05/05 14:16:01	BASE	13.51	132	20.73	103	3.1	80	-0.0	52	0	978.3	NA	0.0000		9999	9090	0	0	0
2019/05/05 14:17:00	BASE	12.62	126	20.73	103	2.9	79	-0.3	53	0	978.3	NA	0.0000		9999	9120	0	0	0
2019/05/05 14:18:00	BASE	11.86	128	20.73	103	2.7	79	-0.6	53	0	978.2	NA	0.0000		9999	9120	0	0	0
2019/05/05 14:19:00	BASE	12.51	130	20.73	103	2.4	79	-0.9	52	0	978.2	NA	0.0000		9999	9190	0	0	0
2019/05/05 14:20:00	BASE	13.73	133	20.73	103	2.2	79	-1.0	51	0	978.1	NA	0.0000		9999	8630	0	0	0
2019/05/05 14:21:00	BASE	13.27	137	20.73	103	2.2	80	-0.9	50	0	978.2	NA	0.0000		9999	8240	0	0	0
2019/05/05 14:22:01	BASE	12.27	137	20.73	103	2.2	80	-1.0	50	0	978.0	NA	0.0000		9999	8170	0	0	0
2019/05/05 14:23:01	BASE	13.15	137	20.47	82	2.1	80	-1.0	50	0	978.0	NA	0.0000		9999	8010	0	0	0
2019/05/05 14:24:01	BASE	14.09	132	17.54	144	2.0	80	-1.0	51	0	978.0	NA	0.0000		9999	8040	0	0	0
2019/05/05 14:25:00	BASE	13.05	121	17.54	144	2.0	81	-1.0	52	0	978.1	NA	0.0000		9999	7840	0	0	0
2019/05/05 14:26:00	BASE	11.41	115	17.54	144	2.0	81	-1.0	53	0	978.2	NA	0.0000		9999	7550	0	0	0
2019/05/05 14:27:00	BASE	10.83	116	17.54	144	2.1	82	-0.7	55	0	978.1	NA	0.0000		9999	7680	0	0	0
2019/05/05 14:28:00	BASE	10.56	115	17.54	144	2.3	81	-0.6	56	0	978.1	NA	0.0000		9999	7870	0	0	0
2019/05/05 14:29:00	BASE	11.97	104	17.54	144	2.5	81	-0.4	57	0	978.1	NA	0.0000		9999	7940	0	0	0
2019/05/05 14:30:00	BASE	11.96	98	17.13	134	2.7	81	-0.3	58	0	978.0	NA	0.0000		9999	7810	0	0	0
2019/05/05 14:31:00	BASE	11.26	91	17.13	134	2.9	80	-0.2	59	0	978.1	NA	0.0000		9999	7910	0	0	0
2019/05/05 14:32:00	BASE	12.71	77	17.13	134	3.1	80	-0.1	60	0	978.0	NA	0.0000		9999	7810	0	0	0
2019/05/05 14:33:00	BASE	15.28	71	19.03	79	3.3	79	0.0	61	0	977.9	NA	0.0000		9999	7610	0	0	0
2019/05/05 14:34:01	BASE	17.67	74	23.61	67	3.4	79	0.1	62	0	977.8	NA	0.0000		9999	7450	0	0	0
2019/05/05 14:35:01	BASE	19.10	75	25.67	72	3.5	79	0.2	63	0	977.8	NA	0.0000		9999	7250	0	0	0
2019/05/05 14:36:01	BASE	20.09	71	25.67	72	3.6	79	0.2	64	0	977.8	NA	0.0000		9999	7250	0	0	0
2019/05/05 14:37:00	BASE	20.75	69	25.67	72	3.7	78	0.2	65	0	977.7	NA	0.0000		9999	7190	0	0	0
2019/05/05 14:38:01	BASE	21.11	66	25.67	72	3.7	78	0.2	66	0	977.7	NA	0.0000		9999	7150	7550	0	0
2019/05/05 14:39:00	BASE	21.83	63	25.67	53	3.8	77	0.2	67	0	977.6	NA	0.0000		9999	7840	0	0	0
2019/05/05 14:40:00	BASE	22.64	62	25.88	67	3.8	77	0.2	66	0	977.6	NA	0.0000		9999	8040	0	0	0
2019/05/05 14:41:00	BASE	22.45	60	25.88	67	3.8	77	0.1	66	0	977.6	NA	0.0000		9999	8070	0	0	0
2019/05/05 14:42:01	BASE	20.75	59	25.88	67	3.8	77	0.1	66	0	977.7	NA	0.0000		9999	8140	0	0	0
2019/05/05 14:43:00	BASE	20.56	59	25.88	67	3.7	77	0.1	66	0	977.6	NA	0.0000		9999	8140	0	0	0
2019/05/05 14:44:01	BASE	20.74	59	25.88	67	3.7	77	0.1	67	0	977.7	NA	0.0000		9999	8200	0	0	0
2019/05/05 14:45:01	BASE	20.56	58	26.44	51	3.7	78	0.1	67	0	977.7	NA	0.0000		9999	8370	0	0	0
2019/05/05 14:46:01	BASE	21.67	55	26.44	51	3.7	78	0.2	68	0	977.6	NA	0.0000		9999	8460	0	0	0
2019/05/05 14:47:00	BASE	22.03	54	26.44	51	3.7	78	0.2	68	0	977.6	NA	0.0000		9999	8600	0	0	0
2019/05/05 14:48:01	BASE	21.54	55	26.44	51	3.7	78	0.2	68	0	977.6	NA	0.0000		9999	8690	0	0	0
2019/05/05 14:49:01	BASE	20.81	57	26.44	51	3.7	78	0.2	68	0	977.6	NA	0.0000		9999	8660	0	0	0
2019/05/05 14:50:01	BASE	19.99	59	26.44	51	3.7	78	0.2	68	0	977.7	NA	0.0000		9999	8500	0	0	0
2019/05/05 14:51:00	BASE	19.17	60	26.44	51	3.7	78	0.2	68	0	977.7	NA	0.0000		9999	8460	0	0	0
2019/05/05 14:52:01	BASE	19.93	58	26.44	51	3.7	78	0.3	69	0	977.7	NA	0.0000		9999	8460	0	0	0
2019/05/05 14:53:00	BASE	20.09	56	26.44	51	3.7	78	0.3	71	0	977.7	NA	0.0000		9999	8370	0	0	0
2019/05/05 14:54:01	BASE	20.63	55	26.44	51	3.7	78	0.3	74	0	977.6	NA	0.0000		9999	8400	0	0	0
2019/05/05 14:55:01	BASE	20.46	54	25.52	44	3.7	78	0.3	78	0	977.7	NA	0.0000		9999	8430	0	0	0
2019/05/05 14:56:00	BASE	20.19	55	25.52	44	3.8	78	0.3	80	0	977.7	NA	0.0000		9999	8330	0	0	0
2019/05/05 14:57:00	BASE	21.88	55	25.52	44	3.8	78	0.3	82	0	977.7	NA	0.0000		9999	8400	0	0	0
2019/05/05 14:58:01	BASE	22.78	56	25.93	57	3.8	78	0.3	85	0	977.6	NA	0.0000		9999	8400	0	0	0
2019/05/05 14:59:00	BASE	21.85	55	25.93	57	3.8	78	0.3	89	0	977.7	NA	0.0000		9999	8500	0	0	0
2019/05/05 15:00:00	BASE	21.83	51	26.60	46	3.8	78	0.3	92	0	977.7	NA	0.0000		9999	8500	9480	0	0
2019/05/05 15:01:00	BASE	22.17	51	26.60	46	3.9	77	0.3	96	0	977.7	NA	0.0000		9999	9450	0	0	0
2019/05/05 15:02:01	BASE	21.93	52	26.60	46	3.9	77	0.3	99	0	977.7	NA	0.0000		9999	8630	9320	0	0
2019/05/05 15:03:00	BASE	22.00	51	26.60	46	3.9	77	0.2	100	0	977.7	NA	0.0000		9999	8630	0	0	0
2019/05/05 15:04:01	BASE	21.79	53	26.60	46	3.9	77	0.2	99	0	977.7	NA	0.0000		9999	8500	0	0	0
2019/05/05 15:05:00	BASE	21.08	54	26.60	46	3.9	77	0.1	98	0	977.7	NA	0.0000		9999	8500	0	0	0
2019/05/05 15:06:01	BASE	19.75	53	26.60	46	3.9	76	0.1	96	0	977.7	NA	0.0000		9999	8600	0	0	0
2019/05/05 15:07:00	BASE	18.71	54	26.60	46	3.8	76	0.1	96	0	977.8	NA	0.0000		9999	8630	0	0	0
2019/05/05 15:08:00	BASE	17.97	55	26.60	46	3.8	76	0.1	95	0	977.7	NA	0.0000		9999	8860	0	0	0
2019/05/05 15:09:00	BASE	18.05	51	26.60	46	3.8	77	0.1	93	0	977.7	NA	0.0000		9999	8960	0	0	0
2019/05/05 15:10:01	BASE	18.66	46	26.24	52	3.8	77	0.2	91	0	977.7	NA	0.0000		9999	8890	0	0	0
2019/05/05 15:11:00	BASE	20.18	44	27.11	54	3.8	78	0.2	90	0	977.6	NA	0.0000		9999	8920	20380	0	0
2019/05/05 15:12:01	BASE	20.49	45	27.11	54	3.8	78	0.3	90	0	977.7	NA	0.0000		9999	8990	0	0	0
2019/05/05 15:13:00	BASE	19.96	46	27.11	54	3.8	78	0.3	88	0	977.6	NA	0.0000	UP	9999	9020	0	0	0
2019/05/05 15:14:01	BASE	20.68	44	27.11	54	3.8	78	0.3	85	0	977.6	NA	0.0000	UP	9999	8760	0	0	0
2019/05/05 15:15:00	BASE	21.88	44	27.11	54	3.7	79	0.3	84	0	977.6	NA	0.0000	UP	9999	8890	0	0	0
2019/05/05 15:16:01	BASE	22.70	46	28.60	46	3.7	79	0.4	81	0	977.6	NA	0.0000	UP	9999	9150	0	0	0
2019/05/05 15:17:00	BASE	23.19	42	28.60	46	3.7	79	0.4	79	0	977.6	NA	0.0000	UP	9999	9220	0	0	0
2019/05/05 15:18:01	BASE	22.74	42	28.60	46	3.7	80	0.5	78	0	977.6	NA	0.0000	UP	9999	9150	0	0	0
2019/05/05 15:19:00	BASE	23.06	47	28.60	46	3.7	80	0.5	77	0	977.6	NA	0.0000	UP	9999	9120	0	0	0
2019/05/05 15:20:00	BASE	22.28	46	28.60	46	3.7	80	0.5	75	0	977.7	NA	0.0000	UP	9999	9320	0	0	0
2019/05/05 15:21:00	BASE	20.88	47	28.60	46	3.7	80	0.6	76	0	977.7	NA	0.0000	UP	9999	8860	0	0	0
2019/05/05 15:22:01	BASE	22.04	48	28.60	46	3.6	80	0.6	77	0	977.7	NA	0.0000	UP	9999	8920	0	0	0
2019/05/05 15:23:00	BASE	20.87	44	28.60	46	3.6	81	0.6	78	0	977.8	NA	0.0000	UP	9999	9090	0	0	0
2019/05/05 15:24:01	BASE	19.15	45	28.60	46	3.6	81	0.6	80	0	977.8	NA	0.0000	UP	9999	9060	0	0	0
2019/05/05 15:25:01	BASE	19.65	51	28.60	46	3.6	81	0.7	82	0	977.8	NA	0.0000	UP	9999	9190	0	0	0
2019/05/05 15:26:01	BASE	20.86	51	28.40	52	3.6	81	0.7	82	0	977.7	NA	0.0000	UP	9999	9380	0	0	0
2019/05/05 15:27:00	BASE	20.29	51	28.40	52	3.7	81	0.7	83	0	977.8	NA	0.0000	UP	9999	9220	9780	0	0
2019/05/05 15:28:01	BASE	18.62	52	28.40	52	3.7	81	0.7	84	0	977.8	NA	0.0000	UP	9999	9220	0	0	0
2019/05/05 15:29:00	BASE	19.78	50	28.40	52	3.7	81	0.7	87	0	977.8	NA	0.0000	UP	9999	9290	10400	0	0
2019/05/05 15:30:01	BASE	19.00	51	28.40	52	3.7	81	0.7	90	0	977.8	NA	0.0000	UP	9999	9190	0	0	0
2019/05/05 15:31:00	BASE	17.44	51	28.40	52	3.7	81	0.7	94	0	977.8	NA	0.0000	UP	9999	9090	9940	0	0
2019/05/05 15:32:01	BASE	18.60	50	25.67	44	3.7	81	0.7	96	0	977.9	NA	0.0000	UP	9999	9090	10200	0	0
2019/05/05 15:33:00	BASE	19.98	50	25.67	44	3.7	81	0.8	97	0	977.8	NA	0.0000	UP	9999	9710	0	0	0
2019/05/05 15:34:01	BASE	20.34	48	25.67	44	3.7	81	0.8	98	0	977.9	NA	0.0000	UP	9999	9740	0	0	0
2019/05/05 15:35:00	BASE	20.14	47	26.80	57	3.8	81	0.8	98	0	977.9	NA	0.0000	UP	9999	10930	0	0	0
2019/05/05 15:36:01	BASE	20.68	46	26.80	57	3.8	81	0.8	100	0	977.8	NA	0.0000	UP	9999	10730	0	0	0
2019/05/05 15:37:00	BASE	19.72	48	26.80	57	3.8	81	0.8	98	0	977.9	NA	0.0000	UP	9999	10560	0	0	0
2019/05/05 15:38:01	BASE	19.89	47	26.80	57	3.8	81	0.8	98	0	977.9	NA	0.0000	UP	9999	10040	0	0	0
2019/05/05 15:39:01	BASE	21.35	44	26.80	57	3.9	81	0.8	98	0	977.9	NA	0.0000	UP	9999	9880	0	0	0
2019/05/05 15:40:00	BASE	21.38	46	26.80	57	3.9	81	0.8	98	0	977.9	NA	0.0000	UP	9999	10070	11220	0	0
2019/05/05 15:41:00	BASE	20.68	48	26.80	57	3.9	81	0.8	97	0	977.9	NA	0.0000	UP	9999	9290	9910	0	0
2019/05/05 15:42:01	BASE	20.21	48	26.80	57	3.9	81	0.9	95	0	977.9	NA	0.0000	UP	9999	9780	0	0	0
2019/05/05 15:43:00	BASE	19.11	49	26.80	57	3.9	81	0.9	93	0	977.9	NA	0.0000	UP	9999	10500	0	0	0
2019/05/05 15:44:00	BASE	17.98	51	26.80	57	3.8	81	0.9	91	0	978.0	NA	0.0000	UP	9999	9290	10270	0	0
2019/05/05 15:45:00	BASE	19.07	53	25.05	48	3.8	81	0.9	88	0	977.9	NA	0.0000	UP	9999	0	0	0	2230
2019/05/05 15:46:01	BASE	20.99	48	25.05	48	3.8	81	0.8	85	0	977.9	NA	0.0000	UP	9999	10560	0	0	0
2019/05/05 15:47:00	BASE	20.99	47	25.05	48	3.8	81	0.8	84	0	978.0	NA	0.0000	UP	9999	0	0	0	4820
2019/05/05 15:48:01	BASE	20.29	47	25.05	48	3.8	81	0.9	81	0	977.9	NA	0.0000	UP	9999	0	0	0	4690
2019/05/05 15:49:00	BASE	20.04	43	25.05	48	3.8	81	0.9	79	0	977.9	NA	0.0000	UP	9999	3640	0	0	0
2019/05/05 15:50:01	BASE	18.48	42	24.95	32	3.8	82	0.9	82	0	978.0	NA	0.0000	UP	9999	0	0	0	4430
2019/05/05 15:51:00	BASE	17.75	43	24.95	32	3.8	82	1.0	83	0	977.9	NA	0.0000	UP	9999	2690	0	0	0
2019/05/05 15:52:01	BASE	17.41	47	24.95	32	3.8	82	1.0	81	0	977.9	NA	0.0000	UP	9999	11020	0	0	0
2019/05/05 15:53:00	BASE	18.61	45	25.00	52	3.7	83	1.0	79	0	977.8	NA	0.0000	UP	9999	2300	0	0	0
2019/05/05 15:54:01	BASE	19.38	41	25.00	52	3.7	83	1.1	81	0	977.9	NA	0.0000	UP	9999	3020	0	0	0
2019/05/05 15:55:00	BASE	18.87	40	25.26	54	3.7	83	1.1	81	0	977.8	NA	0.0000	UP	9999	0	0	0	3410
2019/05/05 15:56:01	BASE	19.62	41	25.26	54	3.7	83	1.1	82	0	977.7	NA	0.0000	UP	9999	2430	0	0	0
2019/05/05 15:57:00	BASE	19.46	42	25.26	54	3.8	83	1.1	85	0	977.7	NA	0.0000	UP	9999	0	0	0	3940
2019/05/05 15:58:01	BASE	19.34	36	25.41	35	3.8	83	1.1	87	0	977.7	NA	0.0000	UP	9999	0	0	0	4330
2019/05/05 15:59:00	BASE	18.63	35	25.41	35	3.8	83	1.2	88	0	977.7	NA	0.0000	UP	9999	2260	0	0	0
2019/05/05 16:00:00	BASE	19.10	36	25.41	35	3.8	83	1.2	87	0	977.6	NA	0.0000	UP	9999	2850	0	0	0
2019/05/05 16:01:00	BASE	20.98	37	25.41	35	3.8	83	1.2	84	0	977.6	NA	0.0000	UP	9999	2560	0	0	0
2019/05/05 16:02:01	BASE	20.38	41	25.41	35	3.9	83	1.2	82	0	977.7	NA	0.0000	UP	9999	0	0	0	360
2019/05/05 16:03:00	BASE	18.50	43	25.41	35	3.9	82	1.2	78	0	977.8	NA	0.0000	UP	9999	0	0	0	3450
2019/05/05 16:04:00	BASE	18.24	45	25.41	35	3.9	82	1.2	77	0	977.8	NA	0.0000	UP	9999	0	0	0	3180
2019/05/05 16:05:00	BASE	20.00	46	25.41	35	3.9	82	1.1	77	0	977.7	NA	0.0000	-RA	9000	0	0	0	2660
2019/05/05 16:06:01	BASE	20.61	48	25.41	35	3.9	82	1.1	79	0	977.8	NA	0.0000	-RA	9000	0	0	0	2890
2019/05/05 16:07:01	BASE	19.46	49	25.41	35	3.9	82	1.1	78	0	977.9	NA	0.0000	-RA	9000	0	0	0	3580
2019/05/05 16:08:01	BASE	18.79	50	24.64	37	3.9	82	1.1	75	0	977.8	NA	0.0000	-RA	9999	0	0	0	3120
2019/05/05 16:09:01	BASE	17.87	53	24.64	37	3.9	82	1.1	76	0	977.9	NA	0.0000	-RA	9999	0	0	0	2920
2019/05/05 16:10:00	BASE	17.29	54	24.64	37	3.9	82	1.1	80	0	977.9	NA	0.0000	-RA	9999	0	0	0	2620
2019/05/05 16:11:00	BASE	17.46	54	23.66	46	3.8	82	1.0	82	0	977.9	NA	0.0000	-RA	9999	0	0	0	3080
2019/05/05 16:12:01	BASE	17.56	56	23.66	46	3.8	82	1.0	86	0	977.9	NA	0.0000	-RA	9999	0	0	0	3120
2019/05/05 16:13:00	BASE	17.62	56	23.66	46	3.8	82	1.0	88	0	978.0	NA	0.0000	-RA	9999	0	0	0	4130
2019/05/05 16:14:01	BASE	17.46	55	23.66	46	3.8	82	1.0	88	0	978.0	NA	0.0000	-RA	9999	0	0	0	4000
2019/05/05 16:15:01	BASE	17.21	53	23.66	46	3.8	82	1.0	90	0	978.0	NA	0.0000	-RA	9999	0	0	0	3610
2019/05/05 16:16:01	BASE	16.98	51	21.61	54	3.8	82	0.9	94	0	977.9	NA	0.0000	-RA	9999	0	0	0	2560
2019/05/05 16:17:00	BASE	16.76	51	21.61	54	3.8	81	0.9	96	0	977.9	NA	0.0000	-RA	9999	0	0	0	2130
2019/05/05 16:18:01	BASE	17.19	50	21.61	54	3.7	81	0.8	96	0	977.9	NA	0.0000	-RA	9999	0	0	0	4170
2019/05/05 16:19:00	BASE	18.74	49	24.54	41	3.7	81	0.8	94	0	977.9	NA	0.0000	-RA	9999	0	0	0	4560
2019/05/05 16:20:01	BASE	18.31	51	24.54	41	3.6	82	0.8	96	0	977.9	NA	0.0000	-RA	9999	0	0	0	4040
2019/05/05 16:21:01	BASE	17.83	49	24.54	41	3.6	82	0.8	96	0	977.8	NA	0.0000	-RA	9999	0	0	0	4040
2019/05/05 16:22:01	BASE	19.67	46	27.01	48	3.6	82	0.8	96	0	977.7	NA	0.0000	-RA	9999	0	0	0	3740
2019/05/05 16:23:00	BASE	21.15	47	27.01	48	3.5	82	0.8	97	0	977.7	NA	0.0000	-RA	9999	0	0	0	3610
2019/05/05 16:24:01	BASE	22.52	45	27.11	40	3.5	83	0.8	97	0	977.6	NA	0.0000	-RA	9999	0	0	0	2330
2019/05/05 16:25:01	BASE	22.93	43	27.11	40	3.5	83	0.8	99	0	977.6	NA	0.0000	-RA	9999	1900	0	0	0
2019/05/05 16:26:01	BASE	20.74	43	27.11	40	3.4	83	0.8	101	0	977.7	NA	0.0000	-RA	9999	2030	0	0	0
2019/05/05 16:27:01	BASE	19.30	43	27.11	40	3.4	83	0.8	102	0	977.6	NA	0.0000	-RA	9999	1870	0	0	0
2019/05/05 16:28:01	BASE	20.39	43	27.11	40	3.4	83	0.8	103	0	977.6	NA	0.0000	-RA	9999	2000	0	0	0
2019/05/05 16:29:00	BASE	21.19	43	27.11	40	3.4	83	0.8	105	0	977.6	NA	0.0000	-RA	9999	2000	0	0	0
2019/05/05 16:30:01	BASE	21.89	44	27.11	40	3.3	84	0.8	106	0	977.5	NA	0.0000	-RA	9999	0	0	0	330
2019/05/05 16:31:01	BASE	23.20	42	29.27	37	3.3	84	0.9	107	0	977.4	NA	0.0000	-RA	9999	0	0	0	4130
2019/05/05 16:32:01	BASE	23.39	40	29.27	37	3.4	84	0.9	110	0	977.4	NA	0.0000	-RA	9999	1770	0	0	0
2019/05/05 16:33:00	BASE	22.54	42	29.27	37	3.4	84	0.9	114	0	977.5	NA	0.0000	-RA	9999	0	0	0	0
2019/05/05 16:34:01	BASE	21.75	39	29.27	37	3.4	84	1.0	116	0	977.4	NA	0.0000	-RA	9999	0	0	0	3280
2019/05/05 16:35:01	BASE	20.78	39	29.27	37	3.5	84	1.0	120	0	977.4	NA	0.0000	-RA	9999	0	0	0	3670
2019/05/05 16:36:00	BASE	20.03	41	29.27	37	3.5	84	1.0	126	0	977.4	NA	0.0000	-RA	9999	1800	0	0	0
2019/05/05 16:37:00	BASE	21.39	42	29.27	37	3.5	84	1.0	130	0	977.4	NA	0.0000	-RA	9999	0	0	0	2590
2019/05/05 16:38:00	BASE	21.66	42	29.27	37	3.5	84	1.1	133	0	977.4	NA	0.0000	-RA	9999	0	0	0	2560
2019/05/05 16:39:00	BASE	21.43	41	29.27	37	3.5	84	1.1	139	0	977.3	NA	0.0000	-RA	9999	0	0	0	2170
2019/05/05 16:40:00	BASE	22.45	43	29.27	37	3.6	84	1.1	144	0	977.3	NA	0.0000	-RA	9999	0	0	0	2400
2019/05/05 16:41:00	BASE	22.87	44	29.07	41	3.6	84	1.1	148	0	977.3	NA	0.0000	-RA	9999	0	0	0	2660
2019/05/05 16:42:00	BASE	22.96	45	29.07	41	3.6	84	1.1	149	0	977.3	NA	0.0000	-RA	9999	0	0	0	2760
2019/05/05 16:43:00	BASE	23.18	43	29.07	41	3.6	84	1.1	148	0	977.3	NA	0.0000	-RA	9999	0	0	0	300
2019/05/05 16:44:00	BASE	22.28	40	29.07	41	3.7	83	1.1	145	0	977.3	NA	0.0000	-RA	9999	0	0	0	0
2019/05/05 16:45:00	BASE	20.95	39	29.07	41	3.7	83	1.1	141	0	977.4	NA	0.0000	-RA	9999	1640	0	0	0
2019/05/05 16:46:00	BASE	22.15	41	29.07	41	3.7	83	1.1	138	0	977.4	NA	0.0000	-RA	9999	1870	0	0	0
2019/05/05 16:47:00	BASE	22.90	42	29.07	41	3.7	83	1.1	133	0	977.4	NA	0.0000	-RA	9999	2070	0	0	0
2019/05/05 16:48:00	BASE	22.95	42	29.07	41	3.7	83	1.1	131	0	977.3	NA	0.0000	-RA	9999	0	0	0	2620
2019/05/05 16:49:00	BASE	23.83	41	30.40	37	3.8	83	1.1	128	0	977.3	NA	0.0000	-RA	9999	0	0	0	2760
2019/05/05 16:50:00	BASE	22.73	39	30.40	37	3.8	83	1.1	124	0	977.5	NA	0.0000	-RA	9999	22840	0	0	0
2019/05/05 16:51:00	BASE	21.35	38	30.40	37	3.8	83	1.1	120	0	977.5	NA	0.0000	-RA	9999	0	0	0	2620
2019/05/05 16:52:00	BASE	21.35	40	30.40	37	3.8	82	1.1	119	0	977.5	NA	0.0000	-RA	9999	0	0	0	2720
2019/05/05 16:53:00	BASE	21.22	40	30.40	37	3.8	82	1.0	117	0	977.5	NA	0.0000	-RA	9999	0	0	0	2790
2019/05/05 16:54:00	BASE	19.32	39	30.40	37	3.7	82	1.0	116	0	977.6	NA	0.0000	-RA	9999	0	0	0	2790
2019/05/05 16:55:00	BASE	16.73	38	30.40	37	3.7	82	1.0	114	0	977.7	NA	0.0000	-RA	9000	0	0	0	2660
2019/05/05 16:56:00	BASE	15.89	36	30.40	37	3.7	82	0.9	112	0	977.7	NA	0.0000	-RA	9000	0	0	0	2720
2019/05/05 16:57:00	BASE	15.25	34	30.40	37	3.6	83	0.9	110	0	977.7	NA	0.0000	-RA	9999	0	0	0	2950
2019/05/05 16:58:00	BASE	17.16	36	30.40	37	3.5	83	0.9	109	0	977.6	NA	0.0000	-RA	9999	0	0	0	2990
2019/05/05 16:59:00	BASE	19.45	42	25.67	32	3.5	84	1.0	109	0	977.6	NA	0.0000	-RA	9999	0	0	0	3080
2019/05/05 17:00:00	BASE	18.59	43	25.67	32	3.5	84	1.0	109	0	977.7	NA	0.0000	-RA	9999	0	0	0	3020
2019/05/05 17:01:00	BASE	17.64	39	25.00	33	3.4	84	1.0	108	0	977.7	NA	0.0000	-RA	9999	0	0	0	3080
2019/05/05 17:02:00	BASE	17.94	38	24.74	50	3.4	84	1.0	108	0	977.7	NA	0.0000	-RA	9999	0	0	0	2820
2019/05/05 17:03:00	BASE	18.73	38	24.74	50	3.4	84	1.0	107	0	977.6	NA	0.0000	-RA	9999	0	0	0	2620
2019/05/05 17:04:00	BASE	19.21	35	25.57	28	3.4	84	1.0	105	0	977.6	NA	0.0000	-RA	9999	0	0	0	2760
2019/05/05 17:05:00	BASE	19.58	33	25.57	28	3.3	85	1.0	103	0	977.6	NA	0.0000	-RA	9999	0	0	0	2720
2019/05/05 17:06:00	BASE	18.95	35	25.57	28	3.3	85	0.9	105	0	977.6	NA	0.0000	-RA	9999	0	0	0	2690
2019/05/05 17:07:00	BASE	18.34	39	25.57	28	3.2	85	1.0	107	0	977.7	NA	0.0000	-RA	9999	0	0	0	2820
2019/05/05 17:08:00	BASE	20.27	40	25.57	28	3.2	85	1.0	109	0	977.6	NA	0.0000	-RA	9999	0	0	0	3180
2019/05/05 17:09:00	BASE	22.09	37	28.96	36	3.2	86	1.0	109	0	977.5	NA	0.0000	-RA	9999	0	0	0	3350
2019/05/05 17:10:00	BASE	20.53	36	28.96	36	3.2	86	1.1	108	0	977.6	NA	0.0000	-RA	9999	0	0	0	3150
2019/05/05 17:11:00	BASE	18.27	36	28.96	36	3.1	87	1.1	106	0	977.7	NA	0.0000	-RA	9999	0	0	0	2990
2019/05/05 17:12:00	BASE	17.52	38	28.96	36	3.1	87	1.1	105	0	977.7	NA	0.0000	-RA	9999	0	0	0	3180
2019/05/05 17:13:00	BASE	18.29	41	28.96	36	3.1	87	1.2	103	0	977.7	NA	0.0000	-RA	9999	0	0	0	2820
2019/05/05 17:14:00	BASE	19.60	41	28.96	36	3.0	87	1.2	101	0	977.7	NA	0.0000	-RA	9999	0	0	0	3020
2019/05/05 17:15:00	BASE	19.99	38	28.96	36	3.0	88	1.2	101	0	977.7	NA	0.0000	-RA	9999	0	0	0	2720
2019/05/05 17:16:00	BASE	18.91	35	28.96	36	3.0	88	1.2	103	0	977.8	NA	0.0000	-RA	9999	0	0	0	2490
2019/05/05 17:17:00	BASE	19.64	38	28.96	36	3.0	88	1.2	105	0	977.6	NA	0.0000	-RA	9999	22470	0	0	0
2019/05/05 17:18:00	BASE	20.16	40	28.96	36	3.0	88	1.2	107	0	977.7	NA	0.0000	-RA	9999	0	0	0	2890
2019/05/05 17:19:00	BASE	17.79	38	26.19	33	3.0	88	1.3	110	0	977.7	NA	0.0000	-RA	9999	0	0	0	3310
2019/05/05 17:20:00	BASE	17.53	39	26.19	33	3.0	88	1.3	112	0	977.7	NA	0.0000	-RA	9999	0	0	0	3220
2019/05/05 17:21:00	BASE	18.84	43	26.19	33	3.0	89	1.3	112	0	977.7	NA	0.0000	-RA	9999	0	0	0	3510
2019/05/05 17:22:00	BASE	19.53	42	26.19	33	3.0	89	1.3	111	0	977.6	NA	0.0000	-RA	9999	0	0	0	3310
2019/05/05 17:23:00	BASE	20.14	41	26.19	33	3.0	89	1.4	108	0	977.6	NA	0.0000	-RA	9999	0	0	0	2790
2019/05/05 17:24:00	BASE	19.57	41	26.19	33	3.0	89	1.4	107	0	977.6	NA	0.0000	-RA	9999	0	0	0	3020
2019/05/05 17:25:00	BASE	18.62	41	26.19	33	3.0	89	1.4	105	0	977.6	NA	0.0000	-RA	9999	0	0	0	3250
2019/05/05 17:26:00	BASE	20.23	43	26.19	33	3.0	89	1.4	103	0	977.5	NA	0.0000	-RA	9999	0	0	0	3050
2019/05/05 17:27:00	BASE	22.69	43	27.01	51	3.0	89	1.4	100	0	977.5	NA	0.0000	-RA	9999	0	0	0	2920
2019/05/05 17:28:00	BASE	22.92	42	27.01	51	3.0	90	1.5	99	0	977.5	NA	0.0000	-RA	9000	0	0	0	2950
2019/05/05 17:29:00	BASE	22.55	42	27.01	51	3.0	90	1.5	96	0	977.5	NA	0.0000	-RA	8000	0	0	0	3080
2019/05/05 17:30:00	BASE	21.59	44	27.01	51	3.0	90	1.5	93	0	977.6	NA	0.0000	-RA	8000	0	0	0	3220
2019/05/05 17:31:00	BASE	21.43	44	27.52	41	3.0	90	1.5	90	0	977.5	NA	0.0000	-RA BR	8000	0	0	0	3380
2019/05/05 17:32:00	BASE	22.24	43	27.52	41	3.0	90	1.5	84	0	977.5	NA	0.0000	-RA BR	8000	0	0	0	2950
2019/05/05 17:33:00	BASE	20.92	40	27.52	41	3.0	90	1.5	79	0	977.5	NA	0.0000	-RA BR	9000	850	0	0	0
2019/05/05 17:34:00	BASE	19.68	41	27.52	41	3.0	90	1.5	71	0	977.6	NA	0.0000	-RA BR	9999	0	0	0	3220
2019/05/05 17:35:00	BASE	21.07	43	27.52	41	2.9	90	1.5	67	0	977.5	NA	0.0000	-RA BR	9999	0	0	0	3180
2019/05/05 17:36:00	BASE	22.50	40	27.52	41	2.9	90	1.5	65	0	977.5	NA	0.0000	-RA BR	9999	0	0	0	3450
2019/05/05 17:37:00	BASE	20.94	40	27.52	41	2.9	91	1.5	65	0	977.6	NA	0.0000	-RA BR	9000	0	0	0	3050
2019/05/05 17:38:00	BASE	19.08	41	27.52	41	2.9	91	1.6	66	0	977.6	NA	0.0000	-RA BR	9000	0	0	0	2890
2019/05/05 17:39:00	BASE	18.21	42	27.52	41	2.9	91	1.6	68	0	977.6	NA	0.0000	-RA BR	9000	0	0	0	2820
2019/05/05 17:40:00	BASE	18.73	43	27.52	41	2.9	91	1.6	71	0	977.5	NA	0.0000	-RA BR	9000	0	0	0	2850
2019/05/05 17:41:00	BASE	19.16	42	25.62	42	2.9	91	1.7	71	0	977.5	NA	0.0000	-RA BR	9000	0	0	0	3310
2019/05/05 17:42:00	BASE	18.65	41	25.62	42	2.9	92	1.7	70	0	977.5	NA	0.0000	-RA BR	9000	0	0	0	3640
2019/05/05 17:43:00	BASE	19.56	43	25.62	42	2.9	92	1.7	71	0	977.5	NA	0.2540	-RA BR	9000	0	0	0	3280
2019/05/05 17:44:00	BASE	21.03	42	26.65	45	2.9	92	1.8	70	0	977.4	NA	0.0000	-RA BR	9999	0	0	0	3020
2019/05/05 17:45:00	BASE	22.39	40	27.06	39	2.9	92	1.8	69	0	977.4	NA	0.0000	-RA BR	9999	0	0	0	2950
2019/05/05 17:46:00	BASE	22.33	41	27.06	39	2.9	92	1.8	68	0	977.4	NA	0.0000	-RA BR	9999	0	0	0	2590
2019/05/05 17:47:00	BASE	21.02	40	27.37	40	2.9	92	1.8	67	0	977.4	NA	0.0000	-RA BR	9999	0	0	0	3350
2019/05/05 17:48:00	BASE	20.83	41	27.37	40	3.0	92	1.8	68	0	977.4	NA	0.0000	-RA	9999	0	0	0	3250
2019/05/05 17:49:00	BASE	20.13	42	27.37	40	3.0	92	1.9	70	0	977.4	NA	0.0000	-RA	9999	0	0	0	2950
2019/05/05 17:50:00	BASE	18.53	39	27.37	40	3.0	93	1.9	69	0	977.5	NA	0.0000	-RA	9999	0	0	0	4000
2019/05/05 17:51:00	BASE	18.34	38	27.37	40	3.0	93	1.9	70	0	977.5	NA	0.0000	-RA	9999	0	0	0	2430
2019/05/05 17:52:00	BASE	18.10	39	27.37	40	2.9	93	1.9	72	0	977.5	NA	0.0000	-RA	9999	0	0	0	2720
2019/05/05 17:53:00	BASE	16.45	40	27.37	40	2.9	93	1.9	72	0	977.5	NA	0.0000	-RA	9999	0	0	0	4330
2019/05/05 17:54:00	BASE	16.00	39	27.37	40	2.9	93	1.9	70	0	977.5	NA	0.0000		9999	0	0	0	3870
2019/05/05 17:55:00	BASE	15.99	39	27.37	40	2.9	93	1.9	68	0	977.5	NA	0.0000		9999	0	0	0	3350
2019/05/05 17:56:00	BASE	17.83	41	27.37	40	2.9	94	1.9	67	0	977.4	NA	0.0000		9999	0	0	0	3220
2019/05/05 17:57:00	BASE	20.22	41	24.44	47	2.9	94	2.0	64	0	977.4	NA	0.0000		9999	0	0	0	3080
2019/05/05 17:58:00	BASE	18.64	38	24.44	47	2.8	94	2.0	63	0	977.5	NA	0.0000		9999	2200	0	0	0
2019/05/05 17:59:00	BASE	16.67	37	24.44	47	2.8	94	2.0	64	0	977.5	NA	0.0000		9999	0	0	0	2360
2019/05/05 18:00:00	BASE	17.54	39	24.44	47	2.8	94	1.9	63	0	977.5	NA	0.0000		9999	1870	0	0	0
2019/05/05 18:01:00	BASE	17.50	38	24.44	47	2.8	94	1.9	62	0	977.6	NA	0.0000		9999	0	0	0	1510
2019/05/05 18:02:00	BASE	17.00	36	24.44	47	2.8	94	1.9	61	0	977.5	NA	0.0000		9999	0	0	0	1740
2019/05/05 18:03:00	BASE	17.95	32	24.44	47	2.8	94	1.9	57	0	977.6	NA	0.0000		9999	0	0	0	2100
2019/05/05 18:04:00	BASE	17.46	32	24.44	47	2.8	94	1.9	54	0	977.6	NA	0.0000		9999	0	0	0	3280
2019/05/05 18:05:00	BASE	17.97	34	24.44	47	2.8	94	1.9	52	0	977.6	NA	0.0000		9999	0	0	0	3410
2019/05/05 18:06:00	BASE	18.59	30	24.44	47	2.8	94	1.9	49	0	977.5	NA	0.0000		9999	0	0	0	2790
2019/05/05 18:07:00	BASE	18.03	32	23.92	28	2.8	94	1.9	47	0	977.6	NA	0.0000		9999	22340	0	0	0
2019/05/05 18:08:00	BASE	17.83	35	23.92	28	2.8	94	2.0	47	0	977.6	NA	0.0000		9999	0	0	0	5220
2019/05/05 18:09:00	BASE	17.29	30	23.92	28	2.8	94	1.9	47	0	977.5	NA	0.0000		9999	0	0	0	4890
2019/05/05 18:10:00	BASE	17.40	29	23.92	28	2.9	94	1.9	47	0	977.6	NA	0.0000		9999	0	0	0	5090
2019/05/05 18:11:00	BASE	17.82	32	23.92	28	2.9	93	1.9	48	0	977.6	NA	0.0000		9999	0	0	0	5050
2019/05/05 18:12:00	BASE	19.43	32	24.69	28	2.9	93	1.9	49	0	977.5	NA	0.0000		9999	0	0	0	4760
2019/05/05 18:13:00	BASE	20.55	30	24.69	28	2.9	93	1.9	49	0	977.6	NA	0.0000	-RA	9999	0	0	0	3220
2019/05/05 18:14:00	BASE	19.61	28	24.69	28	3.0	93	1.9	48	0	977.6	NA	0.0000	-RA	9999	0	0	0	3380
2019/05/05 18:15:00	BASE	19.19	26	24.69	28	3.0	92	1.8	46	0	977.7	NA	0.0000	-RA	9999	0	0	0	3220
2019/05/05 18:16:00	BASE	19.45	27	24.69	28	3.0	92	1.8	45	0	977.7	NA	0.0000	-RA	9999	0	0	0	2820
2019/05/05 18:17:00	BASE	19.78	25	24.69	28	3.0	91	1.7	45	0	977.7	NA	0.0000	-RA	9999	0	0	0	2790
2019/05/05 18:18:00	BASE	19.93	22	24.69	28	3.0	91	1.7	46	0	977.7	NA	0.0000	-RA	9999	0	0	0	2590
2019/05/05 18:19:00	BASE	19.28	21	24.69	28	3.0	91	1.7	46	0	977.8	NA	0.0000	-RA	9999	0	0	0	2620
2019/05/05 18:20:00	BASE	19.03	20	24.69	28	3.0	91	1.7	46	0	977.7	NA	0.0000	-RA	9999	0	0	0	2460
2019/05/05 18:21:00	BASE	18.29	22	24.69	28	3.0	91	1.7	46	0	977.9	NA	0.0000	-RA	9999	0	0	0	2530
2019/05/05 18:22:00	BASE	18.22	25	24.08	24	3.0	91	1.7	47	0	977.8	NA	0.0000	-RA	9999	0	0	0	2460
2019/05/05 18:23:00	BASE	18.46	23	24.08	24	3.0	92	1.7	48	0	977.9	NA	0.0000	-RA	9999	0	0	0	2620
2019/05/05 18:24:00	BASE	16.58	24	24.08	24	2.9	92	1.7	48	0	978.0	NA	0.0000	-RA	9999	0	0	0	2300
2019/05/05 18:25:01	BASE	17.79	25	24.08	24	2.9	92	1.7	47	0	977.9	NA	0.0000	-RA	9999	0	0	0	2400
2019/05/05 18:26:00	BASE	19.46	24	24.08	24	2.9	92	1.7	48	0	977.9	NA	0.0000	-RA	9999	0	0	0	2890
2019/05/05 18:27:00	BASE	18.83	25	24.08	24	2.8	92	1.7	47	0	978.0	NA	0.0000	-RA	9999	0	0	0	2950
2019/05/05 18:28:00	BASE	18.58	25	24.08	24	2.8	92	1.7	46	0	978.0	NA	0.0000	-RA	9999	0	0	0	2690
2019/05/05 18:29:00	BASE	18.37	21	24.08	24	2.8	92	1.7	44	0	978.0	NA	0.0000	-RA	9999	0	0	0	2920
2019/05/05 18:30:00	BASE	18.03	20	24.08	24	2.8	93	1.7	42	0	978.1	NA	0.0000	-RA	9999	0	0	0	3410
2019/05/05 18:31:00	BASE	18.40	22	24.08	24	2.7	93	1.7	41	0	978.1	NA	0.0000	-RA	9999	0	0	0	2690
2019/05/05 18:32:00	BASE	19.64	22	23.30	34	2.7	94	1.8	40	0	978.0	NA	0.0000	-RA	9999	0	0	0	3740
2019/05/05 18:33:00	BASE	20.81	23	24.74	15	2.7	94	1.8	39	0	978.0	NA	0.0000	-RA	9999	0	0	0	3870
2019/05/05 18:34:00	BASE	22.14	23	26.44	24	2.7	94	1.9	37	0	977.9	NA	0.0000	-RA	9999	0	0	0	3710
2019/05/05 18:35:00	BASE	22.80	22	26.44	24	2.7	95	1.9	36	0	977.9	NA	0.0000	-RA	9999	0	0	0	3770
2019/05/05 18:36:00	BASE	22.88	23	26.44	24	2.7	95	1.9	35	0	977.9	NA	0.0000	-RA	9999	0	0	0	2920
2019/05/05 18:37:00	BASE	22.80	23	27.88	25	2.7	95	2.0	34	0	977.9	NA	0.0000	-RA	9999	0	0	0	3250
2019/05/05 18:38:00	BASE	22.63	23	27.88	25	2.7	95	2.0	33	0	977.9	NA	0.0000	-RA	9999	0	0	0	3840
2019/05/05 18:39:00	BASE	22.91	24	27.88	25	2.6	96	2.0	32	0	977.8	NA	0.0000	-RA	9999	0	0	0	4490
2019/05/05 18:40:01	BASE	22.57	25	27.88	25	2.6	96	2.0	30	0	977.9	NA	0.0000	-RA	9999	0	0	0	4950
2019/05/05 18:41:00	BASE	22.60	26	27.88	25	2.6	96	2.1	28	0	977.8	NA	0.0000	-RA	9999	0	0	0	5250
2019/05/05 18:42:00	BASE	24.84	28	29.63	25	2.5	97	2.1	26	0	977.7	NA	0.2540	-RA	9999	0	0	0	6330
2019/05/05 18:43:00	BASE	25.72	26	29.63	25	2.5	97	2.1	24	0	977.8	NA	0.0000	-RA	9000	0	0	0	4070
2019/05/05 18:44:00	BASE	25.31	26	29.63	25	2.5	97	2.1	24	0	977.8	NA	0.0000	-RA	9000	0	0	0	3080
2019/05/05 18:45:00	BASE	25.42	27	29.63	25	2.5	98	2.2	24	0	977.7	NA	0.0000	-RA BR	9000	0	0	0	3250
2019/05/05 18:46:00	BASE	25.28	26	29.63	25	2.5	98	2.2	24	0	977.7	NA	0.0000	-SN BR	9000	590	0	0	0
2019/05/05 18:47:00	BASE	25.05	28	29.63	25	2.5	98	2.2	25	0	977.8	NA	0.0000	-SN BR	9999	0	0	0	4860
2019/05/05 18:48:00	BASE	23.90	28	29.63	25	2.5	98	2.2	26	0	977.8	NA	0.0000	-SN	9999	520	0	0	0
2019/05/05 18:49:00	BASE	24.44	28	29.63	25	2.5	98	2.2	26	0	977.7	NA	0.0000	-SN	9999	0	0	0	5580
2019/05/05 18:50:00	BASE	25.54	29	29.63	25	2.5	98	2.2	27	0	977.7	NA	0.0000	-SN	9999	520	0	0	0
2019/05/05 18:51:00	BASE	24.74	28	29.63	25	2.5	98	2.2	27	0	977.7	NA	0.0000	-SN	9999	520	0	0	0
2019/05/05 18:52:00	BASE	25.37	29	29.01	25	2.5	98	2.2	28	0	977.7	NA	0.0000	-SN	9999	0	0	0	4660
2019/05/05 18:53:00	BASE	26.40	30	29.58	32	2.5	98	2.2	28	0	977.7	NA	0.0000	-SN	9999	0	0	0	4630
2019/05/05 18:54:00	BASE	25.34	28	29.58	32	2.5	98	2.2	27	0	977.7	NA	0.0000	-SN	9999	0	0	0	4360
2019/05/05 18:55:00	BASE	24.99	27	29.58	32	2.5	98	2.2	27	0	977.7	NA	0.0000	-SN	9999	0	0	0	4230
2019/05/05 18:56:00	BASE	25.65	25	31.07	29	2.5	98	2.2	27	0	977.7	NA	0.0000	-SN	9999	0	0	0	3450
2019/05/05 18:57:00	BASE	26.70	27	31.54	35	2.4	98	2.2	26	0	977.6	NA	0.0000	-SN	9999	0	0	0	3670
2019/05/05 18:58:00	BASE	26.55	29	31.54	35	2.4	98	2.1	26	0	977.6	NA	0.0000	-SN	9999	0	0	0	3380
2019/05/05 18:59:00	BASE	26.60	27	34.21	30	2.4	98	2.1	25	0	977.5	NA	0.0000	-SN	9999	0	0	0	3280
2019/05/05 19:00:00	BASE	27.63	27	34.21	30	2.4	98	2.1	25	0	977.6	NA	0.0000	-SN	9999	0	0	0	3050
2019/05/05 19:01:00	BASE	27.43	29	34.21	30	2.4	98	2.1	25	0	977.6	NA	0.0000	-SN	9999	0	0	0	2760
2019/05/05 19:02:00	BASE	27.22	29	34.21	30	2.4	98	2.1	25	0	977.6	NA	0.0000	-SN	9000	0	0	0	2690
2019/05/05 19:03:00	BASE	27.39	27	34.21	30	2.4	98	2.1	25	0	977.6	NA	0.0000	-SN	9999	0	0	0	2850
2019/05/05 19:04:00	BASE	27.28	29	34.21	30	2.4	98	2.1	24	0	977.6	NA	0.0000	-SN	9999	0	0	0	3150
2019/05/05 19:05:00	BASE	25.79	28	34.21	30	2.4	98	2.1	22	0	977.7	NA	0.0000	-SN	9000	0	0	0	3310
2019/05/05 19:06:00	BASE	25.24	27	34.21	30	2.4	98	2.1	21	0	977.7	NA	0.0000	-SN	9999	0	0	0	2950
2019/05/05 19:07:00	BASE	26.43	29	34.21	30	2.3	98	2.0	19	0	977.6	NA	0.0000	-SN	9999	0	0	0	2920
2019/05/05 19:08:00	BASE	26.58	28	34.21	30	2.3	98	2.0	18	0	977.7	NA	0.0000	-SN	9999	0	0	0	2920
2019/05/05 19:09:00	BASE	26.54	28	32.56	24	2.3	98	2.0	16	0	977.6	NA	0.0000	-SN	9999	0	0	0	2790
2019/05/05 19:10:00	BASE	27.63	28	32.56	24	2.3	98	2.0	15	0	977.6	NA	0.0000	-SN	9999	0	0	0	2790
2019/05/05 19:11:00	BASE	28.04	28	32.56	24	2.3	98	2.1	14	0	977.6	NA	0.0000	-SN	9999	0	0	0	2890
2019/05/05 19:12:00	BASE	25.94	29	32.56	24	2.3	99	2.1	13	0	977.7	NA	0.0000	-SN	9999	0	0	0	2820
2019/05/05 19:13:00	BASE	24.54	30	31.90	37	2.3	99	2.1	11	0	977.7	NA	0.0000	-SN	9999	0	0	0	2920
2019/05/05 19:14:00	BASE	26.16	30	31.90	37	2.3	99	2.1	10	0	977.7	NA	0.0000	-SN	9999	0	0	0	2660
2019/05/05 19:15:00	BASE	28.55	28	34.21	24	2.3	99	2.1	9	0	977.6	NA	0.0000	-SN	9999	0	0	0	2660
2019/05/05 19:16:00	BASE	28.43	26	34.21	24	2.3	99	2.1	9	0	977.7	NA	0.0000	-SN	8000	0	0	0	2620
2019/05/05 19:17:00	BASE	28.05	27	34.21	24	2.3	99	2.1	8	0	977.7	NA	0.0000	-SN BR	7000	0	0	0	2530
2019/05/05 19:18:00	BASE	28.76	28	34.21	24	2.3	99	2.1	7	0	977.7	NA	0.0000	-SN BR	8000	0	0	0	2460
2019/05/05 19:19:00	BASE	28.25	27	34.21	24	2.3	99	2.1	7	0	977.6	NA	0.0000	-SN BR	8000	890	0	0	0
2019/05/05 19:20:00	BASE	28.60	29	34.21	24	2.2	99	2.1	6	0	977.7	NA	0.0000	-SN BR	5000	430	0	0	0
2019/05/05 19:21:00	BASE	28.96	29	34.21	24	2.2	99	2.1	6	0	977.6	NA	0.0000	-SN BR	5000	0	0	0	2720
2019/05/05 19:22:00	BASE	28.94	30	34.21	24	2.2	99	2.0	6	0	977.7	NA	0.0000	-SN BR	5000	430	0	0	0
2019/05/05 19:23:00	BASE	28.46	30	34.21	24	2.2	99	2.0	5	0	977.7	NA	0.0000	-SN BR	5000	0	0	0	3380
2019/05/05 19:24:00	BASE	28.57	26	34.21	24	2.1	99	2.0	5	0	977.6	NA	0.0000	-SN BR	6000	0	0	0	3480
2019/05/05 19:25:00	BASE	29.52	26	33.95	37	2.1	99	2.0	5	0	977.6	NA	0.0000	-SN BR	4800	0	0	0	3350
2019/05/05 19:26:00	BASE	29.09	29	33.95	37	2.1	99	2.0	4	0	977.7	NA	0.0000	-SN BR	5000	0	0	0	3310
2019/05/05 19:27:00	BASE	27.99	29	33.95	37	2.1	99	2.0	4	0	977.7	NA	0.0000	-SN BR	9000	390	0	0	0
2019/05/05 19:28:00	BASE	28.21	28	33.95	37	2.1	99	2.0	4	0	977.7	NA	0.0000	-SN BR	7000	0	0	0	2820
2019/05/05 19:29:00	BASE	29.09	30	33.95	37	2.1	99	2.0	4	0	977.7	NA	0.0000	-SN BR	5000	0	0	0	2950
2019/05/05 19:30:00	BASE	28.74	30	33.08	27	2.1	99	1.9	4	0	977.8	NA	0.0000	-SN BR	4600	0	0	0	3020
2019/05/05 19:31:00	BASE	28.11	30	33.08	27	2.1	99	1.9	4	0	977.8	NA	0.0000	-SN BR	5000	0	0	0	3120
2019/05/05 19:32:00	BASE	29.08	30	34.93	21	2.0	99	1.9	3	0	977.7	NA	0.0000	-SN BR	3800	0	0	0	3280
2019/05/05 19:33:00	BASE	29.67	28	34.93	21	2.0	99	1.9	3	0	977.7	NA	0.0000	-SN BR	3300	0	0	0	3280
2019/05/05 19:34:00	BASE	30.34	29	34.93	21	2.0	99	1.9	3	0	977.7	NA	0.2540	-SN BR	4700	0	0	0	3180
2019/05/05 19:35:00	BASE	30.49	30	34.93	21	2.0	99	1.9	3	0	977.8	NA	0.0000	-SN BR	6000	0	0	0	3020
2019/05/05 19:36:00	BASE	29.71	28	34.93	21	2.0	99	1.9	3	0	977.8	NA	0.0000	-SN BR	3900	0	0	0	2790
2019/05/05 19:37:00	BASE	28.72	29	34.93	21	2.0	99	1.9	3	0	977.9	NA	0.0000	-SN BR	3400	0	0	0	2620
2019/05/05 19:38:00	BASE	27.86	29	34.93	21	2.0	99	1.9	3	0	977.9	NA	0.0000	-SN BR	6000	0	0	0	2590
2019/05/05 19:39:00	BASE	29.37	28	34.93	21	2.0	99	1.9	3	0	977.8	NA	0.0000	-SN BR	9999	0	0	0	2300
2019/05/05 19:40:00	BASE	29.47	28	34.93	21	2.0	99	1.9	3	0	977.9	NA	0.0000	-SN BR	9000	0	0	0	2360
2019/05/05 19:41:00	BASE	28.30	26	34.93	21	2.0	99	1.8	3	0	977.9	NA	0.0000	-SN BR	9000	0	0	0	2330
2019/05/05 19:42:00	BASE	28.08	26	34.00	27	2.0	99	1.8	2	0	978.0	NA	0.0000	-SN BR	7000	0	0	0	2400
2019/05/05 19:43:00	BASE	28.17	25	34.78	26	2.0	99	1.8	2	0	978.0	NA	0.0000	-SN BR	6000	0	0	0	2460
2019/05/05 19:44:00	BASE	29.40	25	34.78	26	1.9	99	1.8	2	0	977.9	NA	0.0000	-SN BR	4600	0	0	0	2490
2019/05/05 19:45:00	BASE	29.58	27	34.78	26	1.9	99	1.8	2	0	977.9	NA	0.0000	-SN BR	3000	0	0	0	2460
2019/05/05 19:46:00	BASE	28.05	27	34.78	26	1.9	99	1.8	2	0	978.0	NA	0.0000	-SN BR	3400	0	0	0	2530
2019/05/05 19:47:00	BASE	27.52	28	34.78	26	1.9	99	1.8	2	0	978.0	NA	0.0000	-SN BR	4300	0	0	0	2460
2019/05/05 19:48:00	BASE	28.13	31	34.78	26	1.9	99	1.8	2	0	977.9	NA	0.0000	-SN BR	3500	0	0	0	2460
2019/05/05 19:49:00	BASE	28.94	30	34.78	26	1.9	99	1.8	2	0	978.0	NA	0.0000	-SN BR	3900	0	0	0	2590
2019/05/05 19:50:00	BASE	28.87	29	34.78	26	1.9	99	1.8	2	0	978.0	NA	0.0000	-SN BR	4800	0	0	0	2660
2019/05/05 19:51:00	BASE	28.94	29	34.78	26	1.9	99	1.8	2	0	977.9	NA	0.0000	-SN BR	4600	0	0	0	2820
2019/05/05 19:52:00	BASE	29.02	27	34.78	26	1.9	99	1.8	1	0	978.0	NA	0.0000	-SN BR	4800	0	0	0	2690
2019/05/05 19:53:00	BASE	28.13	27	34.47	30	1.9	99	1.8	1	0	978.0	NA	0.0000	-SN BR	7000	0	0	0	2660
2019/05/05 19:54:00	BASE	29.40	30	35.65	31	1.9	99	1.8	1	0	977.9	NA	0.0000	-SN BR	9999	0	0	0	2690
2019/05/05 19:55:00	BASE	28.68	31	35.65	31	1.9	99	1.8	1	0	978.1	NA	0.0000	-SN BR	7000	0	0	0	2790
2019/05/05 19:56:00	BASE	27.73	29	35.65	31	1.9	99	1.8	1	0	978.0	NA	0.0000	-SN BR	8000	0	0	0	2760
2019/05/05 19:57:00	BASE	29.07	28	35.65	31	1.9	99	1.8	1	0	978.0	NA	0.0000	-SN BR	9000	0	0	0	2920
2019/05/05 19:58:00	BASE	28.96	29	35.65	31	1.9	99	1.8	1	0	978.1	NA	0.0000	-SN BR	9999	0	0	0	3280
2019/05/05 19:59:00	BASE	27.93	27	35.65	31	1.9	99	1.8	1	0	978.1	NA	0.0000	-SN BR	9999	0	0	0	3540
2019/05/05 20:00:00	BASE	27.77	27	35.65	31	1.9	99	1.8	1	0	978.1	NA	0.0000	-SN BR	9999	0	0	0	3710
2019/05/05 20:01:00	BASE	28.68	28	35.65	31	1.9	99	1.8	1	0	978.1	NA	0.0000	-SN BR	9000	0	0	0	3670
2019/05/05 20:02:00	BASE	28.65	28	35.65	31	1.9	99	1.8	1	0	978.1	NA	0.0000	-SN BR	9000	0	0	0	3670
2019/05/05 20:03:00	BASE	29.22	29	35.65	31	1.9	99	1.8	1	0	978.0	NA	0.0000	-SN BR	9999	0	0	0	3610
2019/05/05 20:04:00	BASE	30.37	29	34.06	36	1.9	99	1.7	1	0	978.0	NA	0.0000	-SN BR	9999	0	0	0	3710
2019/05/05 20:05:00	BASE	30.37	26	34.62	29	1.9	99	1.7	1	0	978.0	NA	0.0000	-SN	9999	0	0	0	3670
2019/05/05 20:06:00	BASE	29.56	26	34.62	29	1.9	98	1.7	1	0	978.1	NA	0.0000	-SN	9999	0	0	0	3580
2019/05/05 20:07:00	BASE	29.49	28	34.62	29	1.9	98	1.6	1	0	978.1	NA	0.0000	-SN	9999	0	0	0	3410
2019/05/05 20:08:00	BASE	30.04	28	34.62	29	1.9	98	1.6	1	0	978.1	NA	0.0000	-SN	9999	0	0	0	3900
2019/05/05 20:09:00	BASE	30.43	29	34.62	29	1.9	98	1.6	1	0	978.0	NA	0.0000	-SN	9999	0	0	0	4820
2019/05/05 20:10:00	BASE	30.13	31	34.62	29	1.9	98	1.7	1	0	978.1	NA	0.0000	-SN	9999	0	0	0	7190
2019/05/05 20:11:00	BASE	29.39	28	34.62	29	2.0	98	1.7	1	0	978.1	NA	0.0000	-SN	9999	0	0	0	7190
2019/05/05 20:12:00	BASE	29.70	26	34.62	29	2.0	98	1.7	1	0	978.1	NA	0.0000	-SN	9999	0	0	0	6920
2019/05/05 20:13:00	BASE	30.11	28	34.62	29	2.0	98	1.7	0	0	978.1	NA	0.0000	-SN	9999	0	0	0	7280
2019/05/05 20:14:00	BASE	29.60	28	34.62	29	2.0	97	1.6	0	0	978.1	NA	0.0000	-SN	9999	0	0	0	7020
2019/05/05 20:15:00	BASE	28.94	28	34.36	20	2.0	97	1.6	0	0	978.1	NA	0.0000	-SN	9999	0	0	0	6630
2019/05/05 20:16:00	BASE	29.27	28	34.36	20	2.0	97	1.6	0	0	978.1	NA	0.0000	-SN	9999	0	0	0	6400
2019/05/05 20:17:00	BASE	31.05	29	35.14	36	2.0	97	1.5	0	0	978.0	NA	0.0000	-SN	9999	0	0	0	5870
2019/05/05 20:18:00	BASE	32.34	30	35.14	36	2.0	97	1.5	0	0	978.1	NA	0.0000	-SN	9999	0	0	0	5450
2019/05/05 20:19:00	BASE	32.16	29	35.14	36	2.0	96	1.5	0	0	978.1	NA	0.0000	-SN	9999	0	0	0	5220
2019/05/05 20:20:00	BASE	31.13	27	35.14	36	2.0	96	1.5	0	0	978.3	NA	0.0000		9999	0	0	0	5090
2019/05/05 20:21:00	BASE	29.99	26	35.14	36	2.0	96	1.4	0	0	978.2	NA	0.0000		9999	0	0	0	5640
2019/05/05 20:22:00	BASE	29.97	26	35.14	36	2.0	96	1.4	0	0	978.2	NA	0.0000		9999	0	0	0	6400
2019/05/05 20:23:00	BASE	29.81	26	35.14	36	2.0	96	1.4	0	0	978.2	NA	0.0000		9999	0	0	0	6000
2019/05/05 20:24:00	BASE	28.69	25	35.14	36	2.0	95	1.3	0	0	978.3	NA	0.0000		9999	0	0	0	5740
2019/05/05 20:25:00	BASE	28.21	27	35.14	36	2.0	95	1.3	0	0	978.2	NA	0.0000		9999	0	0	0	5740
2019/05/05 20:26:00	BASE	28.43	28	35.14	36	2.0	95	1.3	0	0	978.3	NA	0.0000		9999	0	0	0	4920
2019/05/05 20:27:00	BASE	29.55	27	35.03	19	2.0	95	1.3	0	0	978.2	NA	0.0000		9999	0	0	0	4300
2019/05/05 20:28:00	BASE	30.41	27	34.78	34	2.0	95	1.3	0	0	978.3	NA	0.0000		9999	0	0	0	4200
2019/05/05 20:29:00	BASE	29.86	27	34.72	29	2.0	95	1.3	0	0	978.3	NA	0.0000		9999	0	0	0	4360
2019/05/05 20:30:00	BASE	29.89	28	34.72	29	2.0	95	1.2	0	0	978.3	NA	0.0000		9999	0	0	0	4590
2019/05/05 20:31:00	BASE	29.71	28	34.72	29	2.0	94	1.2	0	0	978.3	NA	0.0000		9999	0	0	0	8370
2019/05/05 20:32:00	BASE	29.52	27	34.72	29	2.0	94	1.2	0	0	978.3	NA	0.0000		9999	0	0	0	8730
2019/05/05 20:33:00	BASE	29.39	27	34.72	29	2.0	94	1.1	0	0	978.4	NA	0.0000		9999	0	0	0	8730
2019/05/05 20:34:00	BASE	28.54	30	34.72	29	2.0	94	1.1	0	0	978.4	NA	0.0000		9999	2950	0	0	0
2019/05/05 20:35:00	BASE	28.89	31	35.14	28	2.0	94	1.1	0	0	978.3	NA	0.0000		9999	2850	0	0	0
2019/05/05 20:36:00	BASE	29.15	27	35.14	28	2.0	94	1.1	0	0	978.4	NA	0.0000		9999	2530	0	0	0
2019/05/05 20:37:00	BASE	29.09	26	35.14	28	2.0	94	1.1	0	0	978.4	NA	0.0000		9999	2200	0	0	0
2019/05/05 20:38:00	BASE	29.66	27	35.14	28	2.0	94	1.1	0	0	978.4	NA	0.0000		9999	2170	0	0	0
2019/05/05 20:39:00	BASE	29.67	27	35.14	28	2.0	93	1.0	0	0	978.4	NA	0.0000		9999	2200	0	0	0
2019/05/05 20:40:00	BASE	29.94	25	35.14	28	2.0	93	1.0	0	0	978.4	NA	0.0000		9999	2690	0	0	0
2019/05/05 20:41:00	BASE	30.63	24	35.14	28	2.0	93	1.0	0	0	978.4	NA	0.0000		9999	1840	0	0	0
2019/05/05 20:42:00	BASE	30.55	25	35.14	28	2.0	93	1.0	0	0	978.4	NA	0.0000		9999	2000	0	0	0
2019/05/05 20:43:00	BASE	31.09	27	36.17	28	2.0	93	1.0	0	0	978.4	NA	0.0000		9999	1870	0	0	0
2019/05/05 20:44:00	BASE	31.28	26	36.17	28	2.0	93	1.0	0	0	978.4	NA	0.0000		9999	1870	0	0	0
2019/05/05 20:45:00	BASE	30.16	24	36.17	28	2.0	92	0.9	0	0	978.5	NA	0.0000	-SN	9999	0	0	0	4790
2019/05/05 20:46:00	BASE	29.51	26	36.17	28	2.0	92	0.9	0	0	978.5	NA	0.0000	-SN	9999	690	0	0	0
2019/05/05 20:47:00	BASE	29.53	26	36.17	28	2.0	92	0.8	0	0	978.6	NA	0.0000	-SN	9999	0	0	0	3940
2019/05/05 20:48:00	BASE	30.33	25	36.17	28	2.0	92	0.8	0	0	978.5	NA	0.0000	-SN	9999	0	0	0	3150
2019/05/05 20:49:00	BASE	31.51	27	36.37	27	2.0	92	0.8	0	0	978.5	NA	0.0000	-SN	9999	0	0	0	2690
2019/05/05 20:50:00	BASE	31.41	27	36.37	27	2.0	92	0.8	0	0	978.6	NA	0.0000	-SN	8000	0	0	0	2620
2019/05/05 20:51:00	BASE	29.81	25	36.37	27	2.0	92	0.8	0	0	978.8	NA	0.0000	-SN	7000	0	0	0	4360
2019/05/05 20:52:00	BASE	29.38	26	36.37	27	2.0	92	0.8	0	0	978.7	NA	0.0000	-SN	7000	0	0	0	4530
2019/05/05 20:53:00	BASE	29.12	26	36.37	27	1.9	92	0.8	0	0	978.8	NA	0.0000	-SN	9000	0	0	0	5540
2019/05/05 20:54:00	BASE	28.59	28	36.37	27	1.9	93	0.8	0	0	978.7	NA	0.0000	-SN	9999	0	0	0	5480
2019/05/05 20:55:00	BASE	29.53	28	36.37	27	1.8	93	0.8	0	0	978.7	NA	0.0000	-SN	9999	0	0	0	5180
2019/05/05 20:56:00	BASE	29.40	26	36.37	27	1.8	94	0.9	0	0	978.8	NA	0.0000	-SN	9999	0	0	0	4690
2019/05/05 20:57:00	BASE	28.45	28	36.37	27	1.8	94	0.9	0	0	978.8	NA	0.0000	-SN BR	9999	0	0	0	4950
2019/05/05 20:58:00	BASE	28.52	30	36.37	27	1.8	94	0.9	0	0	978.9	NA	0.0000	-SN	9999	1840	0	0	0
2019/05/05 20:59:00	BASE	28.39	30	33.90	27	1.8	94	0.9	0	0	978.9	NA	0.0000	-SN	9999	0	0	0	4130
2019/05/05 21:00:00	BASE	27.92	27	33.90	27	1.8	94	1.0	0	0	978.9	NA	0.0000	-SN	9999	430	0	0	0
2019/05/05 21:01:00	BASE	28.24	25	33.90	27	1.8	94	1.0	0	0	978.9	NA	0.0000	-SN	9999	360	0	0	0
2019/05/05 21:02:00	BASE	28.16	26	33.90	27	1.8	95	1.0	0	0	979.0	NA	0.0000	-SN	9999	0	0	0	3020
2019/05/05 21:03:00	BASE	28.03	27	33.90	27	1.7	95	1.0	0	0	978.9	NA	0.0000	-SN	9000	0	0	0	3220
2019/05/05 21:04:00	BASE	28.63	29	33.90	27	1.7	95	1.0	0	0	978.9	NA	0.0000	-SN	6000	0	0	0	3180
2019/05/05 21:05:00	BASE	29.30	28	33.44	27	1.7	95	1.0	0	0	978.9	NA	0.0000	-SN	5000	0	0	0	3150
2019/05/05 21:06:00	BASE	29.34	28	33.44	27	1.7	95	1.0	0	0	979.0	NA	0.0000	-SN BR	5000	0	0	0	2950
2019/05/05 21:07:00	BASE	27.84	26	33.44	27	1.7	95	1.0	0	0	979.2	NA	0.0000	-SN BR	6000	0	0	0	2920
2019/05/05 21:08:00	BASE	23.71	22	33.44	27	1.7	95	1.0	0	0	979.3	NA	0.0000	-SN BR	9999	0	0	0	2820
2019/05/05 21:09:00	BASE	24.82	25	33.44	27	1.7	95	1.0	0	0	979.1	NA	0.0000	-SN BR	6000	0	0	0	2950
2019/05/05 21:10:00	BASE	28.55	29	33.44	27	1.7	95	1.0	0	0	979.0	NA	0.0000	-SN BR	3000	0	0	0	3710
2019/05/05 21:11:00	BASE	26.84	28	33.44	27	1.6	95	1.0	0	0	979.3	NA	0.0000	-SN BR	2600	260	0	0	0
2019/05/05 21:12:00	BASE	24.35	27	33.44	27	1.6	96	1.0	0	0	979.2	NA	0.0000	-SN BR	3200	260	0	0	0
2019/05/05 21:13:00	BASE	24.51	29	33.44	27	1.6	96	1.0	0	0	979.2	NA	0.0000	-SN BR	4900	8830	0	0	0
2019/05/05 21:14:00	BASE	26.02	30	33.44	27	1.6	96	1.0	0	0	979.2	NA	0.0000	-SN BR	9000	5970	8830	0	0
2019/05/05 21:15:01	BASE	25.27	26	32.67	35	1.6	96	1.0	0	0	979.3	NA	0.0000	-SN BR	9999	8690	0	0	0
2019/05/05 21:16:00	BASE	24.04	24	32.67	35	1.5	96	1.0	0	0	979.3	NA	0.0000	-SN BR	9999	0	0	0	820
2019/05/05 21:17:00	BASE	24.82	26	32.67	35	1.5	97	1.0	0	0	979.2	NA	0.0000	-SN BR	9999	6630	8830	0	0
2019/05/05 21:18:00	BASE	25.81	27	32.67	35	1.5	97	1.1	0	0	979.2	NA	0.0000	-SN BR	9999	6760	8920	0	0
2019/05/05 21:19:00	BASE	26.91	27	32.05	27	1.5	97	1.1	0	0	979.1	NA	0.0000	-SN BR	9999	3710	6630	0	0
2019/05/05 21:20:00	BASE	28.31	26	31.33	23	1.5	97	1.1	0	0	979.2	NA	0.0000	-SN BR	9999	3670	0	0	0
2019/05/05 21:21:00	BASE	27.82	27	31.33	23	1.6	97	1.2	0	0	979.3	NA	0.0000	-SN BR	9999	3480	0	0	0
2019/05/05 21:22:00	BASE	26.10	25	31.33	23	1.6	97	1.2	0	0	979.3	NA	0.0000	-SN	9999	3450	0	0	0
2019/05/05 21:23:00	BASE	26.28	24	31.33	26	1.7	97	1.2	0	0	979.3	NA	0.0000		9999	3280	0	0	0
2019/05/05 21:24:00	BASE	26.97	26	31.33	26	1.7	96	1.2	0	0	979.3	NA	0.0000		9999	3940	0	0	0
2019/05/05 21:25:00	BASE	26.07	26	31.33	26	1.7	96	1.1	0	0	979.4	NA	0.0000		9999	13090	0	0	0
2019/05/05 21:26:00	BASE	26.29	27	31.33	26	1.7	96	1.1	0	0	979.4	NA	0.0000		9999	3840	0	0	0
2019/05/05 21:27:00	BASE	26.51	27	31.33	26	1.7	95	1.0	0	0	979.4	NA	0.0000		9999	3220	0	0	0
2019/05/05 21:28:00	BASE	25.75	26	31.33	26	1.7	95	1.0	0	0	979.4	NA	0.0000		9999	0	0	0	3840
2019/05/05 21:29:00	BASE	25.35	25	31.33	26	1.7	95	1.0	0	0	979.5	NA	0.0000		9999	0	0	0	3870
2019/05/05 21:30:01	BASE	25.67	25	31.33	26	1.7	95	1.0	0	0	979.4	NA	0.0000		9999	0	0	0	3710
2019/05/05 21:31:00	BASE	25.75	25	31.33	26	1.7	95	1.0	0	0	979.5	NA	0.0000		9999	0	0	0	3770
2019/05/05 21:32:00	BASE	25.04	24	31.33	26	1.8	94	1.0	0	0	979.5	NA	0.0000		9999	1510	0	0	0
2019/05/05 21:33:00	BASE	24.36	24	30.66	26	1.8	94	0.9	0	0	979.5	NA	0.0000		9999	3970	0	0	0
2019/05/05 21:34:00	BASE	24.43	25	29.48	26	1.8	94	0.9	0	0	979.6	NA	0.0000		9999	0	0	0	3940
2019/05/05 21:35:00	BASE	25.13	27	29.48	26	1.8	94	0.9	0	0	979.6	NA	0.0000		9999	4040	0	0	0
2019/05/05 21:36:00	BASE	25.68	29	29.48	26	1.8	94	0.9	0	0	979.6	NA	0.0000		9999	3580	0	0	0
2019/05/05 21:37:00	BASE	25.37	28	29.48	26	1.8	94	0.9	0	0	979.6	NA	0.0000		9999	0	0	0	3870
2019/05/05 21:38:00	BASE	23.34	26	29.48	26	1.8	94	0.9	0	0	979.8	NA	0.0000		9999	0	0	0	4040
2019/05/05 21:39:00	BASE	22.47	27	29.48	26	1.8	94	0.9	0	0	979.7	NA	0.0000		9999	0	0	0	3970
2019/05/05 21:40:00	BASE	23.85	28	28.60	33	1.8	94	0.9	0	0	979.7	NA	0.0000		9999	0	0	0	3710
2019/05/05 21:41:00	BASE	24.05	28	28.60	33	1.8	94	0.9	0	0	979.7	NA	0.0000		9999	0	0	0	3770
2019/05/05 21:42:00	BASE	23.35	28	28.40	30	1.8	94	0.9	0	0	979.8	NA	0.0000		9999	0	0	0	3970
2019/05/05 21:43:00	BASE	23.67	27	28.40	30	1.8	94	0.9	0	0	979.8	NA	0.0000		9999	0	0	0	3970
2019/05/05 21:44:00	BASE	23.83	25	28.40	30	1.8	94	0.9	0	0	979.8	NA	0.0000		9999	0	0	0	3970
2019/05/05 21:45:00	BASE	23.60	26	28.40	30	1.7	94	0.9	0	0	979.8	NA	0.0000		9999	3380	0	0	0
2019/05/05 21:46:00	BASE	23.71	26	27.63	27	1.7	94	0.9	0	0	979.9	NA	0.0000		9999	0	0	0	3670
2019/05/05 21:47:00	BASE	22.95	24	27.63	27	1.7	94	0.9	0	0	979.9	NA	0.0000		9999	0	0	0	3450
2019/05/05 21:48:00	BASE	22.50	23	27.63	27	1.7	95	0.9	0	0	979.9	NA	0.0000		9999	3280	0	0	0
2019/05/05 21:49:00	BASE	22.26	25	27.63	27	1.7	95	0.9	0	0	980.0	NA	0.0000		9999	0	0	0	3510
2019/05/05 21:50:00	BASE	22.42	26	27.63	27	1.6	95	0.9	0	0	980.0	NA	0.0000	-SN	9999	2070	0	0	0
2019/05/05 21:51:00	BASE	22.47	25	25.98	30	1.6	95	0.9	0	0	980.1	NA	0.0000	-SN	9999	0	0	0	3250
2019/05/05 21:52:00	BASE	20.98	26	25.98	30	1.5	96	1.0	0	0	980.2	NA	0.0000	-SN	9999	0	0	0	3670
2019/05/05 21:53:00	BASE	20.31	27	25.98	30	1.5	96	1.0	0	0	980.1	NA	0.0000	-SN	9999	0	0	0	3670
2019/05/05 21:54:00	BASE	20.59	26	25.98	30	1.5	97	1.0	0	0	980.2	NA	0.0000	-SN	9999	0	0	0	3610
2019/05/05 21:55:00	BASE	22.24	25	25.83	25	1.5	97	1.1	0	0	980.1	NA	0.0000	-SN	9999	2330	0	0	0
2019/05/05 21:56:00	BASE	23.77	24	25.83	25	1.5	97	1.1	0	0	980.1	NA	0.0000	-SN	9999	3180	0	0	0
2019/05/05 21:57:00	BASE	23.33	24	25.83	25	1.5	98	1.2	0	0	980.1	NA	0.0000	-SN	9999	2920	0	0	0
2019/05/05 21:58:00	BASE	22.61	24	25.83	25	1.5	98	1.2	0	0	980.1	NA	0.0000	-SN	9999	2850	0	0	0
2019/05/05 21:59:00	BASE	22.31	23	25.83	25	1.5	98	1.2	0	0	980.2	NA	0.0000	-SN	9999	2950	0	0	0
2019/05/05 22:00:00	BASE	22.27	23	25.52	22	1.5	98	1.3	0	0	980.2	NA	0.0000		9999	3050	0	0	0
2019/05/05 22:01:00	BASE	22.07	23	25.52	22	1.5	98	1.3	0	0	980.3	NA	0.0000		9999	3050	0	0	0
2019/05/05 22:02:00	BASE	20.97	24	25.52	22	1.5	99	1.3	0	0	980.3	NA	0.0000		9999	2760	3540	0	0
2019/05/05 22:03:00	BASE	19.97	25	25.52	22	1.5	99	1.3	0	0	980.3	NA	0.0000		9999	2430	0	0	0
2019/05/05 22:04:00	BASE	19.99	25	25.52	22	1.5	99	1.4	0	0	980.3	NA	0.0000		9999	2560	0	0	0
2019/05/05 22:05:00	BASE	20.57	26	24.54	21	1.5	99	1.4	0	0	980.3	NA	0.0000		9999	2820	0	0	0
2019/05/05 22:06:00	BASE	20.11	27	24.33	26	1.5	99	1.4	0	0	980.3	NA	0.0000		9999	3020	0	0	0
2019/05/05 22:07:00	BASE	19.87	28	24.13	23	1.5	99	1.4	0	0	980.2	NA	0.0000		9999	3150	0	0	0
2019/05/05 22:08:00	BASE	19.99	28	23.46	19	1.5	100	1.4	0	0	980.2	NA	0.0000		9999	3150	0	0	0
2019/05/05 22:09:00	BASE	20.00	28	23.46	19	1.5	100	1.5	0	0	980.2	NA	0.0000		9999	3510	0	0	0
2019/05/05 22:10:00	BASE	20.54	28	23.41	32	1.5	100	1.5	0	0	980.3	NA	0.0000		9999	3580	0	0	0
2019/05/05 22:11:00	BASE	20.80	27	23.41	32	1.5	100	1.5	0	0	980.3	NA	0.0000		9999	3740	0	0	0
2019/05/05 22:12:00	BASE	20.88	26	23.41	32	1.5	100	1.5	0	0	980.3	NA	0.0000		9999	3810	0	0	0
2019/05/05 22:13:00	BASE	20.70	26	23.41	32	1.6	100	1.5	0	0	980.4	NA	0.0000		9999	3710	0	0	0
2019/05/05 22:14:00	BASE	21.07	24	23.41	32	1.6	99	1.5	0	0	980.4	NA	0.0000		9999	3900	0	0	0
2019/05/05 22:15:00	BASE	21.17	25	23.41	32	1.6	99	1.5	0	0	980.4	NA	0.0000		9999	3870	0	0	0
2019/05/05 22:16:00	BASE	20.46	27	23.41	32	1.7	99	1.5	0	0	980.5	NA	0.0000		9999	3740	0	0	0
2019/05/05 22:17:00	BASE	20.46	26	23.41	32	1.7	99	1.5	0	0	980.5	NA	0.0000		9999	3770	0	0	0
2019/05/05 22:18:00	BASE	20.46	25	23.41	32	1.7	99	1.5	0	0	980.5	NA	0.0000		9999	3810	0	0	0
2019/05/05 22:19:00	BASE	20.55	24	23.41	32	1.7	98	1.5	0	0	980.6	NA	0.0000		9999	4270	0	0	0
2019/05/05 22:20:00	BASE	21.33	23	23.30	21	1.7	98	1.5	0	0	980.6	NA	0.0000		9999	2070	3770	0	0
2019/05/05 22:21:00	BASE	21.47	21	23.30	21	1.8	98	1.5	0	0	980.6	NA	0.0000		9999	4100	0	0	0
2019/05/05 22:22:00	BASE	20.72	20	23.30	21	1.8	98	1.5	0	0	980.6	NA	0.0000		9999	1610	4430	0	0
2019/05/05 22:23:00	BASE	20.26	21	23.10	24	1.8	98	1.5	0	0	980.6	NA	0.0000		9999	1510	4300	0	0
2019/05/05 22:24:00	BASE	20.26	21	23.10	24	1.8	98	1.5	0	0	980.6	NA	0.0000		9999	1610	4460	0	0
2019/05/05 22:25:00	BASE	20.14	20	23.10	24	1.8	98	1.5	0	0	980.7	NA	0.0000		9999	4630	0	0	0
2019/05/05 22:26:00	BASE	20.55	20	23.10	24	1.8	98	1.5	0	0	980.7	NA	0.0000		9999	4950	0	0	0
2019/05/05 22:27:00	BASE	20.68	22	23.10	24	1.8	98	1.5	0	0	980.7	NA	0.0000		9999	1610	5150	0	0
2019/05/05 22:28:00	BASE	20.00	23	23.10	24	1.7	98	1.5	0	0	980.7	NA	0.0000		9999	5090	0	0	0
2019/05/05 22:29:00	BASE	20.13	21	23.10	24	1.7	98	1.4	0	0	980.7	NA	0.0000		9999	5120	0	0	0
2019/05/05 22:30:00	BASE	20.80	19	22.58	19	1.7	98	1.4	0	0	980.7	NA	0.0000		9999	1570	5020	0	0
2019/05/05 22:31:00	BASE	20.44	19	22.38	18	1.7	99	1.5	0	0	980.8	NA	0.0000		9999	4690	0	0	0
2019/05/05 22:32:00	BASE	19.58	17	22.38	18	1.7	99	1.5	0	0	980.8	NA	0.0000		9999	6430	0	0	0
2019/05/05 22:33:00	BASE	19.60	16	22.38	18	1.7	99	1.6	0	0	980.8	NA	0.0000		9999	4920	0	0	0
2019/05/05 22:34:00	BASE	19.60	14	22.38	18	1.7	100	1.6	0	0	980.8	NA	0.0000		9999	4860	0	0	0
2019/05/05 22:35:00	BASE	18.80	15	22.38	18	1.7	100	1.7	0	0	980.8	NA	0.0000		9999	4920	6040	0	0
2019/05/05 22:36:00	BASE	19.12	15	22.38	18	1.7	100	1.7	0	0	980.8	NA	0.0000		9999	5380	0	0	0
2019/05/05 22:37:00	BASE	19.71	13	22.38	18	1.6	100	1.6	0	0	980.7	NA	0.0000		9999	4000	0	0	0
2019/05/05 22:38:00	BASE	19.08	16	22.38	18	1.6	100	1.6	0	0	980.8	NA	0.0000		9999	4990	0	0	0
2019/05/05 22:39:00	BASE	17.70	18	22.38	18	1.6	100	1.6	0	0	980.8	NA	0.0000		9999	5220	0	0	0
2019/05/05 22:40:01	BASE	17.10	17	22.17	16	1.6	100	1.6	0	0	980.9	NA	0.0000		9999	4720	0	0	0
2019/05/05 22:41:00	BASE	17.72	18	22.17	16	1.6	100	1.6	0	0	980.8	NA	0.0000		9999	0	0	0	620
2019/05/05 22:42:00	BASE	18.83	18	22.74	19	1.6	100	1.6	0	0	980.8	NA	0.0000		9999	4660	0	0	0
2019/05/05 22:43:00	BASE	19.28	20	22.74	19	1.5	100	1.5	0	0	980.8	NA	0.0000		9999	4890	0	0	0
2019/05/05 22:44:00	BASE	19.43	22	22.74	19	1.5	100	1.5	0	0	980.8	NA	0.0000		9999	4590	0	0	0
2019/05/05 22:45:00	BASE	20.27	23	22.74	19	1.5	100	1.5	0	0	980.7	NA	0.0000		9999	4820	0	0	0
2019/05/05 22:46:00	BASE	21.21	22	23.10	18	1.5	100	1.5	0	0	980.7	NA	0.0000		9999	5610	0	0	0
2019/05/05 22:47:00	BASE	20.63	22	23.10	18	1.5	100	1.5	0	0	980.8	NA	0.0000		9999	5150	5840	0	0
2019/05/05 22:48:00	BASE	19.79	20	23.10	18	1.5	100	1.5	0	0	980.9	NA	0.0000		9999	4990	0	0	0
2019/05/05 22:49:00	BASE	19.75	19	23.10	18	1.5	100	1.5	0	0	980.9	NA	0.0000		9999	6230	0	0	0
2019/05/05 22:50:00	BASE	18.99	20	23.10	18	1.5	100	1.5	0	0	980.9	NA	0.0000		9999	1640	6370	0	0
2019/05/05 22:51:00	BASE	18.36	20	23.10	18	1.5	100	1.5	0	0	981.0	NA	0.0000		9999	1540	6660	0	0
2019/05/05 22:52:00	BASE	18.45	19	23.10	18	1.5	100	1.5	0	0	981.0	NA	0.0000		9999	5250	6460	0	0
2019/05/05 22:53:00	BASE	18.72	19	23.10	18	1.5	100	1.5	0	0	981.0	NA	0.0000		9999	5640	0	0	0
2019/05/05 22:54:00	BASE	18.78	13	23.10	18	1.5	100	1.5	0	0	981.0	NA	0.0000		9999	6430	0	0	0
2019/05/05 22:55:00	BASE	18.39	10	23.10	18	1.5	100	1.5	0	0	981.0	NA	0.0000		9999	6040	0	0	0
2019/05/05 22:56:00	BASE	17.37	13	21.25	18	1.5	100	1.5	0	0	981.1	NA	0.0000		9999	5640	0	0	0
2019/05/05 22:57:00	BASE	16.65	13	21.25	18	1.6	100	1.6	0	0	981.1	NA	0.0000		9999	0	0	0	4820
2019/05/05 22:58:00	BASE	16.17	10	20.68	10	1.6	100	1.6	0	0	981.2	NA	0.0000		9999	3380	0	0	0
2019/05/05 22:59:00	BASE	15.64	9	20.68	10	1.6	100	1.6	0	0	981.2	NA	0.0000		9999	660	0	0	0
2019/05/05 23:00:00	BASE	15.91	10	20.68	10	1.6	100	1.6	0	0	981.2	NA	0.0000		9999	790	0	0	0
2019/05/05 23:01:00	BASE	16.42	9	20.11	3	1.6	100	1.6	0	0	981.2	NA	0.0000		9999	360	0	0	0
2019/05/05 23:02:00	BASE	16.77	11	20.11	3	1.6	100	1.6	0	0	981.2	NA	0.0000		9999	300	0	0	0
2019/05/05 23:03:00	BASE	17.11	15	20.11	3	1.6	100	1.6	0	0	981.2	NA	0.0000		9999	360	0	0	0
2019/05/05 23:04:00	BASE	17.05	16	18.88	6	1.6	100	1.6	0	0	981.2	NA	0.0000	UP	9999	360	0	0	0
2019/05/05 23:05:00	BASE	16.69	16	18.78	20	1.6	100	1.6	0	0	981.2	NA	0.0000	UP	9999	0	0	0	2260
2019/05/05 23:06:00	BASE	16.49	15	18.78	20	1.6	100	1.6	0	0	981.2	NA	0.0000	UP	9999	330	0	0	0
2019/05/05 23:07:00	BASE	16.50	15	18.78	20	1.5	100	1.5	0	0	981.3	NA	0.0000	UP	9999	230	0	0	0
2019/05/05 23:08:00	BASE	17.27	14	19.45	12	1.5	100	1.5	0	0	981.2	NA	0.0000	UP	9999	230	0	0	0
2019/05/05 23:09:00	BASE	17.93	12	19.45	12	1.5	100	1.5	0	0	981.3	NA	0.0000	UP	9999	0	0	0	2560
2019/05/05 23:10:00	BASE	17.91	12	19.60	10	1.4	100	1.4	0	0	981.3	NA	0.0000	UP	9999	230	0	0	0
2019/05/05 23:11:00	BASE	17.21	14	19.60	10	1.4	100	1.4	0	0	981.3	NA	0.0000	UP	9999	300	0	0	0
2019/05/05 23:12:00	BASE	16.55	17	19.60	10	1.4	100	1.4	0	0	981.3	NA	0.0000	UP	9999	200	0	0	0
2019/05/05 23:13:00	BASE	16.23	17	19.60	10	1.4	100	1.4	0	0	981.4	NA	0.0000	UP	9999	0	0	0	2490
2019/05/05 23:14:00	BASE	16.63	15	19.60	18	1.4	100	1.4	0	0	981.4	NA	0.0000	UP	9999	300	0	0	0
2019/05/05 23:15:00	BASE	17.56	14	19.60	18	1.4	100	1.4	0	0	981.4	NA	0.0000	UP	9999	260	0	0	0
2019/05/05 23:16:00	BASE	17.01	16	19.60	18	1.4	100	1.4	0	0	981.4	NA	0.0000	UP	9999	360	0	0	0
2019/05/05 23:17:00	BASE	16.52	13	19.60	18	1.4	100	1.4	0	0	981.4	NA	0.0000	UP	9999	390	0	0	0
2019/05/05 23:18:00	BASE	17.09	7	19.60	18	1.4	100	1.4	0	0	981.4	NA	0.0000	UP	9999	5410	0	0	0
2019/05/05 23:19:00	BASE	17.55	3	19.60	18	1.4	100	1.4	0	0	981.4	NA	0.0000	UP	9999	5350	0	0	0
2019/05/05 23:20:00	BASE	17.81	3	19.60	18	1.4	100	1.4	0	0	981.4	NA	0.0000	UP	9999	3310	5540	0	0
2019/05/05 23:21:00	BASE	17.84	5	19.91	8	1.4	100	1.4	0	0	981.5	NA	0.0000	UP	9999	1310	3480	6890	0
2019/05/05 23:22:00	BASE	17.10	3	19.91	8	1.5	100	1.5	0	0	981.5	NA	0.0000	UP	9999	6630	0	0	0
2019/05/05 23:23:00	BASE	17.29	4	19.91	8	1.5	100	1.5	0	0	981.5	NA	0.0000	UP	9999	3540	7550	0	0
2019/05/05 23:24:00	BASE	17.70	6	19.91	8	1.5	100	1.5	0	0	981.5	NA	0.0000		9999	3410	7510	0	0
2019/05/05 23:25:00	BASE	17.53	6	19.91	8	1.5	100	1.5	0	0	981.5	NA	0.0000		9999	560	2070	0	0
2019/05/05 23:26:00	BASE	17.76	9	19.91	8	1.4	100	1.4	0	0	981.5	NA	0.0000		9999	460	4400	0	0
2019/05/05 23:27:00	BASE	18.24	9	19.91	8	1.4	100	1.4	0	0	981.5	NA	0.0000		9999	390	4300	0	0
2019/05/05 23:28:00	BASE	18.41	10	19.91	8	1.4	100	1.4	0	0	981.5	NA	0.0000		9999	590	0	0	0
2019/05/05 23:29:00	BASE	18.28	11	19.91	8	1.4	100	1.4	0	0	981.6	NA	0.0000		9999	360	0	0	0
2019/05/05 23:30:00	BASE	17.68	8	19.91	8	1.4	100	1.4	0	0	981.6	NA	0.0000		9999	0	0	0	4790
2019/05/05 23:31:00	BASE	17.40	6	19.60	7	1.3	100	1.3	0	0	981.6	NA	0.0000		9999	590	0	0	0
2019/05/05 23:32:00	BASE	16.78	4	19.60	7	1.3	100	1.3	0	0	981.6	NA	0.0000		9999	4530	0	0	0
2019/05/05 23:33:00	BASE	16.42	2	19.60	7	1.3	100	1.3	0	0	981.6	NA	0.0000		9999	1380	0	0	0
2019/05/05 23:34:00	BASE	17.34	5	19.60	7	1.3	100	1.3	0	0	981.6	NA	0.0000		9999	0	0	0	5350
2019/05/05 23:35:00	BASE	17.59	6	19.60	7	1.3	100	1.3	0	0	981.5	NA	0.0000		9999	0	0	0	5680
2019/05/05 23:36:00	BASE	16.74	5	19.60	7	1.3	100	1.3	0	0	981.6	NA	0.0000		9999	0	0	0	5740
2019/05/05 23:37:00	BASE	15.66	4	19.34	10	1.3	100	1.3	0	0	981.6	NA	0.0000		9999	460	0	0	0
2019/05/05 23:38:00	BASE	15.40	3	19.24	9	1.3	100	1.3	0	0	981.6	NA	0.0000		9999	430	0	0	0
2019/05/05 23:39:00	BASE	16.08	4	19.03	9	1.3	100	1.3	0	0	981.6	NA	0.0000		9999	460	0	0	0
2019/05/05 23:40:00	BASE	16.75	6	19.03	9	1.3	100	1.3	0	0	981.6	NA	0.0000		9999	490	0	0	0
2019/05/05 23:41:00	BASE	16.42	5	19.03	9	1.3	100	1.3	0	0	981.6	NA	0.0000		9999	330	0	0	0
2019/05/05 23:42:00	BASE	15.01	3	19.03	9	1.3	100	1.3	0	0	981.6	NA	0.0000		9999	300	0	0	0
2019/05/05 23:43:00	BASE	13.86	2	19.03	9	1.3	100	1.3	0	0	981.6	NA	0.0000		9999	300	0	0	0
2019/05/05 23:44:00	BASE	13.18	3	18.98	6	1.3	100	1.3	0	0	981.7	NA	0.0000		9999	360	0	0	0
2019/05/05 23:45:00	BASE	13.17	4	17.75	6	1.2	100	1.2	0	0	981.7	NA	0.0000		9999	460	0	0	0
2019/05/05 23:46:00	BASE	13.54	1	17.65	6	1.2	100	1.2	0	0	981.7	NA	0.0000		9999	1050	0	0	0
2019/05/05 23:47:00	BASE	13.17	0	17.65	6	1.3	100	1.3	0	0	981.7	NA	0.0000		9999	890	0	0	0
2019/05/05 23:48:00	BASE	12.87	360	17.65	6	1.3	100	1.3	0	0	981.7	NA	0.0000		9999	690	1410	0	0
2019/05/05 23:49:00	BASE	11.76	354	17.65	6	1.3	100	1.3	0	0	981.7	NA	0.0000		9999	1210	0	0	0
2019/05/05 23:50:00	BASE	11.55	349	16.87	6	1.4	100	1.4	0	0	981.7	NA	0.0000		9999	1120	0	0	0
2019/05/05 23:51:00	BASE	12.06	348	15.84	2	1.4	100	1.4	0	0	981.7	NA	0.0000		9999	890	1570	0	0
2019/05/05 23:52:00	BASE	11.49	349	15.84	2	1.4	100	1.4	0	0	981.7	NA	0.0000		9999	850	0	0	0
2019/05/05 23:53:00	BASE	12.09	354	15.84	2	1.4	100	1.4	0	0	981.7	NA	0.0000		9999	1120	0	0	0
2019/05/05 23:54:00	BASE	13.16	358	15.84	2	1.4	100	1.4	0	0	981.7	NA	0.0000		9999	1080	0	0	0
2019/05/05 23:55:00	BASE	13.22	355	15.48	1	1.4	100	1.4	0	0	981.7	NA	0.0000		9999	790	0	0	0
2019/05/05 23:56:00	BASE	12.16	356	15.28	7	1.4	100	1.4	0	0	981.7	NA	0.0000		9999	920	0	0	0
2019/05/05 23:57:00	BASE	11.73	1	14.56	8	1.4	100	1.4	0	0	981.7	NA	0.0000		9999	720	0	0	0
2019/05/05 23:58:00	BASE	12.28	358	14.97	4	1.4	100	1.4	0	0	981.6	NA	0.0000		9999	890	0	0	0
2019/05/05 23:59:00	BASE	13.15	356	15.90	353	1.4	100	1.4	0	0	981.6	NA	0.0000		9999	1050	0	0	0